<?xml version="1.0" encoding="UTF-8" standalone="no" ?>
<gpx xmlns="http://www.topografix.com/GPX/1/1" xmlns:xsi="http://www.w3.org/2001/XMLSchema-instance" xsi:schemaLocation="http://www.topografix.com/GPX/1/1 http://www.topografix.com/GPX/1/1/gpx.xsd" version="1.1" creator="VisuGPX - https://www.visugpx.com">
  <metadata>
    <name>Sortie VTT du mercredi 28 mars 2012</name>
    <desc><![CDATA[Très beau temps, parcours sympa]]></desc>
  </metadata>
  <trk>
    <name><![CDATA[Port18]]></name>
    <trkseg>
      <trkpt lat="47.68742" lon="6.04744">
        <ele>242.39999389648</ele>
        <time>2012-03-28T07:39:47.000Z</time>
      </trkpt>
      <trkpt lat="47.68747" lon="6.04758">
        <ele>242.39999389648</ele>
        <time>2012-03-28T07:39:50.000Z</time>
      </trkpt>
      <trkpt lat="47.68748" lon="6.04764">
        <ele>242.60000610352</ele>
        <time>2012-03-28T07:39:51.000Z</time>
      </trkpt>
      <trkpt lat="47.68751" lon="6.04776">
        <ele>242.60000610352</ele>
        <time>2012-03-28T07:39:53.000Z</time>
      </trkpt>
      <trkpt lat="47.68763" lon="6.0482">
        <ele>242.60000610352</ele>
        <time>2012-03-28T07:39:59.000Z</time>
      </trkpt>
      <trkpt lat="47.68767" lon="6.04836">
        <ele>242.19999694824</ele>
        <time>2012-03-28T07:40:01.000Z</time>
      </trkpt>
      <trkpt lat="47.68769" lon="6.04844">
        <ele>241.80000305176</ele>
        <time>2012-03-28T07:40:02.000Z</time>
      </trkpt>
      <trkpt lat="47.68771" lon="6.04852">
        <ele>241.39999389648</ele>
        <time>2012-03-28T07:40:03.000Z</time>
      </trkpt>
      <trkpt lat="47.68773" lon="6.0486">
        <ele>241</ele>
        <time>2012-03-28T07:40:04.000Z</time>
      </trkpt>
      <trkpt lat="47.68776" lon="6.04869">
        <ele>240.60000610352</ele>
        <time>2012-03-28T07:40:05.000Z</time>
      </trkpt>
      <trkpt lat="47.68783" lon="6.04893">
        <ele>240.60000610352</ele>
        <time>2012-03-28T07:40:08.000Z</time>
      </trkpt>
      <trkpt lat="47.68793" lon="6.04924">
        <ele>240.60000610352</ele>
        <time>2012-03-28T07:40:13.000Z</time>
      </trkpt>
      <trkpt lat="47.68798" lon="6.04935">
        <ele>240.60000610352</ele>
        <time>2012-03-28T07:40:17.000Z</time>
      </trkpt>
      <trkpt lat="47.688" lon="6.04935">
        <ele>240.60000610352</ele>
        <time>2012-03-28T07:40:18.000Z</time>
      </trkpt>
      <trkpt lat="47.68801" lon="6.04933">
        <ele>240.60000610352</ele>
        <time>2012-03-28T07:40:21.000Z</time>
      </trkpt>
      <trkpt lat="47.68802" lon="6.04933">
        <ele>240.60000610352</ele>
        <time>2012-03-28T07:40:31.000Z</time>
      </trkpt>
      <trkpt lat="47.68808" lon="6.04929">
        <ele>240.60000610352</ele>
        <time>2012-03-28T07:40:34.000Z</time>
      </trkpt>
      <trkpt lat="47.68813" lon="6.04916">
        <ele>240.60000610352</ele>
        <time>2012-03-28T07:40:37.000Z</time>
      </trkpt>
      <trkpt lat="47.68815" lon="6.04911">
        <ele>240.60000610352</ele>
        <time>2012-03-28T07:40:38.000Z</time>
      </trkpt>
      <trkpt lat="47.68819" lon="6.04906">
        <ele>240.19999694824</ele>
        <time>2012-03-28T07:40:39.000Z</time>
      </trkpt>
      <trkpt lat="47.68824" lon="6.04903">
        <ele>239.80000305176</ele>
        <time>2012-03-28T07:40:40.000Z</time>
      </trkpt>
      <trkpt lat="47.6883" lon="6.04902">
        <ele>239.39999389648</ele>
        <time>2012-03-28T07:40:41.000Z</time>
      </trkpt>
      <trkpt lat="47.68835" lon="6.04905">
        <ele>239</ele>
        <time>2012-03-28T07:40:42.000Z</time>
      </trkpt>
      <trkpt lat="47.6884" lon="6.0491">
        <ele>238.60000610352</ele>
        <time>2012-03-28T07:40:43.000Z</time>
      </trkpt>
      <trkpt lat="47.68843" lon="6.04916">
        <ele>238.60000610352</ele>
        <time>2012-03-28T07:40:44.000Z</time>
      </trkpt>
      <trkpt lat="47.68851" lon="6.04933">
        <ele>238.60000610352</ele>
        <time>2012-03-28T07:40:47.000Z</time>
      </trkpt>
      <trkpt lat="47.68856" lon="6.04943">
        <ele>238.60000610352</ele>
        <time>2012-03-28T07:40:49.000Z</time>
      </trkpt>
      <trkpt lat="47.68869" lon="6.0497">
        <ele>238.60000610352</ele>
        <time>2012-03-28T07:40:57.000Z</time>
      </trkpt>
      <trkpt lat="47.68887" lon="6.05002">
        <ele>239</ele>
        <time>2012-03-28T07:41:06.000Z</time>
      </trkpt>
      <trkpt lat="47.68889" lon="6.05005">
        <ele>239.39999389648</ele>
        <time>2012-03-28T07:41:07.000Z</time>
      </trkpt>
      <trkpt lat="47.68892" lon="6.05007">
        <ele>239.80000305176</ele>
        <time>2012-03-28T07:41:08.000Z</time>
      </trkpt>
      <trkpt lat="47.68894" lon="6.05009">
        <ele>240.19999694824</ele>
        <time>2012-03-28T07:41:09.000Z</time>
      </trkpt>
      <trkpt lat="47.68897" lon="6.05012">
        <ele>240.60000610352</ele>
        <time>2012-03-28T07:41:10.000Z</time>
      </trkpt>
      <trkpt lat="47.68903" lon="6.05019">
        <ele>240.60000610352</ele>
        <time>2012-03-28T07:41:13.000Z</time>
      </trkpt>
      <trkpt lat="47.68919" lon="6.05033">
        <ele>241</ele>
        <time>2012-03-28T07:41:20.000Z</time>
      </trkpt>
      <trkpt lat="47.68921" lon="6.05035">
        <ele>241.80000305176</ele>
        <time>2012-03-28T07:41:21.000Z</time>
      </trkpt>
      <trkpt lat="47.68924" lon="6.05037">
        <ele>242.19999694824</ele>
        <time>2012-03-28T07:41:22.000Z</time>
      </trkpt>
      <trkpt lat="47.68926" lon="6.05039">
        <ele>242.60000610352</ele>
        <time>2012-03-28T07:41:23.000Z</time>
      </trkpt>
      <trkpt lat="47.6894" lon="6.05049">
        <ele>242.60000610352</ele>
        <time>2012-03-28T07:41:29.000Z</time>
      </trkpt>
      <trkpt lat="47.68949" lon="6.05056">
        <ele>243</ele>
        <time>2012-03-28T07:41:33.000Z</time>
      </trkpt>
      <trkpt lat="47.68951" lon="6.05058">
        <ele>243.39999389648</ele>
        <time>2012-03-28T07:41:34.000Z</time>
      </trkpt>
      <trkpt lat="47.68953" lon="6.05059">
        <ele>243.80000305176</ele>
        <time>2012-03-28T07:41:35.000Z</time>
      </trkpt>
      <trkpt lat="47.68955" lon="6.05059">
        <ele>244.19999694824</ele>
        <time>2012-03-28T07:41:36.000Z</time>
      </trkpt>
      <trkpt lat="47.68957" lon="6.0506">
        <ele>244.60000610352</ele>
        <time>2012-03-28T07:41:37.000Z</time>
      </trkpt>
      <trkpt lat="47.68967" lon="6.05067">
        <ele>244.60000610352</ele>
        <time>2012-03-28T07:41:43.000Z</time>
      </trkpt>
      <trkpt lat="47.68969" lon="6.05068">
        <ele>245</ele>
        <time>2012-03-28T07:41:44.000Z</time>
      </trkpt>
      <trkpt lat="47.68971" lon="6.0507">
        <ele>245.39999389648</ele>
        <time>2012-03-28T07:41:45.000Z</time>
      </trkpt>
      <trkpt lat="47.68973" lon="6.0507">
        <ele>246.19999694824</ele>
        <time>2012-03-28T07:41:46.000Z</time>
      </trkpt>
      <trkpt lat="47.68975" lon="6.05071">
        <ele>246.60000610352</ele>
        <time>2012-03-28T07:41:47.000Z</time>
      </trkpt>
      <trkpt lat="47.68979" lon="6.05074">
        <ele>246.60000610352</ele>
        <time>2012-03-28T07:41:50.000Z</time>
      </trkpt>
      <trkpt lat="47.6899" lon="6.05081">
        <ele>247</ele>
        <time>2012-03-28T07:41:54.000Z</time>
      </trkpt>
      <trkpt lat="47.68992" lon="6.05082">
        <ele>247.39999389648</ele>
        <time>2012-03-28T07:41:55.000Z</time>
      </trkpt>
      <trkpt lat="47.68995" lon="6.05084">
        <ele>247.80000305176</ele>
        <time>2012-03-28T07:41:56.000Z</time>
      </trkpt>
      <trkpt lat="47.68997" lon="6.05085">
        <ele>248.39999389648</ele>
        <time>2012-03-28T07:41:57.000Z</time>
      </trkpt>
      <trkpt lat="47.68999" lon="6.05087">
        <ele>248.80000305176</ele>
        <time>2012-03-28T07:41:58.000Z</time>
      </trkpt>
      <trkpt lat="47.69005" lon="6.0509">
        <ele>248.80000305176</ele>
        <time>2012-03-28T07:42:01.000Z</time>
      </trkpt>
      <trkpt lat="47.69012" lon="6.05093">
        <ele>249.19999694824</ele>
        <time>2012-03-28T07:42:04.000Z</time>
      </trkpt>
      <trkpt lat="47.69014" lon="6.05094">
        <ele>249.60000610352</ele>
        <time>2012-03-28T07:42:05.000Z</time>
      </trkpt>
      <trkpt lat="47.69017" lon="6.05095">
        <ele>250</ele>
        <time>2012-03-28T07:42:06.000Z</time>
      </trkpt>
      <trkpt lat="47.69019" lon="6.05096">
        <ele>250.39999389648</ele>
        <time>2012-03-28T07:42:07.000Z</time>
      </trkpt>
      <trkpt lat="47.69022" lon="6.05098">
        <ele>250.80000305176</ele>
        <time>2012-03-28T07:42:08.000Z</time>
      </trkpt>
      <trkpt lat="47.69033" lon="6.05105">
        <ele>251.19999694824</ele>
        <time>2012-03-28T07:42:14.000Z</time>
      </trkpt>
      <trkpt lat="47.69034" lon="6.05106">
        <ele>251.60000610352</ele>
        <time>2012-03-28T07:42:15.000Z</time>
      </trkpt>
      <trkpt lat="47.69036" lon="6.05107">
        <ele>252</ele>
        <time>2012-03-28T07:42:16.000Z</time>
      </trkpt>
      <trkpt lat="47.69037" lon="6.05109">
        <ele>252.39999389648</ele>
        <time>2012-03-28T07:42:17.000Z</time>
      </trkpt>
      <trkpt lat="47.69039" lon="6.05109">
        <ele>252.80000305176</ele>
        <time>2012-03-28T07:42:18.000Z</time>
      </trkpt>
      <trkpt lat="47.69047" lon="6.05113">
        <ele>252.80000305176</ele>
        <time>2012-03-28T07:42:23.000Z</time>
      </trkpt>
      <trkpt lat="47.69055" lon="6.05119">
        <ele>252.80000305176</ele>
        <time>2012-03-28T07:42:28.000Z</time>
      </trkpt>
      <trkpt lat="47.69058" lon="6.05121">
        <ele>253.39999389648</ele>
        <time>2012-03-28T07:42:30.000Z</time>
      </trkpt>
      <trkpt lat="47.69059" lon="6.05122">
        <ele>253.80000305176</ele>
        <time>2012-03-28T07:42:31.000Z</time>
      </trkpt>
      <trkpt lat="47.69061" lon="6.05123">
        <ele>254.19999694824</ele>
        <time>2012-03-28T07:42:32.000Z</time>
      </trkpt>
      <trkpt lat="47.69062" lon="6.05124">
        <ele>254.60000610352</ele>
        <time>2012-03-28T07:42:33.000Z</time>
      </trkpt>
      <trkpt lat="47.69063" lon="6.05126">
        <ele>255</ele>
        <time>2012-03-28T07:42:34.000Z</time>
      </trkpt>
      <trkpt lat="47.69074" lon="6.05135">
        <ele>255</ele>
        <time>2012-03-28T07:42:40.000Z</time>
      </trkpt>
      <trkpt lat="47.69082" lon="6.05141">
        <ele>255.39999389648</ele>
        <time>2012-03-28T07:42:44.000Z</time>
      </trkpt>
      <trkpt lat="47.69084" lon="6.05143">
        <ele>255.80000305176</ele>
        <time>2012-03-28T07:42:45.000Z</time>
      </trkpt>
      <trkpt lat="47.69085" lon="6.05144">
        <ele>256.20001220703</ele>
        <time>2012-03-28T07:42:46.000Z</time>
      </trkpt>
      <trkpt lat="47.69087" lon="6.05145">
        <ele>256.60000610352</ele>
        <time>2012-03-28T07:42:47.000Z</time>
      </trkpt>
      <trkpt lat="47.69089" lon="6.05146">
        <ele>257</ele>
        <time>2012-03-28T07:42:48.000Z</time>
      </trkpt>
      <trkpt lat="47.69102" lon="6.05154">
        <ele>257</ele>
        <time>2012-03-28T07:42:53.000Z</time>
      </trkpt>
      <trkpt lat="47.69123" lon="6.05172">
        <ele>257</ele>
        <time>2012-03-28T07:43:01.000Z</time>
      </trkpt>
      <trkpt lat="47.69151" lon="6.05196">
        <ele>257</ele>
        <time>2012-03-28T07:43:11.000Z</time>
      </trkpt>
      <trkpt lat="47.69182" lon="6.05231">
        <ele>257</ele>
        <time>2012-03-28T07:43:23.000Z</time>
      </trkpt>
      <trkpt lat="47.69208" lon="6.05259">
        <ele>257</ele>
        <time>2012-03-28T07:43:32.000Z</time>
      </trkpt>
      <trkpt lat="47.69224" lon="6.05276">
        <ele>257</ele>
        <time>2012-03-28T07:43:38.000Z</time>
      </trkpt>
      <trkpt lat="47.69245" lon="6.053">
        <ele>257</ele>
        <time>2012-03-28T07:43:46.000Z</time>
      </trkpt>
      <trkpt lat="47.69271" lon="6.05327">
        <ele>257</ele>
        <time>2012-03-28T07:43:55.000Z</time>
      </trkpt>
      <trkpt lat="47.693" lon="6.05351">
        <ele>257</ele>
        <time>2012-03-28T07:44:04.000Z</time>
      </trkpt>
      <trkpt lat="47.69324" lon="6.05369">
        <ele>257</ele>
        <time>2012-03-28T07:44:12.000Z</time>
      </trkpt>
      <trkpt lat="47.69353" lon="6.05392">
        <ele>257</ele>
        <time>2012-03-28T07:44:22.000Z</time>
      </trkpt>
      <trkpt lat="47.69372" lon="6.05408">
        <ele>257</ele>
        <time>2012-03-28T07:44:29.000Z</time>
      </trkpt>
      <trkpt lat="47.69387" lon="6.0542">
        <ele>257.39999389648</ele>
        <time>2012-03-28T07:44:34.000Z</time>
      </trkpt>
      <trkpt lat="47.69389" lon="6.05422">
        <ele>257.79998779297</ele>
        <time>2012-03-28T07:44:35.000Z</time>
      </trkpt>
      <trkpt lat="47.69392" lon="6.05425">
        <ele>258.39999389648</ele>
        <time>2012-03-28T07:44:36.000Z</time>
      </trkpt>
      <trkpt lat="47.69395" lon="6.05427">
        <ele>258.79998779297</ele>
        <time>2012-03-28T07:44:37.000Z</time>
      </trkpt>
      <trkpt lat="47.69399" lon="6.05429">
        <ele>259.20001220703</ele>
        <time>2012-03-28T07:44:38.000Z</time>
      </trkpt>
      <trkpt lat="47.69416" lon="6.05444">
        <ele>259.20001220703</ele>
        <time>2012-03-28T07:44:44.000Z</time>
      </trkpt>
      <trkpt lat="47.69435" lon="6.05467">
        <ele>259.20001220703</ele>
        <time>2012-03-28T07:44:52.000Z</time>
      </trkpt>
      <trkpt lat="47.69449" lon="6.05495">
        <ele>259.20001220703</ele>
        <time>2012-03-28T07:44:59.000Z</time>
      </trkpt>
      <trkpt lat="47.69459" lon="6.05521">
        <ele>259.60000610352</ele>
        <time>2012-03-28T07:45:05.000Z</time>
      </trkpt>
      <trkpt lat="47.69462" lon="6.05526">
        <ele>260</ele>
        <time>2012-03-28T07:45:06.000Z</time>
      </trkpt>
      <trkpt lat="47.69464" lon="6.05531">
        <ele>260.39999389648</ele>
        <time>2012-03-28T07:45:07.000Z</time>
      </trkpt>
      <trkpt lat="47.69466" lon="6.05536">
        <ele>260.79998779297</ele>
        <time>2012-03-28T07:45:08.000Z</time>
      </trkpt>
      <trkpt lat="47.69468" lon="6.05542">
        <ele>261.20001220703</ele>
        <time>2012-03-28T07:45:09.000Z</time>
      </trkpt>
      <trkpt lat="47.69473" lon="6.05558">
        <ele>261.20001220703</ele>
        <time>2012-03-28T07:45:12.000Z</time>
      </trkpt>
      <trkpt lat="47.69485" lon="6.05587">
        <ele>261.20001220703</ele>
        <time>2012-03-28T07:45:19.000Z</time>
      </trkpt>
      <trkpt lat="47.69493" lon="6.05608">
        <ele>261.60000610352</ele>
        <time>2012-03-28T07:45:25.000Z</time>
      </trkpt>
      <trkpt lat="47.69494" lon="6.05612">
        <ele>262</ele>
        <time>2012-03-28T07:45:26.000Z</time>
      </trkpt>
      <trkpt lat="47.69495" lon="6.05615">
        <ele>262.39999389648</ele>
        <time>2012-03-28T07:45:27.000Z</time>
      </trkpt>
      <trkpt lat="47.69496" lon="6.05619">
        <ele>262.79998779297</ele>
        <time>2012-03-28T07:45:28.000Z</time>
      </trkpt>
      <trkpt lat="47.69496" lon="6.05623">
        <ele>263.20001220703</ele>
        <time>2012-03-28T07:45:29.000Z</time>
      </trkpt>
      <trkpt lat="47.69502" lon="6.05648">
        <ele>263.20001220703</ele>
        <time>2012-03-28T07:45:36.000Z</time>
      </trkpt>
      <trkpt lat="47.69508" lon="6.05672">
        <ele>263.20001220703</ele>
        <time>2012-03-28T07:45:43.000Z</time>
      </trkpt>
      <trkpt lat="47.69513" lon="6.05689">
        <ele>263.60000610352</ele>
        <time>2012-03-28T07:45:48.000Z</time>
      </trkpt>
      <trkpt lat="47.69514" lon="6.05693">
        <ele>264</ele>
        <time>2012-03-28T07:45:49.000Z</time>
      </trkpt>
      <trkpt lat="47.69515" lon="6.05697">
        <ele>264.39999389648</ele>
        <time>2012-03-28T07:45:50.000Z</time>
      </trkpt>
      <trkpt lat="47.69516" lon="6.05701">
        <ele>264.79998779297</ele>
        <time>2012-03-28T07:45:51.000Z</time>
      </trkpt>
      <trkpt lat="47.69517" lon="6.05705">
        <ele>265.20001220703</ele>
        <time>2012-03-28T07:45:52.000Z</time>
      </trkpt>
      <trkpt lat="47.69522" lon="6.05724">
        <ele>265.20001220703</ele>
        <time>2012-03-28T07:45:57.000Z</time>
      </trkpt>
      <trkpt lat="47.6953" lon="6.05753">
        <ele>265.20001220703</ele>
        <time>2012-03-28T07:46:04.000Z</time>
      </trkpt>
      <trkpt lat="47.69533" lon="6.05763">
        <ele>265.60000610352</ele>
        <time>2012-03-28T07:46:07.000Z</time>
      </trkpt>
      <trkpt lat="47.69534" lon="6.05766">
        <ele>266.20001220703</ele>
        <time>2012-03-28T07:46:08.000Z</time>
      </trkpt>
      <trkpt lat="47.69535" lon="6.05769">
        <ele>266.60000610352</ele>
        <time>2012-03-28T07:46:09.000Z</time>
      </trkpt>
      <trkpt lat="47.69536" lon="6.05773">
        <ele>267</ele>
        <time>2012-03-28T07:46:10.000Z</time>
      </trkpt>
      <trkpt lat="47.69537" lon="6.05776">
        <ele>267.39999389648</ele>
        <time>2012-03-28T07:46:11.000Z</time>
      </trkpt>
      <trkpt lat="47.6954" lon="6.05785">
        <ele>267.39999389648</ele>
        <time>2012-03-28T07:46:14.000Z</time>
      </trkpt>
      <trkpt lat="47.69546" lon="6.05811">
        <ele>267.39999389648</ele>
        <time>2012-03-28T07:46:22.000Z</time>
      </trkpt>
      <trkpt lat="47.6955" lon="6.05828">
        <ele>267.79998779297</ele>
        <time>2012-03-28T07:46:27.000Z</time>
      </trkpt>
      <trkpt lat="47.69551" lon="6.05832">
        <ele>268.20001220703</ele>
        <time>2012-03-28T07:46:28.000Z</time>
      </trkpt>
      <trkpt lat="47.69552" lon="6.05835">
        <ele>268.60000610352</ele>
        <time>2012-03-28T07:46:29.000Z</time>
      </trkpt>
      <trkpt lat="47.69553" lon="6.05838">
        <ele>269</ele>
        <time>2012-03-28T07:46:30.000Z</time>
      </trkpt>
      <trkpt lat="47.69554" lon="6.05841">
        <ele>269.39999389648</ele>
        <time>2012-03-28T07:46:31.000Z</time>
      </trkpt>
      <trkpt lat="47.6956" lon="6.05868">
        <ele>269.39999389648</ele>
        <time>2012-03-28T07:46:38.000Z</time>
      </trkpt>
      <trkpt lat="47.69567" lon="6.05894">
        <ele>269.39999389648</ele>
        <time>2012-03-28T07:46:45.000Z</time>
      </trkpt>
      <trkpt lat="47.69573" lon="6.05925">
        <ele>269.39999389648</ele>
        <time>2012-03-28T07:46:53.000Z</time>
      </trkpt>
      <trkpt lat="47.69579" lon="6.05957">
        <ele>269.79998779297</ele>
        <time>2012-03-28T07:47:01.000Z</time>
      </trkpt>
      <trkpt lat="47.6958" lon="6.05961">
        <ele>270.20001220703</ele>
        <time>2012-03-28T07:47:02.000Z</time>
      </trkpt>
      <trkpt lat="47.69581" lon="6.05966">
        <ele>270.60000610352</ele>
        <time>2012-03-28T07:47:03.000Z</time>
      </trkpt>
      <trkpt lat="47.69582" lon="6.05971">
        <ele>271</ele>
        <time>2012-03-28T07:47:04.000Z</time>
      </trkpt>
      <trkpt lat="47.69583" lon="6.05976">
        <ele>271.39999389648</ele>
        <time>2012-03-28T07:47:05.000Z</time>
      </trkpt>
      <trkpt lat="47.69586" lon="6.05987">
        <ele>271.39999389648</ele>
        <time>2012-03-28T07:47:07.000Z</time>
      </trkpt>
      <trkpt lat="47.69597" lon="6.06017">
        <ele>271.39999389648</ele>
        <time>2012-03-28T07:47:13.000Z</time>
      </trkpt>
      <trkpt lat="47.69606" lon="6.06044">
        <ele>271.39999389648</ele>
        <time>2012-03-28T07:47:20.000Z</time>
      </trkpt>
      <trkpt lat="47.69613" lon="6.06066">
        <ele>271.79998779297</ele>
        <time>2012-03-28T07:47:27.000Z</time>
      </trkpt>
      <trkpt lat="47.69614" lon="6.06069">
        <ele>272.20001220703</ele>
        <time>2012-03-28T07:47:28.000Z</time>
      </trkpt>
      <trkpt lat="47.69615" lon="6.06072">
        <ele>272.60000610352</ele>
        <time>2012-03-28T07:47:29.000Z</time>
      </trkpt>
      <trkpt lat="47.69616" lon="6.06075">
        <ele>273.20001220703</ele>
        <time>2012-03-28T07:47:30.000Z</time>
      </trkpt>
      <trkpt lat="47.69617" lon="6.06078">
        <ele>273.60000610352</ele>
        <time>2012-03-28T07:47:31.000Z</time>
      </trkpt>
      <trkpt lat="47.69621" lon="6.06093">
        <ele>273.60000610352</ele>
        <time>2012-03-28T07:47:36.000Z</time>
      </trkpt>
      <trkpt lat="47.69631" lon="6.06123">
        <ele>274</ele>
        <time>2012-03-28T07:47:45.000Z</time>
      </trkpt>
      <trkpt lat="47.69632" lon="6.06127">
        <ele>274.39999389648</ele>
        <time>2012-03-28T07:47:46.000Z</time>
      </trkpt>
      <trkpt lat="47.69633" lon="6.06131">
        <ele>274.79998779297</ele>
        <time>2012-03-28T07:47:47.000Z</time>
      </trkpt>
      <trkpt lat="47.69634" lon="6.06135">
        <ele>275.20001220703</ele>
        <time>2012-03-28T07:47:48.000Z</time>
      </trkpt>
      <trkpt lat="47.69635" lon="6.06139">
        <ele>275.60000610352</ele>
        <time>2012-03-28T07:47:49.000Z</time>
      </trkpt>
      <trkpt lat="47.6964" lon="6.06161">
        <ele>275.60000610352</ele>
        <time>2012-03-28T07:47:54.000Z</time>
      </trkpt>
      <trkpt lat="47.6965" lon="6.06196">
        <ele>275.60000610352</ele>
        <time>2012-03-28T07:48:02.000Z</time>
      </trkpt>
      <trkpt lat="47.69659" lon="6.06233">
        <ele>275.60000610352</ele>
        <time>2012-03-28T07:48:10.000Z</time>
      </trkpt>
      <trkpt lat="47.69666" lon="6.06268">
        <ele>275.60000610352</ele>
        <time>2012-03-28T07:48:18.000Z</time>
      </trkpt>
      <trkpt lat="47.69675" lon="6.06303">
        <ele>275.60000610352</ele>
        <time>2012-03-28T07:48:26.000Z</time>
      </trkpt>
      <trkpt lat="47.69683" lon="6.06338">
        <ele>275.60000610352</ele>
        <time>2012-03-28T07:48:34.000Z</time>
      </trkpt>
      <trkpt lat="47.69689" lon="6.06362">
        <ele>275.60000610352</ele>
        <time>2012-03-28T07:48:40.000Z</time>
      </trkpt>
      <trkpt lat="47.697" lon="6.06394">
        <ele>275.60000610352</ele>
        <time>2012-03-28T07:48:46.000Z</time>
      </trkpt>
      <trkpt lat="47.69715" lon="6.06433">
        <ele>275.60000610352</ele>
        <time>2012-03-28T07:48:52.000Z</time>
      </trkpt>
      <trkpt lat="47.69727" lon="6.06468">
        <ele>275.60000610352</ele>
        <time>2012-03-28T07:48:58.000Z</time>
      </trkpt>
      <trkpt lat="47.69725" lon="6.06492">
        <ele>275.60000610352</ele>
        <time>2012-03-28T07:49:03.000Z</time>
      </trkpt>
      <trkpt lat="47.69721" lon="6.06518">
        <ele>275.60000610352</ele>
        <time>2012-03-28T07:49:10.000Z</time>
      </trkpt>
      <trkpt lat="47.69717" lon="6.06537">
        <ele>275.60000610352</ele>
        <time>2012-03-28T07:49:16.000Z</time>
      </trkpt>
      <trkpt lat="47.69714" lon="6.0656">
        <ele>275.60000610352</ele>
        <time>2012-03-28T07:49:23.000Z</time>
      </trkpt>
      <trkpt lat="47.69712" lon="6.0657">
        <ele>276</ele>
        <time>2012-03-28T07:49:26.000Z</time>
      </trkpt>
      <trkpt lat="47.69712" lon="6.06574">
        <ele>276.39999389648</ele>
        <time>2012-03-28T07:49:27.000Z</time>
      </trkpt>
      <trkpt lat="47.69712" lon="6.06577">
        <ele>276.79998779297</ele>
        <time>2012-03-28T07:49:28.000Z</time>
      </trkpt>
      <trkpt lat="47.69712" lon="6.06581">
        <ele>277.20001220703</ele>
        <time>2012-03-28T07:49:29.000Z</time>
      </trkpt>
      <trkpt lat="47.69712" lon="6.06585">
        <ele>277.60000610352</ele>
        <time>2012-03-28T07:49:30.000Z</time>
      </trkpt>
      <trkpt lat="47.69709" lon="6.06608">
        <ele>277.60000610352</ele>
        <time>2012-03-28T07:49:36.000Z</time>
      </trkpt>
      <trkpt lat="47.69707" lon="6.06638">
        <ele>277.60000610352</ele>
        <time>2012-03-28T07:49:43.000Z</time>
      </trkpt>
      <trkpt lat="47.69707" lon="6.06667">
        <ele>277.60000610352</ele>
        <time>2012-03-28T07:49:49.000Z</time>
      </trkpt>
      <trkpt lat="47.69707" lon="6.06707">
        <ele>277.60000610352</ele>
        <time>2012-03-28T07:49:57.000Z</time>
      </trkpt>
      <trkpt lat="47.69706" lon="6.06725">
        <ele>277.60000610352</ele>
        <time>2012-03-28T07:50:00.000Z</time>
      </trkpt>
      <trkpt lat="47.69705" lon="6.06737">
        <ele>277.60000610352</ele>
        <time>2012-03-28T07:50:02.000Z</time>
      </trkpt>
      <trkpt lat="47.69703" lon="6.06788">
        <ele>277.60000610352</ele>
        <time>2012-03-28T07:50:09.000Z</time>
      </trkpt>
      <trkpt lat="47.69703" lon="6.06802">
        <ele>277.60000610352</ele>
        <time>2012-03-28T07:50:11.000Z</time>
      </trkpt>
      <trkpt lat="47.69703" lon="6.06819">
        <ele>277.60000610352</ele>
        <time>2012-03-28T07:50:14.000Z</time>
      </trkpt>
      <trkpt lat="47.69703" lon="6.06847">
        <ele>277.60000610352</ele>
        <time>2012-03-28T07:50:20.000Z</time>
      </trkpt>
      <trkpt lat="47.69705" lon="6.06868">
        <ele>277.60000610352</ele>
        <time>2012-03-28T07:50:26.000Z</time>
      </trkpt>
      <trkpt lat="47.6971" lon="6.06887">
        <ele>277.60000610352</ele>
        <time>2012-03-28T07:50:32.000Z</time>
      </trkpt>
      <trkpt lat="47.69713" lon="6.06904">
        <ele>277.60000610352</ele>
        <time>2012-03-28T07:50:37.000Z</time>
      </trkpt>
      <trkpt lat="47.69714" lon="6.06908">
        <ele>278</ele>
        <time>2012-03-28T07:50:38.000Z</time>
      </trkpt>
      <trkpt lat="47.69714" lon="6.06911">
        <ele>278.39999389648</ele>
        <time>2012-03-28T07:50:39.000Z</time>
      </trkpt>
      <trkpt lat="47.69715" lon="6.06915">
        <ele>278.79998779297</ele>
        <time>2012-03-28T07:50:40.000Z</time>
      </trkpt>
      <trkpt lat="47.69716" lon="6.06919">
        <ele>279.20001220703</ele>
        <time>2012-03-28T07:50:41.000Z</time>
      </trkpt>
      <trkpt lat="47.69718" lon="6.06923">
        <ele>279.60000610352</ele>
        <time>2012-03-28T07:50:42.000Z</time>
      </trkpt>
      <trkpt lat="47.69725" lon="6.06947">
        <ele>279.60000610352</ele>
        <time>2012-03-28T07:50:48.000Z</time>
      </trkpt>
      <trkpt lat="47.69732" lon="6.06975">
        <ele>279.60000610352</ele>
        <time>2012-03-28T07:50:54.000Z</time>
      </trkpt>
      <trkpt lat="47.69741" lon="6.07006">
        <ele>279.60000610352</ele>
        <time>2012-03-28T07:51:00.000Z</time>
      </trkpt>
      <trkpt lat="47.69745" lon="6.07016">
        <ele>279.20001220703</ele>
        <time>2012-03-28T07:51:02.000Z</time>
      </trkpt>
      <trkpt lat="47.69747" lon="6.07021">
        <ele>278.79998779297</ele>
        <time>2012-03-28T07:51:03.000Z</time>
      </trkpt>
      <trkpt lat="47.69749" lon="6.07026">
        <ele>278.39999389648</ele>
        <time>2012-03-28T07:51:04.000Z</time>
      </trkpt>
      <trkpt lat="47.69752" lon="6.07032">
        <ele>278</ele>
        <time>2012-03-28T07:51:05.000Z</time>
      </trkpt>
      <trkpt lat="47.69754" lon="6.07038">
        <ele>277.60000610352</ele>
        <time>2012-03-28T07:51:06.000Z</time>
      </trkpt>
      <trkpt lat="47.69757" lon="6.07043">
        <ele>277.60000610352</ele>
        <time>2012-03-28T07:51:07.000Z</time>
      </trkpt>
      <trkpt lat="47.69772" lon="6.07075">
        <ele>277.20001220703</ele>
        <time>2012-03-28T07:51:12.000Z</time>
      </trkpt>
      <trkpt lat="47.69776" lon="6.07082">
        <ele>276.79998779297</ele>
        <time>2012-03-28T07:51:13.000Z</time>
      </trkpt>
      <trkpt lat="47.69779" lon="6.07089">
        <ele>276.39999389648</ele>
        <time>2012-03-28T07:51:14.000Z</time>
      </trkpt>
      <trkpt lat="47.69782" lon="6.07097">
        <ele>275.60000610352</ele>
        <time>2012-03-28T07:51:15.000Z</time>
      </trkpt>
      <trkpt lat="47.69792" lon="6.07119">
        <ele>275</ele>
        <time>2012-03-28T07:51:18.000Z</time>
      </trkpt>
      <trkpt lat="47.69796" lon="6.07127">
        <ele>274.60000610352</ele>
        <time>2012-03-28T07:51:19.000Z</time>
      </trkpt>
      <trkpt lat="47.69798" lon="6.07135">
        <ele>274.20001220703</ele>
        <time>2012-03-28T07:51:20.000Z</time>
      </trkpt>
      <trkpt lat="47.69801" lon="6.07144">
        <ele>273.79998779297</ele>
        <time>2012-03-28T07:51:21.000Z</time>
      </trkpt>
      <trkpt lat="47.69803" lon="6.07153">
        <ele>273.39999389648</ele>
        <time>2012-03-28T07:51:22.000Z</time>
      </trkpt>
      <trkpt lat="47.69805" lon="6.07172">
        <ele>273.39999389648</ele>
        <time>2012-03-28T07:51:24.000Z</time>
      </trkpt>
      <trkpt lat="47.69806" lon="6.07212">
        <ele>273.39999389648</ele>
        <time>2012-03-28T07:51:29.000Z</time>
      </trkpt>
      <trkpt lat="47.69806" lon="6.07254">
        <ele>273.39999389648</ele>
        <time>2012-03-28T07:51:35.000Z</time>
      </trkpt>
      <trkpt lat="47.69806" lon="6.07261">
        <ele>272.79998779297</ele>
        <time>2012-03-28T07:51:36.000Z</time>
      </trkpt>
      <trkpt lat="47.69806" lon="6.07268">
        <ele>272.39999389648</ele>
        <time>2012-03-28T07:51:37.000Z</time>
      </trkpt>
      <trkpt lat="47.69806" lon="6.07274">
        <ele>272</ele>
        <time>2012-03-28T07:51:38.000Z</time>
      </trkpt>
      <trkpt lat="47.69806" lon="6.07281">
        <ele>271.20001220703</ele>
        <time>2012-03-28T07:51:39.000Z</time>
      </trkpt>
      <trkpt lat="47.69805" lon="6.07291">
        <ele>271.20001220703</ele>
        <time>2012-03-28T07:51:41.000Z</time>
      </trkpt>
      <trkpt lat="47.69803" lon="6.07316">
        <ele>271.20001220703</ele>
        <time>2012-03-28T07:51:47.000Z</time>
      </trkpt>
      <trkpt lat="47.698" lon="6.07345">
        <ele>271.20001220703</ele>
        <time>2012-03-28T07:51:54.000Z</time>
      </trkpt>
      <trkpt lat="47.69797" lon="6.07373">
        <ele>271.60000610352</ele>
        <time>2012-03-28T07:52:01.000Z</time>
      </trkpt>
      <trkpt lat="47.69797" lon="6.07377">
        <ele>272</ele>
        <time>2012-03-28T07:52:02.000Z</time>
      </trkpt>
      <trkpt lat="47.69797" lon="6.07381">
        <ele>272.39999389648</ele>
        <time>2012-03-28T07:52:03.000Z</time>
      </trkpt>
      <trkpt lat="47.69797" lon="6.07385">
        <ele>273.20001220703</ele>
        <time>2012-03-28T07:52:04.000Z</time>
      </trkpt>
      <trkpt lat="47.69795" lon="6.07404">
        <ele>273.20001220703</ele>
        <time>2012-03-28T07:52:09.000Z</time>
      </trkpt>
      <trkpt lat="47.69791" lon="6.07438">
        <ele>273.20001220703</ele>
        <time>2012-03-28T07:52:17.000Z</time>
      </trkpt>
      <trkpt lat="47.6979" lon="6.07462">
        <ele>273.20001220703</ele>
        <time>2012-03-28T07:52:23.000Z</time>
      </trkpt>
      <trkpt lat="47.69794" lon="6.07483">
        <ele>273.20001220703</ele>
        <time>2012-03-28T07:52:28.000Z</time>
      </trkpt>
      <trkpt lat="47.69807" lon="6.07498">
        <ele>273.20001220703</ele>
        <time>2012-03-28T07:52:33.000Z</time>
      </trkpt>
      <trkpt lat="47.69819" lon="6.0751">
        <ele>273.20001220703</ele>
        <time>2012-03-28T07:52:38.000Z</time>
      </trkpt>
      <trkpt lat="47.69836" lon="6.07525">
        <ele>273.20001220703</ele>
        <time>2012-03-28T07:52:44.000Z</time>
      </trkpt>
      <trkpt lat="47.69858" lon="6.07543">
        <ele>273.20001220703</ele>
        <time>2012-03-28T07:52:52.000Z</time>
      </trkpt>
      <trkpt lat="47.69876" lon="6.07559">
        <ele>273.20001220703</ele>
        <time>2012-03-28T07:52:59.000Z</time>
      </trkpt>
      <trkpt lat="47.69891" lon="6.07571">
        <ele>273.20001220703</ele>
        <time>2012-03-28T07:53:04.000Z</time>
      </trkpt>
      <trkpt lat="47.69907" lon="6.07584">
        <ele>273.20001220703</ele>
        <time>2012-03-28T07:53:10.000Z</time>
      </trkpt>
      <trkpt lat="47.69927" lon="6.07605">
        <ele>273.20001220703</ele>
        <time>2012-03-28T07:53:18.000Z</time>
      </trkpt>
      <trkpt lat="47.69942" lon="6.07617">
        <ele>273.20001220703</ele>
        <time>2012-03-28T07:53:24.000Z</time>
      </trkpt>
      <trkpt lat="47.69953" lon="6.07626">
        <ele>273.20001220703</ele>
        <time>2012-03-28T07:53:30.000Z</time>
      </trkpt>
      <trkpt lat="47.69964" lon="6.07636">
        <ele>273.20001220703</ele>
        <time>2012-03-28T07:53:35.000Z</time>
      </trkpt>
      <trkpt lat="47.69978" lon="6.07655">
        <ele>273.20001220703</ele>
        <time>2012-03-28T07:53:41.000Z</time>
      </trkpt>
      <trkpt lat="47.6998" lon="6.07676">
        <ele>273.20001220703</ele>
        <time>2012-03-28T07:53:46.000Z</time>
      </trkpt>
      <trkpt lat="47.6997" lon="6.07695">
        <ele>273.20001220703</ele>
        <time>2012-03-28T07:53:52.000Z</time>
      </trkpt>
      <trkpt lat="47.69959" lon="6.07718">
        <ele>273.20001220703</ele>
        <time>2012-03-28T07:54:00.000Z</time>
      </trkpt>
      <trkpt lat="47.69959" lon="6.0773">
        <ele>273.60000610352</ele>
        <time>2012-03-28T07:54:03.000Z</time>
      </trkpt>
      <trkpt lat="47.6996" lon="6.07734">
        <ele>274</ele>
        <time>2012-03-28T07:54:04.000Z</time>
      </trkpt>
      <trkpt lat="47.69961" lon="6.07738">
        <ele>274.39999389648</ele>
        <time>2012-03-28T07:54:05.000Z</time>
      </trkpt>
      <trkpt lat="47.69962" lon="6.07742">
        <ele>274.79998779297</ele>
        <time>2012-03-28T07:54:06.000Z</time>
      </trkpt>
      <trkpt lat="47.69964" lon="6.07745">
        <ele>275.20001220703</ele>
        <time>2012-03-28T07:54:07.000Z</time>
      </trkpt>
      <trkpt lat="47.69966" lon="6.07752">
        <ele>275.20001220703</ele>
        <time>2012-03-28T07:54:09.000Z</time>
      </trkpt>
      <trkpt lat="47.69976" lon="6.07775">
        <ele>275.20001220703</ele>
        <time>2012-03-28T07:54:16.000Z</time>
      </trkpt>
      <trkpt lat="47.69989" lon="6.07784">
        <ele>275.20001220703</ele>
        <time>2012-03-28T07:54:22.000Z</time>
      </trkpt>
      <trkpt lat="47.70003" lon="6.07784">
        <ele>275.20001220703</ele>
        <time>2012-03-28T07:54:28.000Z</time>
      </trkpt>
      <trkpt lat="47.70007" lon="6.07788">
        <ele>275.20001220703</ele>
        <time>2012-03-28T07:54:30.000Z</time>
      </trkpt>
      <trkpt lat="47.70012" lon="6.07794">
        <ele>275.20001220703</ele>
        <time>2012-03-28T07:54:33.000Z</time>
      </trkpt>
      <trkpt lat="47.7002" lon="6.07799">
        <ele>275.20001220703</ele>
        <time>2012-03-28T07:54:36.000Z</time>
      </trkpt>
      <trkpt lat="47.70036" lon="6.07812">
        <ele>275.20001220703</ele>
        <time>2012-03-28T07:54:41.000Z</time>
      </trkpt>
      <trkpt lat="47.70057" lon="6.07827">
        <ele>275.20001220703</ele>
        <time>2012-03-28T07:54:47.000Z</time>
      </trkpt>
      <trkpt lat="47.70064" lon="6.07834">
        <ele>275.20001220703</ele>
        <time>2012-03-28T07:54:49.000Z</time>
      </trkpt>
      <trkpt lat="47.70072" lon="6.07856">
        <ele>274.79998779297</ele>
        <time>2012-03-28T07:54:53.000Z</time>
      </trkpt>
      <trkpt lat="47.70074" lon="6.07863">
        <ele>274.39999389648</ele>
        <time>2012-03-28T07:54:54.000Z</time>
      </trkpt>
      <trkpt lat="47.70076" lon="6.0787">
        <ele>274</ele>
        <time>2012-03-28T07:54:55.000Z</time>
      </trkpt>
      <trkpt lat="47.70078" lon="6.07878">
        <ele>273.60000610352</ele>
        <time>2012-03-28T07:54:56.000Z</time>
      </trkpt>
      <trkpt lat="47.70081" lon="6.07886">
        <ele>273.20001220703</ele>
        <time>2012-03-28T07:54:57.000Z</time>
      </trkpt>
      <trkpt lat="47.70083" lon="6.07894">
        <ele>272.60000610352</ele>
        <time>2012-03-28T07:54:58.000Z</time>
      </trkpt>
      <trkpt lat="47.70084" lon="6.07903">
        <ele>272.20001220703</ele>
        <time>2012-03-28T07:54:59.000Z</time>
      </trkpt>
      <trkpt lat="47.70084" lon="6.07912">
        <ele>271.79998779297</ele>
        <time>2012-03-28T07:55:00.000Z</time>
      </trkpt>
      <trkpt lat="47.70083" lon="6.0792">
        <ele>271.39999389648</ele>
        <time>2012-03-28T07:55:01.000Z</time>
      </trkpt>
      <trkpt lat="47.70081" lon="6.07927">
        <ele>270.79998779297</ele>
        <time>2012-03-28T07:55:02.000Z</time>
      </trkpt>
      <trkpt lat="47.70079" lon="6.07934">
        <ele>270.79998779297</ele>
        <time>2012-03-28T07:55:03.000Z</time>
      </trkpt>
      <trkpt lat="47.70074" lon="6.07953">
        <ele>270.79998779297</ele>
        <time>2012-03-28T07:55:06.000Z</time>
      </trkpt>
      <trkpt lat="47.70067" lon="6.07969">
        <ele>270.79998779297</ele>
        <time>2012-03-28T07:55:09.000Z</time>
      </trkpt>
      <trkpt lat="47.70057" lon="6.07997">
        <ele>270.79998779297</ele>
        <time>2012-03-28T07:55:15.000Z</time>
      </trkpt>
      <trkpt lat="47.7005" lon="6.08014">
        <ele>271.20001220703</ele>
        <time>2012-03-28T07:55:21.000Z</time>
      </trkpt>
      <trkpt lat="47.70049" lon="6.08016">
        <ele>272.20001220703</ele>
        <time>2012-03-28T07:55:22.000Z</time>
      </trkpt>
      <trkpt lat="47.70049" lon="6.08019">
        <ele>272.60000610352</ele>
        <time>2012-03-28T07:55:23.000Z</time>
      </trkpt>
      <trkpt lat="47.70048" lon="6.08021">
        <ele>273</ele>
        <time>2012-03-28T07:55:24.000Z</time>
      </trkpt>
      <trkpt lat="47.70045" lon="6.08027">
        <ele>273</ele>
        <time>2012-03-28T07:55:27.000Z</time>
      </trkpt>
      <trkpt lat="47.70041" lon="6.08038">
        <ele>273.39999389648</ele>
        <time>2012-03-28T07:55:32.000Z</time>
      </trkpt>
      <trkpt lat="47.7004" lon="6.0804">
        <ele>273.79998779297</ele>
        <time>2012-03-28T07:55:33.000Z</time>
      </trkpt>
      <trkpt lat="47.7004" lon="6.08043">
        <ele>274.20001220703</ele>
        <time>2012-03-28T07:55:34.000Z</time>
      </trkpt>
      <trkpt lat="47.70039" lon="6.08045">
        <ele>274.60000610352</ele>
        <time>2012-03-28T07:55:35.000Z</time>
      </trkpt>
      <trkpt lat="47.70038" lon="6.08048">
        <ele>275</ele>
        <time>2012-03-28T07:55:36.000Z</time>
      </trkpt>
      <trkpt lat="47.70038" lon="6.08058">
        <ele>275</ele>
        <time>2012-03-28T07:55:40.000Z</time>
      </trkpt>
      <trkpt lat="47.70037" lon="6.08068">
        <ele>275.39999389648</ele>
        <time>2012-03-28T07:55:44.000Z</time>
      </trkpt>
      <trkpt lat="47.70037" lon="6.08071">
        <ele>275.79998779297</ele>
        <time>2012-03-28T07:55:45.000Z</time>
      </trkpt>
      <trkpt lat="47.70038" lon="6.08074">
        <ele>276.20001220703</ele>
        <time>2012-03-28T07:55:46.000Z</time>
      </trkpt>
      <trkpt lat="47.70038" lon="6.08076">
        <ele>277.20001220703</ele>
        <time>2012-03-28T07:55:47.000Z</time>
      </trkpt>
      <trkpt lat="47.70043" lon="6.08093">
        <ele>277.20001220703</ele>
        <time>2012-03-28T07:55:53.000Z</time>
      </trkpt>
      <trkpt lat="47.7005" lon="6.0811">
        <ele>277.60000610352</ele>
        <time>2012-03-28T07:55:59.000Z</time>
      </trkpt>
      <trkpt lat="47.70052" lon="6.08112">
        <ele>278</ele>
        <time>2012-03-28T07:56:00.000Z</time>
      </trkpt>
      <trkpt lat="47.70053" lon="6.08115">
        <ele>278.39999389648</ele>
        <time>2012-03-28T07:56:01.000Z</time>
      </trkpt>
      <trkpt lat="47.70054" lon="6.08118">
        <ele>278.79998779297</ele>
        <time>2012-03-28T07:56:02.000Z</time>
      </trkpt>
      <trkpt lat="47.70055" lon="6.08122">
        <ele>279.20001220703</ele>
        <time>2012-03-28T07:56:03.000Z</time>
      </trkpt>
      <trkpt lat="47.70065" lon="6.08145">
        <ele>279.20001220703</ele>
        <time>2012-03-28T07:56:11.000Z</time>
      </trkpt>
      <trkpt lat="47.70072" lon="6.08161">
        <ele>279.60000610352</ele>
        <time>2012-03-28T07:56:17.000Z</time>
      </trkpt>
      <trkpt lat="47.70073" lon="6.08164">
        <ele>280</ele>
        <time>2012-03-28T07:56:18.000Z</time>
      </trkpt>
      <trkpt lat="47.70074" lon="6.08167">
        <ele>280.39999389648</ele>
        <time>2012-03-28T07:56:19.000Z</time>
      </trkpt>
      <trkpt lat="47.70075" lon="6.0817">
        <ele>280.79998779297</ele>
        <time>2012-03-28T07:56:20.000Z</time>
      </trkpt>
      <trkpt lat="47.70076" lon="6.08173">
        <ele>281.20001220703</ele>
        <time>2012-03-28T07:56:21.000Z</time>
      </trkpt>
      <trkpt lat="47.70084" lon="6.08189">
        <ele>281.20001220703</ele>
        <time>2012-03-28T07:56:28.000Z</time>
      </trkpt>
      <trkpt lat="47.70091" lon="6.08203">
        <ele>281.20001220703</ele>
        <time>2012-03-28T07:56:34.000Z</time>
      </trkpt>
      <trkpt lat="47.70091" lon="6.08206">
        <ele>281.60000610352</ele>
        <time>2012-03-28T07:56:35.000Z</time>
      </trkpt>
      <trkpt lat="47.70092" lon="6.08208">
        <ele>282.39999389648</ele>
        <time>2012-03-28T07:56:36.000Z</time>
      </trkpt>
      <trkpt lat="47.70093" lon="6.0821">
        <ele>282.79998779297</ele>
        <time>2012-03-28T07:56:37.000Z</time>
      </trkpt>
      <trkpt lat="47.70094" lon="6.08213">
        <ele>283.20001220703</ele>
        <time>2012-03-28T07:56:38.000Z</time>
      </trkpt>
      <trkpt lat="47.70099" lon="6.08226">
        <ele>283.20001220703</ele>
        <time>2012-03-28T07:56:43.000Z</time>
      </trkpt>
      <trkpt lat="47.70103" lon="6.08236">
        <ele>283.60000610352</ele>
        <time>2012-03-28T07:56:47.000Z</time>
      </trkpt>
      <trkpt lat="47.70104" lon="6.08238">
        <ele>284</ele>
        <time>2012-03-28T07:56:48.000Z</time>
      </trkpt>
      <trkpt lat="47.70104" lon="6.0824">
        <ele>284.39999389648</ele>
        <time>2012-03-28T07:56:49.000Z</time>
      </trkpt>
      <trkpt lat="47.70105" lon="6.08242">
        <ele>284.79998779297</ele>
        <time>2012-03-28T07:56:50.000Z</time>
      </trkpt>
      <trkpt lat="47.70106" lon="6.08245">
        <ele>285.39999389648</ele>
        <time>2012-03-28T07:56:51.000Z</time>
      </trkpt>
      <trkpt lat="47.70111" lon="6.08259">
        <ele>285.39999389648</ele>
        <time>2012-03-28T07:56:57.000Z</time>
      </trkpt>
      <trkpt lat="47.70113" lon="6.08263">
        <ele>285.79998779297</ele>
        <time>2012-03-28T07:56:59.000Z</time>
      </trkpt>
      <trkpt lat="47.70114" lon="6.08266">
        <ele>286.60000610352</ele>
        <time>2012-03-28T07:57:00.000Z</time>
      </trkpt>
      <trkpt lat="47.70114" lon="6.08268">
        <ele>287</ele>
        <time>2012-03-28T07:57:01.000Z</time>
      </trkpt>
      <trkpt lat="47.70115" lon="6.08271">
        <ele>287.39999389648</ele>
        <time>2012-03-28T07:57:02.000Z</time>
      </trkpt>
      <trkpt lat="47.70116" lon="6.08276">
        <ele>287.39999389648</ele>
        <time>2012-03-28T07:57:04.000Z</time>
      </trkpt>
      <trkpt lat="47.70122" lon="6.08292">
        <ele>287.79998779297</ele>
        <time>2012-03-28T07:57:11.000Z</time>
      </trkpt>
      <trkpt lat="47.70122" lon="6.08295">
        <ele>288.20001220703</ele>
        <time>2012-03-28T07:57:12.000Z</time>
      </trkpt>
      <trkpt lat="47.70123" lon="6.08297">
        <ele>288.60000610352</ele>
        <time>2012-03-28T07:57:13.000Z</time>
      </trkpt>
      <trkpt lat="47.70124" lon="6.083">
        <ele>289</ele>
        <time>2012-03-28T07:57:14.000Z</time>
      </trkpt>
      <trkpt lat="47.70124" lon="6.08302">
        <ele>289.39999389648</ele>
        <time>2012-03-28T07:57:15.000Z</time>
      </trkpt>
      <trkpt lat="47.70125" lon="6.08304">
        <ele>289.39999389648</ele>
        <time>2012-03-28T07:57:16.000Z</time>
      </trkpt>
      <trkpt lat="47.70128" lon="6.08322">
        <ele>289.39999389648</ele>
        <time>2012-03-28T07:57:24.000Z</time>
      </trkpt>
      <trkpt lat="47.70128" lon="6.08324">
        <ele>290.39999389648</ele>
        <time>2012-03-28T07:57:25.000Z</time>
      </trkpt>
      <trkpt lat="47.70129" lon="6.08327">
        <ele>290.79998779297</ele>
        <time>2012-03-28T07:57:26.000Z</time>
      </trkpt>
      <trkpt lat="47.70129" lon="6.0833">
        <ele>291.20001220703</ele>
        <time>2012-03-28T07:57:27.000Z</time>
      </trkpt>
      <trkpt lat="47.7013" lon="6.08333">
        <ele>291.60000610352</ele>
        <time>2012-03-28T07:57:28.000Z</time>
      </trkpt>
      <trkpt lat="47.7013" lon="6.08337">
        <ele>291.60000610352</ele>
        <time>2012-03-28T07:57:29.000Z</time>
      </trkpt>
      <trkpt lat="47.70133" lon="6.08356">
        <ele>291.60000610352</ele>
        <time>2012-03-28T07:57:35.000Z</time>
      </trkpt>
      <trkpt lat="47.70133" lon="6.0836">
        <ele>292</ele>
        <time>2012-03-28T07:57:36.000Z</time>
      </trkpt>
      <trkpt lat="47.70134" lon="6.08362">
        <ele>292.39999389648</ele>
        <time>2012-03-28T07:57:37.000Z</time>
      </trkpt>
      <trkpt lat="47.70134" lon="6.08365">
        <ele>292.79998779297</ele>
        <time>2012-03-28T07:57:38.000Z</time>
      </trkpt>
      <trkpt lat="47.70134" lon="6.08368">
        <ele>293.39999389648</ele>
        <time>2012-03-28T07:57:39.000Z</time>
      </trkpt>
      <trkpt lat="47.70134" lon="6.0837">
        <ele>293.79998779297</ele>
        <time>2012-03-28T07:57:40.000Z</time>
      </trkpt>
      <trkpt lat="47.70135" lon="6.08379">
        <ele>293.79998779297</ele>
        <time>2012-03-28T07:57:43.000Z</time>
      </trkpt>
      <trkpt lat="47.70138" lon="6.08395">
        <ele>294.20001220703</ele>
        <time>2012-03-28T07:57:48.000Z</time>
      </trkpt>
      <trkpt lat="47.70138" lon="6.08397">
        <ele>294.60000610352</ele>
        <time>2012-03-28T07:57:49.000Z</time>
      </trkpt>
      <trkpt lat="47.70139" lon="6.084">
        <ele>295.39999389648</ele>
        <time>2012-03-28T07:57:50.000Z</time>
      </trkpt>
      <trkpt lat="47.7014" lon="6.08404">
        <ele>296</ele>
        <time>2012-03-28T07:57:51.000Z</time>
      </trkpt>
      <trkpt lat="47.70143" lon="6.08411">
        <ele>296</ele>
        <time>2012-03-28T07:57:54.000Z</time>
      </trkpt>
      <trkpt lat="47.70153" lon="6.08425">
        <ele>296</ele>
        <time>2012-03-28T07:58:01.000Z</time>
      </trkpt>
      <trkpt lat="47.70166" lon="6.08437">
        <ele>296.39999389648</ele>
        <time>2012-03-28T07:58:08.000Z</time>
      </trkpt>
      <trkpt lat="47.70168" lon="6.08438">
        <ele>296.79998779297</ele>
        <time>2012-03-28T07:58:09.000Z</time>
      </trkpt>
      <trkpt lat="47.70169" lon="6.08439">
        <ele>297.20001220703</ele>
        <time>2012-03-28T07:58:10.000Z</time>
      </trkpt>
      <trkpt lat="47.70171" lon="6.08441">
        <ele>297.60000610352</ele>
        <time>2012-03-28T07:58:11.000Z</time>
      </trkpt>
      <trkpt lat="47.70172" lon="6.08443">
        <ele>298</ele>
        <time>2012-03-28T07:58:12.000Z</time>
      </trkpt>
      <trkpt lat="47.70176" lon="6.08446">
        <ele>298</ele>
        <time>2012-03-28T07:58:14.000Z</time>
      </trkpt>
      <trkpt lat="47.70187" lon="6.08456">
        <ele>298</ele>
        <time>2012-03-28T07:58:20.000Z</time>
      </trkpt>
      <trkpt lat="47.70197" lon="6.08463">
        <ele>298</ele>
        <time>2012-03-28T07:58:26.000Z</time>
      </trkpt>
      <trkpt lat="47.70201" lon="6.08465">
        <ele>298.39999389648</ele>
        <time>2012-03-28T07:58:28.000Z</time>
      </trkpt>
      <trkpt lat="47.70204" lon="6.08467">
        <ele>298.79998779297</ele>
        <time>2012-03-28T07:58:29.000Z</time>
      </trkpt>
      <trkpt lat="47.70206" lon="6.08467">
        <ele>299.20001220703</ele>
        <time>2012-03-28T07:58:30.000Z</time>
      </trkpt>
      <trkpt lat="47.70207" lon="6.08468">
        <ele>299.60000610352</ele>
        <time>2012-03-28T07:58:31.000Z</time>
      </trkpt>
      <trkpt lat="47.70209" lon="6.0847">
        <ele>300</ele>
        <time>2012-03-28T07:58:32.000Z</time>
      </trkpt>
      <trkpt lat="47.70222" lon="6.08479">
        <ele>300</ele>
        <time>2012-03-28T07:58:38.000Z</time>
      </trkpt>
      <trkpt lat="47.70233" lon="6.08488">
        <ele>300</ele>
        <time>2012-03-28T07:58:45.000Z</time>
      </trkpt>
      <trkpt lat="47.70246" lon="6.08499">
        <ele>300</ele>
        <time>2012-03-28T07:58:51.000Z</time>
      </trkpt>
      <trkpt lat="47.70258" lon="6.08508">
        <ele>300</ele>
        <time>2012-03-28T07:58:56.000Z</time>
      </trkpt>
      <trkpt lat="47.70277" lon="6.08522">
        <ele>300</ele>
        <time>2012-03-28T07:59:04.000Z</time>
      </trkpt>
      <trkpt lat="47.70286" lon="6.08531">
        <ele>300.39999389648</ele>
        <time>2012-03-28T07:59:08.000Z</time>
      </trkpt>
      <trkpt lat="47.7029" lon="6.08533">
        <ele>300.79998779297</ele>
        <time>2012-03-28T07:59:09.000Z</time>
      </trkpt>
      <trkpt lat="47.70292" lon="6.08534">
        <ele>301.20001220703</ele>
        <time>2012-03-28T07:59:10.000Z</time>
      </trkpt>
      <trkpt lat="47.70295" lon="6.08536">
        <ele>301.60000610352</ele>
        <time>2012-03-28T07:59:11.000Z</time>
      </trkpt>
      <trkpt lat="47.70298" lon="6.08538">
        <ele>302</ele>
        <time>2012-03-28T07:59:12.000Z</time>
      </trkpt>
      <trkpt lat="47.70307" lon="6.08545">
        <ele>302</ele>
        <time>2012-03-28T07:59:15.000Z</time>
      </trkpt>
      <trkpt lat="47.70318" lon="6.08556">
        <ele>302</ele>
        <time>2012-03-28T07:59:20.000Z</time>
      </trkpt>
      <trkpt lat="47.70329" lon="6.08564">
        <ele>302</ele>
        <time>2012-03-28T07:59:26.000Z</time>
      </trkpt>
      <trkpt lat="47.7034" lon="6.08573">
        <ele>302</ele>
        <time>2012-03-28T07:59:31.000Z</time>
      </trkpt>
      <trkpt lat="47.70344" lon="6.08576">
        <ele>302.39999389648</ele>
        <time>2012-03-28T07:59:33.000Z</time>
      </trkpt>
      <trkpt lat="47.70346" lon="6.08578">
        <ele>302.79998779297</ele>
        <time>2012-03-28T07:59:34.000Z</time>
      </trkpt>
      <trkpt lat="47.70348" lon="6.0858">
        <ele>303.20001220703</ele>
        <time>2012-03-28T07:59:35.000Z</time>
      </trkpt>
      <trkpt lat="47.7035" lon="6.08581">
        <ele>303.60000610352</ele>
        <time>2012-03-28T07:59:36.000Z</time>
      </trkpt>
      <trkpt lat="47.70352" lon="6.08583">
        <ele>304</ele>
        <time>2012-03-28T07:59:37.000Z</time>
      </trkpt>
      <trkpt lat="47.70355" lon="6.08584">
        <ele>304</ele>
        <time>2012-03-28T07:59:38.000Z</time>
      </trkpt>
      <trkpt lat="47.70361" lon="6.08589">
        <ele>304</ele>
        <time>2012-03-28T07:59:41.000Z</time>
      </trkpt>
      <trkpt lat="47.70366" lon="6.08591">
        <ele>304</ele>
        <time>2012-03-28T07:59:43.000Z</time>
      </trkpt>
      <trkpt lat="47.70378" lon="6.08601">
        <ele>304</ele>
        <time>2012-03-28T07:59:50.000Z</time>
      </trkpt>
      <trkpt lat="47.70384" lon="6.08607">
        <ele>304.79998779297</ele>
        <time>2012-03-28T07:59:53.000Z</time>
      </trkpt>
      <trkpt lat="47.70386" lon="6.08608">
        <ele>305.20001220703</ele>
        <time>2012-03-28T07:59:54.000Z</time>
      </trkpt>
      <trkpt lat="47.70388" lon="6.08609">
        <ele>305.79998779297</ele>
        <time>2012-03-28T07:59:55.000Z</time>
      </trkpt>
      <trkpt lat="47.70389" lon="6.08611">
        <ele>306.20001220703</ele>
        <time>2012-03-28T07:59:56.000Z</time>
      </trkpt>
      <trkpt lat="47.70392" lon="6.08613">
        <ele>306.20001220703</ele>
        <time>2012-03-28T07:59:57.000Z</time>
      </trkpt>
      <trkpt lat="47.70409" lon="6.08628">
        <ele>306.20001220703</ele>
        <time>2012-03-28T08:00:03.000Z</time>
      </trkpt>
      <trkpt lat="47.70428" lon="6.08644">
        <ele>306.20001220703</ele>
        <time>2012-03-28T08:00:08.000Z</time>
      </trkpt>
      <trkpt lat="47.70434" lon="6.08649">
        <ele>306.60000610352</ele>
        <time>2012-03-28T08:00:10.000Z</time>
      </trkpt>
      <trkpt lat="47.70437" lon="6.08652">
        <ele>307</ele>
        <time>2012-03-28T08:00:11.000Z</time>
      </trkpt>
      <trkpt lat="47.7044" lon="6.08654">
        <ele>307.39999389648</ele>
        <time>2012-03-28T08:00:12.000Z</time>
      </trkpt>
      <trkpt lat="47.70443" lon="6.08656">
        <ele>307.79998779297</ele>
        <time>2012-03-28T08:00:13.000Z</time>
      </trkpt>
      <trkpt lat="47.70445" lon="6.08658">
        <ele>308.20001220703</ele>
        <time>2012-03-28T08:00:14.000Z</time>
      </trkpt>
      <trkpt lat="47.70458" lon="6.08669">
        <ele>308.20001220703</ele>
        <time>2012-03-28T08:00:20.000Z</time>
      </trkpt>
      <trkpt lat="47.70474" lon="6.08682">
        <ele>308.20001220703</ele>
        <time>2012-03-28T08:00:26.000Z</time>
      </trkpt>
      <trkpt lat="47.70483" lon="6.08689">
        <ele>308.20001220703</ele>
        <time>2012-03-28T08:00:31.000Z</time>
      </trkpt>
      <trkpt lat="47.70493" lon="6.08696">
        <ele>308.20001220703</ele>
        <time>2012-03-28T08:00:35.000Z</time>
      </trkpt>
      <trkpt lat="47.70507" lon="6.08708">
        <ele>309</ele>
        <time>2012-03-28T08:00:42.000Z</time>
      </trkpt>
      <trkpt lat="47.70508" lon="6.08709">
        <ele>309.39999389648</ele>
        <time>2012-03-28T08:00:43.000Z</time>
      </trkpt>
      <trkpt lat="47.7051" lon="6.0871">
        <ele>309.79998779297</ele>
        <time>2012-03-28T08:00:44.000Z</time>
      </trkpt>
      <trkpt lat="47.70511" lon="6.08711">
        <ele>310.20001220703</ele>
        <time>2012-03-28T08:00:45.000Z</time>
      </trkpt>
      <trkpt lat="47.70515" lon="6.08715">
        <ele>310.20001220703</ele>
        <time>2012-03-28T08:00:48.000Z</time>
      </trkpt>
      <trkpt lat="47.70524" lon="6.08723">
        <ele>310.20001220703</ele>
        <time>2012-03-28T08:00:55.000Z</time>
      </trkpt>
      <trkpt lat="47.70533" lon="6.08731">
        <ele>310.20001220703</ele>
        <time>2012-03-28T08:01:01.000Z</time>
      </trkpt>
      <trkpt lat="47.70536" lon="6.08733">
        <ele>310.20001220703</ele>
        <time>2012-03-28T08:01:03.000Z</time>
      </trkpt>
      <trkpt lat="47.70538" lon="6.08735">
        <ele>310.60000610352</ele>
        <time>2012-03-28T08:01:04.000Z</time>
      </trkpt>
      <trkpt lat="47.7054" lon="6.08736">
        <ele>311</ele>
        <time>2012-03-28T08:01:05.000Z</time>
      </trkpt>
      <trkpt lat="47.70542" lon="6.08737">
        <ele>311.39999389648</ele>
        <time>2012-03-28T08:01:06.000Z</time>
      </trkpt>
      <trkpt lat="47.70543" lon="6.08739">
        <ele>312.20001220703</ele>
        <time>2012-03-28T08:01:07.000Z</time>
      </trkpt>
      <trkpt lat="47.70548" lon="6.08743">
        <ele>312.20001220703</ele>
        <time>2012-03-28T08:01:11.000Z</time>
      </trkpt>
      <trkpt lat="47.70549" lon="6.08745">
        <ele>312.20001220703</ele>
        <time>2012-03-28T08:01:12.000Z</time>
      </trkpt>
      <trkpt lat="47.70556" lon="6.08751">
        <ele>312.20001220703</ele>
        <time>2012-03-28T08:01:16.000Z</time>
      </trkpt>
      <trkpt lat="47.70558" lon="6.08754">
        <ele>312.60000610352</ele>
        <time>2012-03-28T08:01:18.000Z</time>
      </trkpt>
      <trkpt lat="47.7056" lon="6.08755">
        <ele>313.20001220703</ele>
        <time>2012-03-28T08:01:19.000Z</time>
      </trkpt>
      <trkpt lat="47.70561" lon="6.08756">
        <ele>313.60000610352</ele>
        <time>2012-03-28T08:01:20.000Z</time>
      </trkpt>
      <trkpt lat="47.70563" lon="6.08757">
        <ele>314</ele>
        <time>2012-03-28T08:01:21.000Z</time>
      </trkpt>
      <trkpt lat="47.70564" lon="6.08759">
        <ele>314.39999389648</ele>
        <time>2012-03-28T08:01:22.000Z</time>
      </trkpt>
      <trkpt lat="47.70567" lon="6.08761">
        <ele>314.39999389648</ele>
        <time>2012-03-28T08:01:24.000Z</time>
      </trkpt>
      <trkpt lat="47.70575" lon="6.08774">
        <ele>314.39999389648</ele>
        <time>2012-03-28T08:01:31.000Z</time>
      </trkpt>
      <trkpt lat="47.70575" lon="6.08776">
        <ele>314.39999389648</ele>
        <time>2012-03-28T08:01:32.000Z</time>
      </trkpt>
      <trkpt lat="47.70576" lon="6.08782">
        <ele>314.39999389648</ele>
        <time>2012-03-28T08:01:37.000Z</time>
      </trkpt>
      <trkpt lat="47.70576" lon="6.08783">
        <ele>316</ele>
        <time>2012-03-28T08:02:47.000Z</time>
      </trkpt>
      <trkpt lat="47.70576" lon="6.08785">
        <ele>316.39999389648</ele>
        <time>2012-03-28T08:02:48.000Z</time>
      </trkpt>
      <trkpt lat="47.70578" lon="6.08791">
        <ele>316.39999389648</ele>
        <time>2012-03-28T08:02:51.000Z</time>
      </trkpt>
      <trkpt lat="47.70583" lon="6.08803">
        <ele>316.39999389648</ele>
        <time>2012-03-28T08:02:56.000Z</time>
      </trkpt>
      <trkpt lat="47.70589" lon="6.08816">
        <ele>316.39999389648</ele>
        <time>2012-03-28T08:03:02.000Z</time>
      </trkpt>
      <trkpt lat="47.70597" lon="6.08825">
        <ele>316.39999389648</ele>
        <time>2012-03-28T08:03:08.000Z</time>
      </trkpt>
      <trkpt lat="47.70598" lon="6.08827">
        <ele>316.39999389648</ele>
        <time>2012-03-28T08:03:09.000Z</time>
      </trkpt>
      <trkpt lat="47.70605" lon="6.08839">
        <ele>316.39999389648</ele>
        <time>2012-03-28T08:03:15.000Z</time>
      </trkpt>
      <trkpt lat="47.70607" lon="6.08842">
        <ele>316.79998779297</ele>
        <time>2012-03-28T08:03:17.000Z</time>
      </trkpt>
      <trkpt lat="47.70609" lon="6.08844">
        <ele>317.20001220703</ele>
        <time>2012-03-28T08:03:18.000Z</time>
      </trkpt>
      <trkpt lat="47.70611" lon="6.08846">
        <ele>317.60000610352</ele>
        <time>2012-03-28T08:03:19.000Z</time>
      </trkpt>
      <trkpt lat="47.70611" lon="6.08847">
        <ele>318</ele>
        <time>2012-03-28T08:03:20.000Z</time>
      </trkpt>
      <trkpt lat="47.70613" lon="6.08849">
        <ele>318.60000610352</ele>
        <time>2012-03-28T08:03:21.000Z</time>
      </trkpt>
      <trkpt lat="47.70621" lon="6.08854">
        <ele>318.60000610352</ele>
        <time>2012-03-28T08:03:27.000Z</time>
      </trkpt>
      <trkpt lat="47.7063" lon="6.08859">
        <ele>318.60000610352</ele>
        <time>2012-03-28T08:03:33.000Z</time>
      </trkpt>
      <trkpt lat="47.70636" lon="6.08865">
        <ele>319</ele>
        <time>2012-03-28T08:03:37.000Z</time>
      </trkpt>
      <trkpt lat="47.70637" lon="6.08867">
        <ele>319.39999389648</ele>
        <time>2012-03-28T08:03:38.000Z</time>
      </trkpt>
      <trkpt lat="47.70639" lon="6.08869">
        <ele>319.79998779297</ele>
        <time>2012-03-28T08:03:39.000Z</time>
      </trkpt>
      <trkpt lat="47.7064" lon="6.0887">
        <ele>320.20001220703</ele>
        <time>2012-03-28T08:03:40.000Z</time>
      </trkpt>
      <trkpt lat="47.70641" lon="6.08872">
        <ele>320.60000610352</ele>
        <time>2012-03-28T08:03:41.000Z</time>
      </trkpt>
      <trkpt lat="47.70649" lon="6.08884">
        <ele>320.60000610352</ele>
        <time>2012-03-28T08:03:47.000Z</time>
      </trkpt>
      <trkpt lat="47.70652" lon="6.08888">
        <ele>320.60000610352</ele>
        <time>2012-03-28T08:03:50.000Z</time>
      </trkpt>
      <trkpt lat="47.70656" lon="6.08894">
        <ele>320.60000610352</ele>
        <time>2012-03-28T08:03:53.000Z</time>
      </trkpt>
      <trkpt lat="47.70666" lon="6.08905">
        <ele>320.60000610352</ele>
        <time>2012-03-28T08:04:00.000Z</time>
      </trkpt>
      <trkpt lat="47.70668" lon="6.08907">
        <ele>321</ele>
        <time>2012-03-28T08:04:01.000Z</time>
      </trkpt>
      <trkpt lat="47.70669" lon="6.08909">
        <ele>321.39999389648</ele>
        <time>2012-03-28T08:04:02.000Z</time>
      </trkpt>
      <trkpt lat="47.7067" lon="6.0891">
        <ele>321.79998779297</ele>
        <time>2012-03-28T08:04:03.000Z</time>
      </trkpt>
      <trkpt lat="47.70672" lon="6.0891">
        <ele>322.20001220703</ele>
        <time>2012-03-28T08:04:04.000Z</time>
      </trkpt>
      <trkpt lat="47.70674" lon="6.08911">
        <ele>322.60000610352</ele>
        <time>2012-03-28T08:04:05.000Z</time>
      </trkpt>
      <trkpt lat="47.70675" lon="6.08912">
        <ele>322.60000610352</ele>
        <time>2012-03-28T08:04:06.000Z</time>
      </trkpt>
      <trkpt lat="47.70684" lon="6.08917">
        <ele>322.60000610352</ele>
        <time>2012-03-28T08:04:12.000Z</time>
      </trkpt>
      <trkpt lat="47.70696" lon="6.08922">
        <ele>322.60000610352</ele>
        <time>2012-03-28T08:04:18.000Z</time>
      </trkpt>
      <trkpt lat="47.70697" lon="6.08923">
        <ele>322.60000610352</ele>
        <time>2012-03-28T08:04:19.000Z</time>
      </trkpt>
      <trkpt lat="47.70704" lon="6.08932">
        <ele>322.60000610352</ele>
        <time>2012-03-28T08:04:24.000Z</time>
      </trkpt>
      <trkpt lat="47.70711" lon="6.08941">
        <ele>322.60000610352</ele>
        <time>2012-03-28T08:04:29.000Z</time>
      </trkpt>
      <trkpt lat="47.70713" lon="6.08941">
        <ele>323</ele>
        <time>2012-03-28T08:04:30.000Z</time>
      </trkpt>
      <trkpt lat="47.70714" lon="6.08942">
        <ele>323.39999389648</ele>
        <time>2012-03-28T08:04:31.000Z</time>
      </trkpt>
      <trkpt lat="47.70716" lon="6.08942">
        <ele>323.79998779297</ele>
        <time>2012-03-28T08:04:32.000Z</time>
      </trkpt>
      <trkpt lat="47.70717" lon="6.08941">
        <ele>324.20001220703</ele>
        <time>2012-03-28T08:04:33.000Z</time>
      </trkpt>
      <trkpt lat="47.70719" lon="6.08941">
        <ele>324.60000610352</ele>
        <time>2012-03-28T08:04:34.000Z</time>
      </trkpt>
      <trkpt lat="47.7072" lon="6.08941">
        <ele>324.60000610352</ele>
        <time>2012-03-28T08:04:35.000Z</time>
      </trkpt>
      <trkpt lat="47.70725" lon="6.08942">
        <ele>324.60000610352</ele>
        <time>2012-03-28T08:04:38.000Z</time>
      </trkpt>
      <trkpt lat="47.7073" lon="6.08943">
        <ele>324.60000610352</ele>
        <time>2012-03-28T08:04:41.000Z</time>
      </trkpt>
      <trkpt lat="47.70745" lon="6.08958">
        <ele>324.60000610352</ele>
        <time>2012-03-28T08:04:47.000Z</time>
      </trkpt>
      <trkpt lat="47.7075" lon="6.08961">
        <ele>324.60000610352</ele>
        <time>2012-03-28T08:04:49.000Z</time>
      </trkpt>
      <trkpt lat="47.70756" lon="6.08961">
        <ele>324.60000610352</ele>
        <time>2012-03-28T08:04:52.000Z</time>
      </trkpt>
      <trkpt lat="47.70769" lon="6.08961">
        <ele>324.60000610352</ele>
        <time>2012-03-28T08:04:57.000Z</time>
      </trkpt>
      <trkpt lat="47.70777" lon="6.08962">
        <ele>324.60000610352</ele>
        <time>2012-03-28T08:05:01.000Z</time>
      </trkpt>
      <trkpt lat="47.70793" lon="6.08964">
        <ele>324.60000610352</ele>
        <time>2012-03-28T08:05:06.000Z</time>
      </trkpt>
      <trkpt lat="47.70809" lon="6.08967">
        <ele>324.60000610352</ele>
        <time>2012-03-28T08:05:11.000Z</time>
      </trkpt>
      <trkpt lat="47.70819" lon="6.08972">
        <ele>324.20001220703</ele>
        <time>2012-03-28T08:05:15.000Z</time>
      </trkpt>
      <trkpt lat="47.70821" lon="6.08973">
        <ele>323.79998779297</ele>
        <time>2012-03-28T08:05:16.000Z</time>
      </trkpt>
      <trkpt lat="47.70822" lon="6.08973">
        <ele>323.39999389648</ele>
        <time>2012-03-28T08:05:17.000Z</time>
      </trkpt>
      <trkpt lat="47.70823" lon="6.08974">
        <ele>323</ele>
        <time>2012-03-28T08:05:18.000Z</time>
      </trkpt>
      <trkpt lat="47.70825" lon="6.08977">
        <ele>322.60000610352</ele>
        <time>2012-03-28T08:05:19.000Z</time>
      </trkpt>
      <trkpt lat="47.7083" lon="6.08982">
        <ele>322.60000610352</ele>
        <time>2012-03-28T08:05:22.000Z</time>
      </trkpt>
      <trkpt lat="47.70845" lon="6.0899">
        <ele>322.60000610352</ele>
        <time>2012-03-28T08:05:28.000Z</time>
      </trkpt>
      <trkpt lat="47.70864" lon="6.08994">
        <ele>322.20001220703</ele>
        <time>2012-03-28T08:05:34.000Z</time>
      </trkpt>
      <trkpt lat="47.70866" lon="6.08993">
        <ele>321.79998779297</ele>
        <time>2012-03-28T08:05:35.000Z</time>
      </trkpt>
      <trkpt lat="47.70869" lon="6.08993">
        <ele>321.39999389648</ele>
        <time>2012-03-28T08:05:36.000Z</time>
      </trkpt>
      <trkpt lat="47.70872" lon="6.08993">
        <ele>321</ele>
        <time>2012-03-28T08:05:37.000Z</time>
      </trkpt>
      <trkpt lat="47.70875" lon="6.08993">
        <ele>320.60000610352</ele>
        <time>2012-03-28T08:05:38.000Z</time>
      </trkpt>
      <trkpt lat="47.70884" lon="6.08998">
        <ele>320.60000610352</ele>
        <time>2012-03-28T08:05:41.000Z</time>
      </trkpt>
      <trkpt lat="47.70897" lon="6.09005">
        <ele>320.20001220703</ele>
        <time>2012-03-28T08:05:46.000Z</time>
      </trkpt>
      <trkpt lat="47.709" lon="6.09006">
        <ele>319.79998779297</ele>
        <time>2012-03-28T08:05:47.000Z</time>
      </trkpt>
      <trkpt lat="47.70902" lon="6.09007">
        <ele>319.39999389648</ele>
        <time>2012-03-28T08:05:48.000Z</time>
      </trkpt>
      <trkpt lat="47.70905" lon="6.09009">
        <ele>318.79998779297</ele>
        <time>2012-03-28T08:05:49.000Z</time>
      </trkpt>
      <trkpt lat="47.70908" lon="6.0901">
        <ele>318.39999389648</ele>
        <time>2012-03-28T08:05:50.000Z</time>
      </trkpt>
      <trkpt lat="47.70915" lon="6.09015">
        <ele>318.39999389648</ele>
        <time>2012-03-28T08:05:52.000Z</time>
      </trkpt>
      <trkpt lat="47.7092" lon="6.09018">
        <ele>318.39999389648</ele>
        <time>2012-03-28T08:05:54.000Z</time>
      </trkpt>
      <trkpt lat="47.70926" lon="6.09024">
        <ele>318.39999389648</ele>
        <time>2012-03-28T08:05:57.000Z</time>
      </trkpt>
      <trkpt lat="47.70933" lon="6.09033">
        <ele>318.39999389648</ele>
        <time>2012-03-28T08:06:02.000Z</time>
      </trkpt>
      <trkpt lat="47.70935" lon="6.09036">
        <ele>318</ele>
        <time>2012-03-28T08:06:03.000Z</time>
      </trkpt>
      <trkpt lat="47.70937" lon="6.09038">
        <ele>317.20001220703</ele>
        <time>2012-03-28T08:06:04.000Z</time>
      </trkpt>
      <trkpt lat="47.70939" lon="6.09041">
        <ele>316.79998779297</ele>
        <time>2012-03-28T08:06:05.000Z</time>
      </trkpt>
      <trkpt lat="47.70942" lon="6.09043">
        <ele>316.39999389648</ele>
        <time>2012-03-28T08:06:06.000Z</time>
      </trkpt>
      <trkpt lat="47.70944" lon="6.09047">
        <ele>316.39999389648</ele>
        <time>2012-03-28T08:06:07.000Z</time>
      </trkpt>
      <trkpt lat="47.70958" lon="6.09069">
        <ele>316.39999389648</ele>
        <time>2012-03-28T08:06:13.000Z</time>
      </trkpt>
      <trkpt lat="47.70969" lon="6.09083">
        <ele>316</ele>
        <time>2012-03-28T08:06:18.000Z</time>
      </trkpt>
      <trkpt lat="47.70971" lon="6.09085">
        <ele>315.60000610352</ele>
        <time>2012-03-28T08:06:19.000Z</time>
      </trkpt>
      <trkpt lat="47.70973" lon="6.09088">
        <ele>315.20001220703</ele>
        <time>2012-03-28T08:06:20.000Z</time>
      </trkpt>
      <trkpt lat="47.70975" lon="6.0909">
        <ele>314.79998779297</ele>
        <time>2012-03-28T08:06:21.000Z</time>
      </trkpt>
      <trkpt lat="47.70977" lon="6.09093">
        <ele>314.39999389648</ele>
        <time>2012-03-28T08:06:22.000Z</time>
      </trkpt>
      <trkpt lat="47.7098" lon="6.09096">
        <ele>314</ele>
        <time>2012-03-28T08:06:23.000Z</time>
      </trkpt>
      <trkpt lat="47.70982" lon="6.09099">
        <ele>313.60000610352</ele>
        <time>2012-03-28T08:06:24.000Z</time>
      </trkpt>
      <trkpt lat="47.70985" lon="6.09101">
        <ele>313.20001220703</ele>
        <time>2012-03-28T08:06:25.000Z</time>
      </trkpt>
      <trkpt lat="47.70987" lon="6.09104">
        <ele>312.79998779297</ele>
        <time>2012-03-28T08:06:26.000Z</time>
      </trkpt>
      <trkpt lat="47.7099" lon="6.09107">
        <ele>312.20001220703</ele>
        <time>2012-03-28T08:06:27.000Z</time>
      </trkpt>
      <trkpt lat="47.70993" lon="6.09109">
        <ele>311.79998779297</ele>
        <time>2012-03-28T08:06:28.000Z</time>
      </trkpt>
      <trkpt lat="47.70995" lon="6.09112">
        <ele>311</ele>
        <time>2012-03-28T08:06:29.000Z</time>
      </trkpt>
      <trkpt lat="47.70997" lon="6.09114">
        <ele>310.39999389648</ele>
        <time>2012-03-28T08:06:30.000Z</time>
      </trkpt>
      <trkpt lat="47.70999" lon="6.09116">
        <ele>310</ele>
        <time>2012-03-28T08:06:31.000Z</time>
      </trkpt>
      <trkpt lat="47.71002" lon="6.09116">
        <ele>310</ele>
        <time>2012-03-28T08:06:33.000Z</time>
      </trkpt>
      <trkpt lat="47.71008" lon="6.09112">
        <ele>310</ele>
        <time>2012-03-28T08:06:38.000Z</time>
      </trkpt>
      <trkpt lat="47.71015" lon="6.09101">
        <ele>309.60000610352</ele>
        <time>2012-03-28T08:06:43.000Z</time>
      </trkpt>
      <trkpt lat="47.71016" lon="6.091">
        <ele>309.20001220703</ele>
        <time>2012-03-28T08:06:44.000Z</time>
      </trkpt>
      <trkpt lat="47.71017" lon="6.09097">
        <ele>308.79998779297</ele>
        <time>2012-03-28T08:06:45.000Z</time>
      </trkpt>
      <trkpt lat="47.71018" lon="6.09094">
        <ele>308.39999389648</ele>
        <time>2012-03-28T08:06:46.000Z</time>
      </trkpt>
      <trkpt lat="47.71019" lon="6.09092">
        <ele>308</ele>
        <time>2012-03-28T08:06:47.000Z</time>
      </trkpt>
      <trkpt lat="47.71021" lon="6.09086">
        <ele>308</ele>
        <time>2012-03-28T08:06:49.000Z</time>
      </trkpt>
      <trkpt lat="47.71023" lon="6.0908">
        <ele>308</ele>
        <time>2012-03-28T08:06:51.000Z</time>
      </trkpt>
      <trkpt lat="47.71031" lon="6.09062">
        <ele>307.60000610352</ele>
        <time>2012-03-28T08:06:56.000Z</time>
      </trkpt>
      <trkpt lat="47.71034" lon="6.09057">
        <ele>307.20001220703</ele>
        <time>2012-03-28T08:06:57.000Z</time>
      </trkpt>
      <trkpt lat="47.71037" lon="6.09051">
        <ele>306.79998779297</ele>
        <time>2012-03-28T08:06:58.000Z</time>
      </trkpt>
      <trkpt lat="47.71039" lon="6.09046">
        <ele>306.39999389648</ele>
        <time>2012-03-28T08:06:59.000Z</time>
      </trkpt>
      <trkpt lat="47.71041" lon="6.0904">
        <ele>305.79998779297</ele>
        <time>2012-03-28T08:07:00.000Z</time>
      </trkpt>
      <trkpt lat="47.71042" lon="6.09034">
        <ele>305.79998779297</ele>
        <time>2012-03-28T08:07:01.000Z</time>
      </trkpt>
      <trkpt lat="47.71049" lon="6.09014">
        <ele>305.79998779297</ele>
        <time>2012-03-28T08:07:04.000Z</time>
      </trkpt>
      <trkpt lat="47.71052" lon="6.08999">
        <ele>305.79998779297</ele>
        <time>2012-03-28T08:07:06.000Z</time>
      </trkpt>
      <trkpt lat="47.71053" lon="6.08993">
        <ele>305.39999389648</ele>
        <time>2012-03-28T08:07:07.000Z</time>
      </trkpt>
      <trkpt lat="47.71054" lon="6.08987">
        <ele>305</ele>
        <time>2012-03-28T08:07:08.000Z</time>
      </trkpt>
      <trkpt lat="47.71056" lon="6.08981">
        <ele>304.60000610352</ele>
        <time>2012-03-28T08:07:09.000Z</time>
      </trkpt>
      <trkpt lat="47.71056" lon="6.08974">
        <ele>304.20001220703</ele>
        <time>2012-03-28T08:07:10.000Z</time>
      </trkpt>
      <trkpt lat="47.71057" lon="6.08967">
        <ele>303.79998779297</ele>
        <time>2012-03-28T08:07:11.000Z</time>
      </trkpt>
      <trkpt lat="47.71057" lon="6.0896">
        <ele>303.79998779297</ele>
        <time>2012-03-28T08:07:12.000Z</time>
      </trkpt>
      <trkpt lat="47.71057" lon="6.08933">
        <ele>303.79998779297</ele>
        <time>2012-03-28T08:07:17.000Z</time>
      </trkpt>
      <trkpt lat="47.71052" lon="6.08912">
        <ele>303.79998779297</ele>
        <time>2012-03-28T08:07:21.000Z</time>
      </trkpt>
      <trkpt lat="47.71052" lon="6.08906">
        <ele>303.79998779297</ele>
        <time>2012-03-28T08:07:22.000Z</time>
      </trkpt>
      <trkpt lat="47.71047" lon="6.08873">
        <ele>303.79998779297</ele>
        <time>2012-03-28T08:07:28.000Z</time>
      </trkpt>
      <trkpt lat="47.71045" lon="6.0886">
        <ele>303.79998779297</ele>
        <time>2012-03-28T08:07:32.000Z</time>
      </trkpt>
      <trkpt lat="47.71045" lon="6.08842">
        <ele>303.79998779297</ele>
        <time>2012-03-28T08:07:38.000Z</time>
      </trkpt>
      <trkpt lat="47.71043" lon="6.08817">
        <ele>303.79998779297</ele>
        <time>2012-03-28T08:07:44.000Z</time>
      </trkpt>
      <trkpt lat="47.71042" lon="6.08812">
        <ele>304.20001220703</ele>
        <time>2012-03-28T08:07:45.000Z</time>
      </trkpt>
      <trkpt lat="47.71042" lon="6.08809">
        <ele>304.60000610352</ele>
        <time>2012-03-28T08:07:46.000Z</time>
      </trkpt>
      <trkpt lat="47.7104" lon="6.08807">
        <ele>305</ele>
        <time>2012-03-28T08:07:47.000Z</time>
      </trkpt>
      <trkpt lat="47.71038" lon="6.08803">
        <ele>305.60000610352</ele>
        <time>2012-03-28T08:07:48.000Z</time>
      </trkpt>
      <trkpt lat="47.71037" lon="6.08801">
        <ele>306</ele>
        <time>2012-03-28T08:07:49.000Z</time>
      </trkpt>
      <trkpt lat="47.71031" lon="6.0878">
        <ele>306</ele>
        <time>2012-03-28T08:07:54.000Z</time>
      </trkpt>
      <trkpt lat="47.7103" lon="6.08774">
        <ele>306</ele>
        <time>2012-03-28T08:07:55.000Z</time>
      </trkpt>
      <trkpt lat="47.71022" lon="6.08738">
        <ele>306</ele>
        <time>2012-03-28T08:08:01.000Z</time>
      </trkpt>
      <trkpt lat="47.71015" lon="6.08708">
        <ele>306</ele>
        <time>2012-03-28T08:08:07.000Z</time>
      </trkpt>
      <trkpt lat="47.7101" lon="6.08679">
        <ele>306</ele>
        <time>2012-03-28T08:08:12.000Z</time>
      </trkpt>
      <trkpt lat="47.71009" lon="6.08673">
        <ele>306.39999389648</ele>
        <time>2012-03-28T08:08:13.000Z</time>
      </trkpt>
      <trkpt lat="47.71008" lon="6.08668">
        <ele>306.79998779297</ele>
        <time>2012-03-28T08:08:14.000Z</time>
      </trkpt>
      <trkpt lat="47.71006" lon="6.08664">
        <ele>307.20001220703</ele>
        <time>2012-03-28T08:08:15.000Z</time>
      </trkpt>
      <trkpt lat="47.71006" lon="6.0866">
        <ele>307.60000610352</ele>
        <time>2012-03-28T08:08:16.000Z</time>
      </trkpt>
      <trkpt lat="47.71005" lon="6.08656">
        <ele>308</ele>
        <time>2012-03-28T08:08:17.000Z</time>
      </trkpt>
      <trkpt lat="47.70996" lon="6.08629">
        <ele>308</ele>
        <time>2012-03-28T08:08:23.000Z</time>
      </trkpt>
      <trkpt lat="47.70987" lon="6.08612">
        <ele>308</ele>
        <time>2012-03-28T08:08:28.000Z</time>
      </trkpt>
      <trkpt lat="47.7098" lon="6.08595">
        <ele>308.39999389648</ele>
        <time>2012-03-28T08:08:33.000Z</time>
      </trkpt>
      <trkpt lat="47.70979" lon="6.08592">
        <ele>308.79998779297</ele>
        <time>2012-03-28T08:08:34.000Z</time>
      </trkpt>
      <trkpt lat="47.70978" lon="6.08589">
        <ele>309.20001220703</ele>
        <time>2012-03-28T08:08:35.000Z</time>
      </trkpt>
      <trkpt lat="47.70977" lon="6.08585">
        <ele>309.60000610352</ele>
        <time>2012-03-28T08:08:36.000Z</time>
      </trkpt>
      <trkpt lat="47.70976" lon="6.08582">
        <ele>310</ele>
        <time>2012-03-28T08:08:37.000Z</time>
      </trkpt>
      <trkpt lat="47.70973" lon="6.08573">
        <ele>310</ele>
        <time>2012-03-28T08:08:40.000Z</time>
      </trkpt>
      <trkpt lat="47.70969" lon="6.08555">
        <ele>310</ele>
        <time>2012-03-28T08:08:45.000Z</time>
      </trkpt>
      <trkpt lat="47.70963" lon="6.08529">
        <ele>310</ele>
        <time>2012-03-28T08:08:51.000Z</time>
      </trkpt>
      <trkpt lat="47.70963" lon="6.08496">
        <ele>310</ele>
        <time>2012-03-28T08:08:57.000Z</time>
      </trkpt>
      <trkpt lat="47.70964" lon="6.08485">
        <ele>310.39999389648</ele>
        <time>2012-03-28T08:08:59.000Z</time>
      </trkpt>
      <trkpt lat="47.70964" lon="6.08479">
        <ele>310.79998779297</ele>
        <time>2012-03-28T08:09:00.000Z</time>
      </trkpt>
      <trkpt lat="47.70964" lon="6.08474">
        <ele>311.20001220703</ele>
        <time>2012-03-28T08:09:01.000Z</time>
      </trkpt>
      <trkpt lat="47.70965" lon="6.0847">
        <ele>311.60000610352</ele>
        <time>2012-03-28T08:09:02.000Z</time>
      </trkpt>
      <trkpt lat="47.70965" lon="6.08467">
        <ele>312.20001220703</ele>
        <time>2012-03-28T08:09:03.000Z</time>
      </trkpt>
      <trkpt lat="47.70966" lon="6.08445">
        <ele>312.20001220703</ele>
        <time>2012-03-28T08:09:09.000Z</time>
      </trkpt>
      <trkpt lat="47.70965" lon="6.08442">
        <ele>312.60000610352</ele>
        <time>2012-03-28T08:09:10.000Z</time>
      </trkpt>
      <trkpt lat="47.70966" lon="6.0844">
        <ele>313</ele>
        <time>2012-03-28T08:09:11.000Z</time>
      </trkpt>
      <trkpt lat="47.70967" lon="6.08437">
        <ele>313.39999389648</ele>
        <time>2012-03-28T08:09:12.000Z</time>
      </trkpt>
      <trkpt lat="47.70967" lon="6.08435">
        <ele>313.79998779297</ele>
        <time>2012-03-28T08:09:13.000Z</time>
      </trkpt>
      <trkpt lat="47.70967" lon="6.08431">
        <ele>314.20001220703</ele>
        <time>2012-03-28T08:09:14.000Z</time>
      </trkpt>
      <trkpt lat="47.70967" lon="6.08415">
        <ele>314.20001220703</ele>
        <time>2012-03-28T08:09:19.000Z</time>
      </trkpt>
      <trkpt lat="47.7097" lon="6.08397">
        <ele>314.60000610352</ele>
        <time>2012-03-28T08:09:26.000Z</time>
      </trkpt>
      <trkpt lat="47.70971" lon="6.08394">
        <ele>315</ele>
        <time>2012-03-28T08:09:27.000Z</time>
      </trkpt>
      <trkpt lat="47.70971" lon="6.08392">
        <ele>315.39999389648</ele>
        <time>2012-03-28T08:09:28.000Z</time>
      </trkpt>
      <trkpt lat="47.70972" lon="6.08389">
        <ele>316</ele>
        <time>2012-03-28T08:09:29.000Z</time>
      </trkpt>
      <trkpt lat="47.70972" lon="6.08385">
        <ele>316.39999389648</ele>
        <time>2012-03-28T08:09:30.000Z</time>
      </trkpt>
      <trkpt lat="47.70973" lon="6.08379">
        <ele>316.39999389648</ele>
        <time>2012-03-28T08:09:32.000Z</time>
      </trkpt>
      <trkpt lat="47.70972" lon="6.08362">
        <ele>316.39999389648</ele>
        <time>2012-03-28T08:09:37.000Z</time>
      </trkpt>
      <trkpt lat="47.70973" lon="6.08352">
        <ele>316.79998779297</ele>
        <time>2012-03-28T08:09:41.000Z</time>
      </trkpt>
      <trkpt lat="47.70973" lon="6.08349">
        <ele>317.20001220703</ele>
        <time>2012-03-28T08:09:42.000Z</time>
      </trkpt>
      <trkpt lat="47.70973" lon="6.08346">
        <ele>317.60000610352</ele>
        <time>2012-03-28T08:09:43.000Z</time>
      </trkpt>
      <trkpt lat="47.70973" lon="6.08342">
        <ele>318</ele>
        <time>2012-03-28T08:09:44.000Z</time>
      </trkpt>
      <trkpt lat="47.70974" lon="6.08339">
        <ele>318.39999389648</ele>
        <time>2012-03-28T08:09:45.000Z</time>
      </trkpt>
      <trkpt lat="47.70975" lon="6.08324">
        <ele>318.39999389648</ele>
        <time>2012-03-28T08:09:50.000Z</time>
      </trkpt>
      <trkpt lat="47.70978" lon="6.08309">
        <ele>318.39999389648</ele>
        <time>2012-03-28T08:09:56.000Z</time>
      </trkpt>
      <trkpt lat="47.70982" lon="6.083">
        <ele>318.39999389648</ele>
        <time>2012-03-28T08:10:01.000Z</time>
      </trkpt>
      <trkpt lat="47.70986" lon="6.08284">
        <ele>318.39999389648</ele>
        <time>2012-03-28T08:10:06.000Z</time>
      </trkpt>
      <trkpt lat="47.70991" lon="6.08259">
        <ele>318.39999389648</ele>
        <time>2012-03-28T08:10:12.000Z</time>
      </trkpt>
      <trkpt lat="47.70998" lon="6.08235">
        <ele>318.39999389648</ele>
        <time>2012-03-28T08:10:17.000Z</time>
      </trkpt>
      <trkpt lat="47.71006" lon="6.08201">
        <ele>318.39999389648</ele>
        <time>2012-03-28T08:10:22.000Z</time>
      </trkpt>
      <trkpt lat="47.71018" lon="6.08167">
        <ele>318</ele>
        <time>2012-03-28T08:10:27.000Z</time>
      </trkpt>
      <trkpt lat="47.7102" lon="6.0816">
        <ele>317.60000610352</ele>
        <time>2012-03-28T08:10:28.000Z</time>
      </trkpt>
      <trkpt lat="47.71022" lon="6.08154">
        <ele>317.20001220703</ele>
        <time>2012-03-28T08:10:29.000Z</time>
      </trkpt>
      <trkpt lat="47.71025" lon="6.08147">
        <ele>316.60000610352</ele>
        <time>2012-03-28T08:10:30.000Z</time>
      </trkpt>
      <trkpt lat="47.71027" lon="6.0814">
        <ele>316.20001220703</ele>
        <time>2012-03-28T08:10:31.000Z</time>
      </trkpt>
      <trkpt lat="47.71042" lon="6.081">
        <ele>316.20001220703</ele>
        <time>2012-03-28T08:10:37.000Z</time>
      </trkpt>
      <trkpt lat="47.71051" lon="6.08078">
        <ele>315.79998779297</ele>
        <time>2012-03-28T08:10:40.000Z</time>
      </trkpt>
      <trkpt lat="47.71055" lon="6.08071">
        <ele>315.39999389648</ele>
        <time>2012-03-28T08:10:41.000Z</time>
      </trkpt>
      <trkpt lat="47.71058" lon="6.08062">
        <ele>314.79998779297</ele>
        <time>2012-03-28T08:10:42.000Z</time>
      </trkpt>
      <trkpt lat="47.71061" lon="6.08054">
        <ele>314.39999389648</ele>
        <time>2012-03-28T08:10:43.000Z</time>
      </trkpt>
      <trkpt lat="47.71064" lon="6.08046">
        <ele>314</ele>
        <time>2012-03-28T08:10:44.000Z</time>
      </trkpt>
      <trkpt lat="47.7107" lon="6.08029">
        <ele>313.60000610352</ele>
        <time>2012-03-28T08:10:46.000Z</time>
      </trkpt>
      <trkpt lat="47.71072" lon="6.08022">
        <ele>313</ele>
        <time>2012-03-28T08:10:47.000Z</time>
      </trkpt>
      <trkpt lat="47.71073" lon="6.08014">
        <ele>312.60000610352</ele>
        <time>2012-03-28T08:10:48.000Z</time>
      </trkpt>
      <trkpt lat="47.71075" lon="6.08008">
        <ele>312.20001220703</ele>
        <time>2012-03-28T08:10:49.000Z</time>
      </trkpt>
      <trkpt lat="47.71078" lon="6.08001">
        <ele>311.79998779297</ele>
        <time>2012-03-28T08:10:50.000Z</time>
      </trkpt>
      <trkpt lat="47.71088" lon="6.07973">
        <ele>311.79998779297</ele>
        <time>2012-03-28T08:10:55.000Z</time>
      </trkpt>
      <trkpt lat="47.71101" lon="6.0793">
        <ele>311.39999389648</ele>
        <time>2012-03-28T08:11:02.000Z</time>
      </trkpt>
      <trkpt lat="47.71103" lon="6.07923">
        <ele>311</ele>
        <time>2012-03-28T08:11:03.000Z</time>
      </trkpt>
      <trkpt lat="47.71104" lon="6.07915">
        <ele>310.60000610352</ele>
        <time>2012-03-28T08:11:04.000Z</time>
      </trkpt>
      <trkpt lat="47.71106" lon="6.07907">
        <ele>310.20001220703</ele>
        <time>2012-03-28T08:11:05.000Z</time>
      </trkpt>
      <trkpt lat="47.71107" lon="6.07898">
        <ele>309.79998779297</ele>
        <time>2012-03-28T08:11:06.000Z</time>
      </trkpt>
      <trkpt lat="47.7111" lon="6.07881">
        <ele>309.39999389648</ele>
        <time>2012-03-28T08:11:08.000Z</time>
      </trkpt>
      <trkpt lat="47.71111" lon="6.07872">
        <ele>309</ele>
        <time>2012-03-28T08:11:09.000Z</time>
      </trkpt>
      <trkpt lat="47.71114" lon="6.07864">
        <ele>308.60000610352</ele>
        <time>2012-03-28T08:11:10.000Z</time>
      </trkpt>
      <trkpt lat="47.71116" lon="6.07855">
        <ele>308.20001220703</ele>
        <time>2012-03-28T08:11:11.000Z</time>
      </trkpt>
      <trkpt lat="47.7112" lon="6.07848">
        <ele>307.79998779297</ele>
        <time>2012-03-28T08:11:12.000Z</time>
      </trkpt>
      <trkpt lat="47.71124" lon="6.0784">
        <ele>307.79998779297</ele>
        <time>2012-03-28T08:11:13.000Z</time>
      </trkpt>
      <trkpt lat="47.71128" lon="6.07833">
        <ele>307.39999389648</ele>
        <time>2012-03-28T08:11:14.000Z</time>
      </trkpt>
      <trkpt lat="47.71133" lon="6.07826">
        <ele>307</ele>
        <time>2012-03-28T08:11:15.000Z</time>
      </trkpt>
      <trkpt lat="47.71138" lon="6.07818">
        <ele>306.39999389648</ele>
        <time>2012-03-28T08:11:16.000Z</time>
      </trkpt>
      <trkpt lat="47.71143" lon="6.07812">
        <ele>306</ele>
        <time>2012-03-28T08:11:17.000Z</time>
      </trkpt>
      <trkpt lat="47.71147" lon="6.07804">
        <ele>305.60000610352</ele>
        <time>2012-03-28T08:11:18.000Z</time>
      </trkpt>
      <trkpt lat="47.71168" lon="6.07765">
        <ele>305.60000610352</ele>
        <time>2012-03-28T08:11:24.000Z</time>
      </trkpt>
      <trkpt lat="47.71175" lon="6.07753">
        <ele>305.20001220703</ele>
        <time>2012-03-28T08:11:26.000Z</time>
      </trkpt>
      <trkpt lat="47.71178" lon="6.07746">
        <ele>304.60000610352</ele>
        <time>2012-03-28T08:11:27.000Z</time>
      </trkpt>
      <trkpt lat="47.71181" lon="6.0774">
        <ele>304.20001220703</ele>
        <time>2012-03-28T08:11:28.000Z</time>
      </trkpt>
      <trkpt lat="47.71184" lon="6.07734">
        <ele>303.79998779297</ele>
        <time>2012-03-28T08:11:29.000Z</time>
      </trkpt>
      <trkpt lat="47.71188" lon="6.07728">
        <ele>303.39999389648</ele>
        <time>2012-03-28T08:11:30.000Z</time>
      </trkpt>
      <trkpt lat="47.71191" lon="6.07723">
        <ele>303.39999389648</ele>
        <time>2012-03-28T08:11:31.000Z</time>
      </trkpt>
      <trkpt lat="47.71195" lon="6.0772">
        <ele>303.39999389648</ele>
        <time>2012-03-28T08:11:32.000Z</time>
      </trkpt>
      <trkpt lat="47.7121" lon="6.07715">
        <ele>303</ele>
        <time>2012-03-28T08:11:35.000Z</time>
      </trkpt>
      <trkpt lat="47.71215" lon="6.07713">
        <ele>302.60000610352</ele>
        <time>2012-03-28T08:11:36.000Z</time>
      </trkpt>
      <trkpt lat="47.71221" lon="6.07711">
        <ele>302.20001220703</ele>
        <time>2012-03-28T08:11:37.000Z</time>
      </trkpt>
      <trkpt lat="47.71226" lon="6.07708">
        <ele>301.79998779297</ele>
        <time>2012-03-28T08:11:38.000Z</time>
      </trkpt>
      <trkpt lat="47.71232" lon="6.07705">
        <ele>301.39999389648</ele>
        <time>2012-03-28T08:11:39.000Z</time>
      </trkpt>
      <trkpt lat="47.71238" lon="6.07701">
        <ele>301.39999389648</ele>
        <time>2012-03-28T08:11:40.000Z</time>
      </trkpt>
      <trkpt lat="47.71243" lon="6.07697">
        <ele>301.39999389648</ele>
        <time>2012-03-28T08:11:41.000Z</time>
      </trkpt>
      <trkpt lat="47.71247" lon="6.07693">
        <ele>300.79998779297</ele>
        <time>2012-03-28T08:11:42.000Z</time>
      </trkpt>
      <trkpt lat="47.71252" lon="6.07688">
        <ele>300.20001220703</ele>
        <time>2012-03-28T08:11:43.000Z</time>
      </trkpt>
      <trkpt lat="47.71257" lon="6.07685">
        <ele>299.79998779297</ele>
        <time>2012-03-28T08:11:44.000Z</time>
      </trkpt>
      <trkpt lat="47.71263" lon="6.07681">
        <ele>299</ele>
        <time>2012-03-28T08:11:45.000Z</time>
      </trkpt>
      <trkpt lat="47.71269" lon="6.07677">
        <ele>298.39999389648</ele>
        <time>2012-03-28T08:11:46.000Z</time>
      </trkpt>
      <trkpt lat="47.71276" lon="6.07675">
        <ele>297.79998779297</ele>
        <time>2012-03-28T08:11:47.000Z</time>
      </trkpt>
      <trkpt lat="47.71283" lon="6.07674">
        <ele>297.20001220703</ele>
        <time>2012-03-28T08:11:48.000Z</time>
      </trkpt>
      <trkpt lat="47.7129" lon="6.07674">
        <ele>296.60000610352</ele>
        <time>2012-03-28T08:11:49.000Z</time>
      </trkpt>
      <trkpt lat="47.71302" lon="6.07675">
        <ele>296.60000610352</ele>
        <time>2012-03-28T08:11:51.000Z</time>
      </trkpt>
      <trkpt lat="47.71309" lon="6.07675">
        <ele>296</ele>
        <time>2012-03-28T08:11:52.000Z</time>
      </trkpt>
      <trkpt lat="47.71315" lon="6.07674">
        <ele>295.60000610352</ele>
        <time>2012-03-28T08:11:53.000Z</time>
      </trkpt>
      <trkpt lat="47.71322" lon="6.07674">
        <ele>295.20001220703</ele>
        <time>2012-03-28T08:11:54.000Z</time>
      </trkpt>
      <trkpt lat="47.71329" lon="6.07674">
        <ele>294.79998779297</ele>
        <time>2012-03-28T08:11:55.000Z</time>
      </trkpt>
      <trkpt lat="47.71335" lon="6.07675">
        <ele>294.39999389648</ele>
        <time>2012-03-28T08:11:56.000Z</time>
      </trkpt>
      <trkpt lat="47.71357" lon="6.07676">
        <ele>294</ele>
        <time>2012-03-28T08:11:59.000Z</time>
      </trkpt>
      <trkpt lat="47.71364" lon="6.07676">
        <ele>293.60000610352</ele>
        <time>2012-03-28T08:12:00.000Z</time>
      </trkpt>
      <trkpt lat="47.71371" lon="6.07676">
        <ele>293</ele>
        <time>2012-03-28T08:12:01.000Z</time>
      </trkpt>
      <trkpt lat="47.71379" lon="6.07675">
        <ele>292.60000610352</ele>
        <time>2012-03-28T08:12:02.000Z</time>
      </trkpt>
      <trkpt lat="47.71385" lon="6.07673">
        <ele>292.20001220703</ele>
        <time>2012-03-28T08:12:03.000Z</time>
      </trkpt>
      <trkpt lat="47.71398" lon="6.07667">
        <ele>292.20001220703</ele>
        <time>2012-03-28T08:12:05.000Z</time>
      </trkpt>
      <trkpt lat="47.71425" lon="6.07648">
        <ele>292.20001220703</ele>
        <time>2012-03-28T08:12:10.000Z</time>
      </trkpt>
      <trkpt lat="47.71455" lon="6.07626">
        <ele>292.20001220703</ele>
        <time>2012-03-28T08:12:17.000Z</time>
      </trkpt>
      <trkpt lat="47.71465" lon="6.07603">
        <ele>292.20001220703</ele>
        <time>2012-03-28T08:12:21.000Z</time>
      </trkpt>
      <trkpt lat="47.71465" lon="6.07595">
        <ele>291.79998779297</ele>
        <time>2012-03-28T08:12:22.000Z</time>
      </trkpt>
      <trkpt lat="47.71464" lon="6.07587">
        <ele>291.39999389648</ele>
        <time>2012-03-28T08:12:23.000Z</time>
      </trkpt>
      <trkpt lat="47.71463" lon="6.0758">
        <ele>291</ele>
        <time>2012-03-28T08:12:24.000Z</time>
      </trkpt>
      <trkpt lat="47.71461" lon="6.07573">
        <ele>290.60000610352</ele>
        <time>2012-03-28T08:12:25.000Z</time>
      </trkpt>
      <trkpt lat="47.7146" lon="6.07565">
        <ele>290.20001220703</ele>
        <time>2012-03-28T08:12:26.000Z</time>
      </trkpt>
      <trkpt lat="47.71455" lon="6.07527">
        <ele>290.20001220703</ele>
        <time>2012-03-28T08:12:31.000Z</time>
      </trkpt>
      <trkpt lat="47.7145" lon="6.07486">
        <ele>290.20001220703</ele>
        <time>2012-03-28T08:12:37.000Z</time>
      </trkpt>
      <trkpt lat="47.71447" lon="6.07461">
        <ele>290.20001220703</ele>
        <time>2012-03-28T08:12:41.000Z</time>
      </trkpt>
      <trkpt lat="47.71448" lon="6.07456">
        <ele>290.20001220703</ele>
        <time>2012-03-28T08:12:42.000Z</time>
      </trkpt>
      <trkpt lat="47.71458" lon="6.07448">
        <ele>290.20001220703</ele>
        <time>2012-03-28T08:12:45.000Z</time>
      </trkpt>
      <trkpt lat="47.71467" lon="6.0744">
        <ele>289.79998779297</ele>
        <time>2012-03-28T08:12:48.000Z</time>
      </trkpt>
      <trkpt lat="47.71471" lon="6.07438">
        <ele>289.39999389648</ele>
        <time>2012-03-28T08:12:49.000Z</time>
      </trkpt>
      <trkpt lat="47.71474" lon="6.07434">
        <ele>288.79998779297</ele>
        <time>2012-03-28T08:12:50.000Z</time>
      </trkpt>
      <trkpt lat="47.71478" lon="6.07431">
        <ele>288.39999389648</ele>
        <time>2012-03-28T08:12:51.000Z</time>
      </trkpt>
      <trkpt lat="47.71481" lon="6.07428">
        <ele>288</ele>
        <time>2012-03-28T08:12:52.000Z</time>
      </trkpt>
      <trkpt lat="47.71488" lon="6.07424">
        <ele>288</ele>
        <time>2012-03-28T08:12:55.000Z</time>
      </trkpt>
      <trkpt lat="47.71504" lon="6.07418">
        <ele>288</ele>
        <time>2012-03-28T08:13:00.000Z</time>
      </trkpt>
      <trkpt lat="47.7151" lon="6.07413">
        <ele>288</ele>
        <time>2012-03-28T08:13:02.000Z</time>
      </trkpt>
      <trkpt lat="47.71519" lon="6.07408">
        <ele>288</ele>
        <time>2012-03-28T08:13:05.000Z</time>
      </trkpt>
      <trkpt lat="47.7154" lon="6.07396">
        <ele>287.60000610352</ele>
        <time>2012-03-28T08:13:12.000Z</time>
      </trkpt>
      <trkpt lat="47.71543" lon="6.07394">
        <ele>287.20001220703</ele>
        <time>2012-03-28T08:13:13.000Z</time>
      </trkpt>
      <trkpt lat="47.71546" lon="6.07393">
        <ele>286.79998779297</ele>
        <time>2012-03-28T08:13:14.000Z</time>
      </trkpt>
      <trkpt lat="47.7155" lon="6.07392">
        <ele>286.39999389648</ele>
        <time>2012-03-28T08:13:15.000Z</time>
      </trkpt>
      <trkpt lat="47.71554" lon="6.07392">
        <ele>286</ele>
        <time>2012-03-28T08:13:16.000Z</time>
      </trkpt>
      <trkpt lat="47.71558" lon="6.07393">
        <ele>286</ele>
        <time>2012-03-28T08:13:17.000Z</time>
      </trkpt>
      <trkpt lat="47.71566" lon="6.07396">
        <ele>286</ele>
        <time>2012-03-28T08:13:19.000Z</time>
      </trkpt>
      <trkpt lat="47.71573" lon="6.074">
        <ele>286</ele>
        <time>2012-03-28T08:13:21.000Z</time>
      </trkpt>
      <trkpt lat="47.71592" lon="6.07409">
        <ele>286</ele>
        <time>2012-03-28T08:13:26.000Z</time>
      </trkpt>
      <trkpt lat="47.71621" lon="6.07416">
        <ele>285.60000610352</ele>
        <time>2012-03-28T08:13:33.000Z</time>
      </trkpt>
      <trkpt lat="47.71625" lon="6.07416">
        <ele>285.20001220703</ele>
        <time>2012-03-28T08:13:34.000Z</time>
      </trkpt>
      <trkpt lat="47.7163" lon="6.07415">
        <ele>284.79998779297</ele>
        <time>2012-03-28T08:13:35.000Z</time>
      </trkpt>
      <trkpt lat="47.71635" lon="6.07414">
        <ele>284.39999389648</ele>
        <time>2012-03-28T08:13:36.000Z</time>
      </trkpt>
      <trkpt lat="47.71639" lon="6.07412">
        <ele>284</ele>
        <time>2012-03-28T08:13:37.000Z</time>
      </trkpt>
      <trkpt lat="47.71648" lon="6.07406">
        <ele>284</ele>
        <time>2012-03-28T08:13:39.000Z</time>
      </trkpt>
      <trkpt lat="47.71671" lon="6.0739">
        <ele>283.60000610352</ele>
        <time>2012-03-28T08:13:44.000Z</time>
      </trkpt>
      <trkpt lat="47.71676" lon="6.07387">
        <ele>283.20001220703</ele>
        <time>2012-03-28T08:13:45.000Z</time>
      </trkpt>
      <trkpt lat="47.71681" lon="6.07383">
        <ele>282.79998779297</ele>
        <time>2012-03-28T08:13:46.000Z</time>
      </trkpt>
      <trkpt lat="47.71686" lon="6.0738">
        <ele>282.39999389648</ele>
        <time>2012-03-28T08:13:47.000Z</time>
      </trkpt>
      <trkpt lat="47.7169" lon="6.07377">
        <ele>282</ele>
        <time>2012-03-28T08:13:48.000Z</time>
      </trkpt>
      <trkpt lat="47.71704" lon="6.0737">
        <ele>281.39999389648</ele>
        <time>2012-03-28T08:13:51.000Z</time>
      </trkpt>
      <trkpt lat="47.71709" lon="6.07369">
        <ele>281</ele>
        <time>2012-03-28T08:13:52.000Z</time>
      </trkpt>
      <trkpt lat="47.71715" lon="6.07367">
        <ele>280.60000610352</ele>
        <time>2012-03-28T08:13:53.000Z</time>
      </trkpt>
      <trkpt lat="47.7172" lon="6.07366">
        <ele>280.20001220703</ele>
        <time>2012-03-28T08:13:54.000Z</time>
      </trkpt>
      <trkpt lat="47.71726" lon="6.07364">
        <ele>279.79998779297</ele>
        <time>2012-03-28T08:13:55.000Z</time>
      </trkpt>
      <trkpt lat="47.71732" lon="6.07363">
        <ele>279.39999389648</ele>
        <time>2012-03-28T08:13:56.000Z</time>
      </trkpt>
      <trkpt lat="47.71737" lon="6.07362">
        <ele>279</ele>
        <time>2012-03-28T08:13:57.000Z</time>
      </trkpt>
      <trkpt lat="47.71743" lon="6.07361">
        <ele>278.60000610352</ele>
        <time>2012-03-28T08:13:58.000Z</time>
      </trkpt>
      <trkpt lat="47.71749" lon="6.0736">
        <ele>278.20001220703</ele>
        <time>2012-03-28T08:13:59.000Z</time>
      </trkpt>
      <trkpt lat="47.71754" lon="6.07358">
        <ele>277.79998779297</ele>
        <time>2012-03-28T08:14:00.000Z</time>
      </trkpt>
      <trkpt lat="47.7176" lon="6.07357">
        <ele>277.39999389648</ele>
        <time>2012-03-28T08:14:01.000Z</time>
      </trkpt>
      <trkpt lat="47.71766" lon="6.07356">
        <ele>277</ele>
        <time>2012-03-28T08:14:02.000Z</time>
      </trkpt>
      <trkpt lat="47.71772" lon="6.07356">
        <ele>276.60000610352</ele>
        <time>2012-03-28T08:14:03.000Z</time>
      </trkpt>
      <trkpt lat="47.71777" lon="6.07354">
        <ele>276.20001220703</ele>
        <time>2012-03-28T08:14:04.000Z</time>
      </trkpt>
      <trkpt lat="47.71784" lon="6.07353">
        <ele>275.79998779297</ele>
        <time>2012-03-28T08:14:05.000Z</time>
      </trkpt>
      <trkpt lat="47.71795" lon="6.07351">
        <ele>275.79998779297</ele>
        <time>2012-03-28T08:14:07.000Z</time>
      </trkpt>
      <trkpt lat="47.71804" lon="6.0735">
        <ele>275.39999389648</ele>
        <time>2012-03-28T08:14:10.000Z</time>
      </trkpt>
      <trkpt lat="47.71806" lon="6.0735">
        <ele>275</ele>
        <time>2012-03-28T08:14:11.000Z</time>
      </trkpt>
      <trkpt lat="47.71808" lon="6.07351">
        <ele>274.39999389648</ele>
        <time>2012-03-28T08:14:12.000Z</time>
      </trkpt>
      <trkpt lat="47.7181" lon="6.07351">
        <ele>274</ele>
        <time>2012-03-28T08:14:13.000Z</time>
      </trkpt>
      <trkpt lat="47.71811" lon="6.07352">
        <ele>273.60000610352</ele>
        <time>2012-03-28T08:14:14.000Z</time>
      </trkpt>
      <trkpt lat="47.71813" lon="6.07353">
        <ele>273.60000610352</ele>
        <time>2012-03-28T08:14:15.000Z</time>
      </trkpt>
      <trkpt lat="47.7182" lon="6.07356">
        <ele>273.60000610352</ele>
        <time>2012-03-28T08:14:21.000Z</time>
      </trkpt>
      <trkpt lat="47.71822" lon="6.07356">
        <ele>273.60000610352</ele>
        <time>2012-03-28T08:14:24.000Z</time>
      </trkpt>
      <trkpt lat="47.71822" lon="6.07357">
        <ele>273.60000610352</ele>
        <time>2012-03-28T08:14:39.000Z</time>
      </trkpt>
      <trkpt lat="47.71824" lon="6.07358">
        <ele>273.60000610352</ele>
        <time>2012-03-28T08:14:40.000Z</time>
      </trkpt>
      <trkpt lat="47.71834" lon="6.07366">
        <ele>273.60000610352</ele>
        <time>2012-03-28T08:14:46.000Z</time>
      </trkpt>
      <trkpt lat="47.71851" lon="6.07383">
        <ele>273.60000610352</ele>
        <time>2012-03-28T08:14:52.000Z</time>
      </trkpt>
      <trkpt lat="47.71873" lon="6.07406">
        <ele>273.20001220703</ele>
        <time>2012-03-28T08:14:58.000Z</time>
      </trkpt>
      <trkpt lat="47.71878" lon="6.07411">
        <ele>272.79998779297</ele>
        <time>2012-03-28T08:14:59.000Z</time>
      </trkpt>
      <trkpt lat="47.71882" lon="6.07415">
        <ele>272.39999389648</ele>
        <time>2012-03-28T08:15:00.000Z</time>
      </trkpt>
      <trkpt lat="47.71886" lon="6.07419">
        <ele>272</ele>
        <time>2012-03-28T08:15:01.000Z</time>
      </trkpt>
      <trkpt lat="47.7189" lon="6.07424">
        <ele>271.60000610352</ele>
        <time>2012-03-28T08:15:02.000Z</time>
      </trkpt>
      <trkpt lat="47.71899" lon="6.07434">
        <ele>271.20001220703</ele>
        <time>2012-03-28T08:15:04.000Z</time>
      </trkpt>
      <trkpt lat="47.71904" lon="6.07439">
        <ele>270.79998779297</ele>
        <time>2012-03-28T08:15:05.000Z</time>
      </trkpt>
      <trkpt lat="47.7191" lon="6.07445">
        <ele>269.79998779297</ele>
        <time>2012-03-28T08:15:06.000Z</time>
      </trkpt>
      <trkpt lat="47.71916" lon="6.07451">
        <ele>269.20001220703</ele>
        <time>2012-03-28T08:15:07.000Z</time>
      </trkpt>
      <trkpt lat="47.71922" lon="6.07459">
        <ele>268.60000610352</ele>
        <time>2012-03-28T08:15:08.000Z</time>
      </trkpt>
      <trkpt lat="47.71928" lon="6.07467">
        <ele>267.79998779297</ele>
        <time>2012-03-28T08:15:09.000Z</time>
      </trkpt>
      <trkpt lat="47.71933" lon="6.07476">
        <ele>267</ele>
        <time>2012-03-28T08:15:10.000Z</time>
      </trkpt>
      <trkpt lat="47.71938" lon="6.07486">
        <ele>266.20001220703</ele>
        <time>2012-03-28T08:15:11.000Z</time>
      </trkpt>
      <trkpt lat="47.71943" lon="6.07496">
        <ele>265.39999389648</ele>
        <time>2012-03-28T08:15:12.000Z</time>
      </trkpt>
      <trkpt lat="47.71947" lon="6.07505">
        <ele>264.79998779297</ele>
        <time>2012-03-28T08:15:13.000Z</time>
      </trkpt>
      <trkpt lat="47.71959" lon="6.07531">
        <ele>264.79998779297</ele>
        <time>2012-03-28T08:15:16.000Z</time>
      </trkpt>
      <trkpt lat="47.7197" lon="6.07542">
        <ele>264.79998779297</ele>
        <time>2012-03-28T08:15:18.000Z</time>
      </trkpt>
      <trkpt lat="47.71985" lon="6.07553">
        <ele>264.79998779297</ele>
        <time>2012-03-28T08:15:21.000Z</time>
      </trkpt>
      <trkpt lat="47.71995" lon="6.07558">
        <ele>264.79998779297</ele>
        <time>2012-03-28T08:15:23.000Z</time>
      </trkpt>
      <trkpt lat="47.72027" lon="6.07574">
        <ele>264.79998779297</ele>
        <time>2012-03-28T08:15:30.000Z</time>
      </trkpt>
      <trkpt lat="47.72055" lon="6.07581">
        <ele>264.20001220703</ele>
        <time>2012-03-28T08:15:36.000Z</time>
      </trkpt>
      <trkpt lat="47.7206" lon="6.07582">
        <ele>263.79998779297</ele>
        <time>2012-03-28T08:15:37.000Z</time>
      </trkpt>
      <trkpt lat="47.72065" lon="6.07583">
        <ele>263.39999389648</ele>
        <time>2012-03-28T08:15:38.000Z</time>
      </trkpt>
      <trkpt lat="47.7207" lon="6.07584">
        <ele>263</ele>
        <time>2012-03-28T08:15:39.000Z</time>
      </trkpt>
      <trkpt lat="47.72075" lon="6.07585">
        <ele>262.60000610352</ele>
        <time>2012-03-28T08:15:40.000Z</time>
      </trkpt>
      <trkpt lat="47.72101" lon="6.0759">
        <ele>262.60000610352</ele>
        <time>2012-03-28T08:15:45.000Z</time>
      </trkpt>
      <trkpt lat="47.72106" lon="6.07589">
        <ele>262.60000610352</ele>
        <time>2012-03-28T08:15:46.000Z</time>
      </trkpt>
      <trkpt lat="47.72127" lon="6.07588">
        <ele>262.60000610352</ele>
        <time>2012-03-28T08:15:50.000Z</time>
      </trkpt>
      <trkpt lat="47.72167" lon="6.07583">
        <ele>262.60000610352</ele>
        <time>2012-03-28T08:15:58.000Z</time>
      </trkpt>
      <trkpt lat="47.72172" lon="6.07584">
        <ele>262.60000610352</ele>
        <time>2012-03-28T08:15:59.000Z</time>
      </trkpt>
      <trkpt lat="47.72189" lon="6.07593">
        <ele>262.60000610352</ele>
        <time>2012-03-28T08:16:03.000Z</time>
      </trkpt>
      <trkpt lat="47.72201" lon="6.07608">
        <ele>262.60000610352</ele>
        <time>2012-03-28T08:16:07.000Z</time>
      </trkpt>
      <trkpt lat="47.72205" lon="6.07612">
        <ele>262.60000610352</ele>
        <time>2012-03-28T08:16:08.000Z</time>
      </trkpt>
      <trkpt lat="47.7221" lon="6.0762">
        <ele>262.60000610352</ele>
        <time>2012-03-28T08:16:10.000Z</time>
      </trkpt>
      <trkpt lat="47.72218" lon="6.0764">
        <ele>262.60000610352</ele>
        <time>2012-03-28T08:16:14.000Z</time>
      </trkpt>
      <trkpt lat="47.72231" lon="6.07674">
        <ele>262.60000610352</ele>
        <time>2012-03-28T08:16:21.000Z</time>
      </trkpt>
      <trkpt lat="47.72243" lon="6.07716">
        <ele>262.60000610352</ele>
        <time>2012-03-28T08:16:27.000Z</time>
      </trkpt>
      <trkpt lat="47.72255" lon="6.07759">
        <ele>262.60000610352</ele>
        <time>2012-03-28T08:16:33.000Z</time>
      </trkpt>
      <trkpt lat="47.72259" lon="6.0777">
        <ele>262.60000610352</ele>
        <time>2012-03-28T08:16:35.000Z</time>
      </trkpt>
      <trkpt lat="47.72268" lon="6.0779">
        <ele>262.60000610352</ele>
        <time>2012-03-28T08:16:39.000Z</time>
      </trkpt>
      <trkpt lat="47.72284" lon="6.0782">
        <ele>262.60000610352</ele>
        <time>2012-03-28T08:16:46.000Z</time>
      </trkpt>
      <trkpt lat="47.72299" lon="6.07845">
        <ele>262.60000610352</ele>
        <time>2012-03-28T08:16:53.000Z</time>
      </trkpt>
      <trkpt lat="47.72316" lon="6.07866">
        <ele>262.60000610352</ele>
        <time>2012-03-28T08:17:00.000Z</time>
      </trkpt>
      <trkpt lat="47.72336" lon="6.07884">
        <ele>262.60000610352</ele>
        <time>2012-03-28T08:17:06.000Z</time>
      </trkpt>
      <trkpt lat="47.72348" lon="6.07893">
        <ele>262.60000610352</ele>
        <time>2012-03-28T08:17:09.000Z</time>
      </trkpt>
      <trkpt lat="47.72357" lon="6.07898">
        <ele>262.60000610352</ele>
        <time>2012-03-28T08:17:11.000Z</time>
      </trkpt>
      <trkpt lat="47.72362" lon="6.079">
        <ele>262.60000610352</ele>
        <time>2012-03-28T08:17:12.000Z</time>
      </trkpt>
      <trkpt lat="47.72379" lon="6.07907">
        <ele>262.20001220703</ele>
        <time>2012-03-28T08:17:15.000Z</time>
      </trkpt>
      <trkpt lat="47.72386" lon="6.07911">
        <ele>261.79998779297</ele>
        <time>2012-03-28T08:17:16.000Z</time>
      </trkpt>
      <trkpt lat="47.72392" lon="6.07916">
        <ele>261.39999389648</ele>
        <time>2012-03-28T08:17:17.000Z</time>
      </trkpt>
      <trkpt lat="47.72397" lon="6.07922">
        <ele>260.79998779297</ele>
        <time>2012-03-28T08:17:18.000Z</time>
      </trkpt>
      <trkpt lat="47.72402" lon="6.0793">
        <ele>260.39999389648</ele>
        <time>2012-03-28T08:17:19.000Z</time>
      </trkpt>
      <trkpt lat="47.72406" lon="6.07937">
        <ele>260.39999389648</ele>
        <time>2012-03-28T08:17:20.000Z</time>
      </trkpt>
      <trkpt lat="47.7241" lon="6.07945">
        <ele>260.39999389648</ele>
        <time>2012-03-28T08:17:21.000Z</time>
      </trkpt>
      <trkpt lat="47.72425" lon="6.07987">
        <ele>260.39999389648</ele>
        <time>2012-03-28T08:17:27.000Z</time>
      </trkpt>
      <trkpt lat="47.72435" lon="6.08021">
        <ele>260.39999389648</ele>
        <time>2012-03-28T08:17:33.000Z</time>
      </trkpt>
      <trkpt lat="47.72442" lon="6.08053">
        <ele>260.39999389648</ele>
        <time>2012-03-28T08:17:39.000Z</time>
      </trkpt>
      <trkpt lat="47.7245" lon="6.08097">
        <ele>260.39999389648</ele>
        <time>2012-03-28T08:17:47.000Z</time>
      </trkpt>
      <trkpt lat="47.72452" lon="6.08104">
        <ele>260.39999389648</ele>
        <time>2012-03-28T08:17:48.000Z</time>
      </trkpt>
      <trkpt lat="47.7246" lon="6.08127">
        <ele>260.39999389648</ele>
        <time>2012-03-28T08:17:51.000Z</time>
      </trkpt>
      <trkpt lat="47.72475" lon="6.08164">
        <ele>260.39999389648</ele>
        <time>2012-03-28T08:17:57.000Z</time>
      </trkpt>
      <trkpt lat="47.72486" lon="6.08185">
        <ele>260.39999389648</ele>
        <time>2012-03-28T08:18:02.000Z</time>
      </trkpt>
      <trkpt lat="47.72489" lon="6.08193">
        <ele>260.79998779297</ele>
        <time>2012-03-28T08:18:04.000Z</time>
      </trkpt>
      <trkpt lat="47.72491" lon="6.08197">
        <ele>261.20001220703</ele>
        <time>2012-03-28T08:18:05.000Z</time>
      </trkpt>
      <trkpt lat="47.72492" lon="6.082">
        <ele>261.60000610352</ele>
        <time>2012-03-28T08:18:06.000Z</time>
      </trkpt>
      <trkpt lat="47.72494" lon="6.08204">
        <ele>262.20001220703</ele>
        <time>2012-03-28T08:18:07.000Z</time>
      </trkpt>
      <trkpt lat="47.72495" lon="6.08207">
        <ele>262.60000610352</ele>
        <time>2012-03-28T08:18:08.000Z</time>
      </trkpt>
      <trkpt lat="47.72497" lon="6.0821">
        <ele>262.60000610352</ele>
        <time>2012-03-28T08:18:09.000Z</time>
      </trkpt>
      <trkpt lat="47.72506" lon="6.08234">
        <ele>262.60000610352</ele>
        <time>2012-03-28T08:18:15.000Z</time>
      </trkpt>
      <trkpt lat="47.72509" lon="6.0824">
        <ele>263</ele>
        <time>2012-03-28T08:18:17.000Z</time>
      </trkpt>
      <trkpt lat="47.72511" lon="6.08243">
        <ele>263.39999389648</ele>
        <time>2012-03-28T08:18:18.000Z</time>
      </trkpt>
      <trkpt lat="47.72512" lon="6.08245">
        <ele>263.79998779297</ele>
        <time>2012-03-28T08:18:19.000Z</time>
      </trkpt>
      <trkpt lat="47.72513" lon="6.08248">
        <ele>264.20001220703</ele>
        <time>2012-03-28T08:18:20.000Z</time>
      </trkpt>
      <trkpt lat="47.72514" lon="6.08251">
        <ele>264.60000610352</ele>
        <time>2012-03-28T08:18:21.000Z</time>
      </trkpt>
      <trkpt lat="47.72521" lon="6.08261">
        <ele>264.60000610352</ele>
        <time>2012-03-28T08:18:25.000Z</time>
      </trkpt>
      <trkpt lat="47.72526" lon="6.0827">
        <ele>265</ele>
        <time>2012-03-28T08:18:29.000Z</time>
      </trkpt>
      <trkpt lat="47.72527" lon="6.08273">
        <ele>265.39999389648</ele>
        <time>2012-03-28T08:18:30.000Z</time>
      </trkpt>
      <trkpt lat="47.72528" lon="6.08275">
        <ele>265.79998779297</ele>
        <time>2012-03-28T08:18:31.000Z</time>
      </trkpt>
      <trkpt lat="47.7253" lon="6.08278">
        <ele>266.20001220703</ele>
        <time>2012-03-28T08:18:32.000Z</time>
      </trkpt>
      <trkpt lat="47.72531" lon="6.08281">
        <ele>266.60000610352</ele>
        <time>2012-03-28T08:18:33.000Z</time>
      </trkpt>
      <trkpt lat="47.72543" lon="6.083">
        <ele>266.60000610352</ele>
        <time>2012-03-28T08:18:40.000Z</time>
      </trkpt>
      <trkpt lat="47.72552" lon="6.08315">
        <ele>266.60000610352</ele>
        <time>2012-03-28T08:18:47.000Z</time>
      </trkpt>
      <trkpt lat="47.72556" lon="6.08319">
        <ele>266.60000610352</ele>
        <time>2012-03-28T08:18:52.000Z</time>
      </trkpt>
      <trkpt lat="47.72556" lon="6.08321">
        <ele>266.60000610352</ele>
        <time>2012-03-28T08:19:29.000Z</time>
      </trkpt>
      <trkpt lat="47.72556" lon="6.08321">
        <ele>266.60000610352</ele>
        <time>2012-03-28T08:19:30.000Z</time>
      </trkpt>
      <trkpt lat="47.72557" lon="6.08321">
        <ele>266.60000610352</ele>
        <time>2012-03-28T08:19:44.000Z</time>
      </trkpt>
      <trkpt lat="47.72558" lon="6.08321">
        <ele>266.60000610352</ele>
        <time>2012-03-28T08:19:45.000Z</time>
      </trkpt>
      <trkpt lat="47.7256" lon="6.08321">
        <ele>266.60000610352</ele>
        <time>2012-03-28T08:19:53.000Z</time>
      </trkpt>
      <trkpt lat="47.72571" lon="6.08327">
        <ele>266.60000610352</ele>
        <time>2012-03-28T08:19:58.000Z</time>
      </trkpt>
      <trkpt lat="47.72585" lon="6.08335">
        <ele>266.60000610352</ele>
        <time>2012-03-28T08:20:05.000Z</time>
      </trkpt>
      <trkpt lat="47.72592" lon="6.08342">
        <ele>266.60000610352</ele>
        <time>2012-03-28T08:20:11.000Z</time>
      </trkpt>
      <trkpt lat="47.72601" lon="6.08357">
        <ele>266.60000610352</ele>
        <time>2012-03-28T08:20:18.000Z</time>
      </trkpt>
      <trkpt lat="47.7261" lon="6.08374">
        <ele>266.60000610352</ele>
        <time>2012-03-28T08:20:25.000Z</time>
      </trkpt>
      <trkpt lat="47.72611" lon="6.08375">
        <ele>266.60000610352</ele>
        <time>2012-03-28T08:20:28.000Z</time>
      </trkpt>
      <trkpt lat="47.72611" lon="6.08375">
        <ele>266.60000610352</ele>
        <time>2012-03-28T08:20:43.000Z</time>
      </trkpt>
      <trkpt lat="47.7261" lon="6.08376">
        <ele>266.60000610352</ele>
        <time>2012-03-28T08:20:44.000Z</time>
      </trkpt>
      <trkpt lat="47.72609" lon="6.08376">
        <ele>266.60000610352</ele>
        <time>2012-03-28T08:20:45.000Z</time>
      </trkpt>
      <trkpt lat="47.72609" lon="6.0838">
        <ele>266.60000610352</ele>
        <time>2012-03-28T08:20:49.000Z</time>
      </trkpt>
      <trkpt lat="47.72611" lon="6.0838">
        <ele>266.60000610352</ele>
        <time>2012-03-28T08:21:02.000Z</time>
      </trkpt>
      <trkpt lat="47.72611" lon="6.0838">
        <ele>266.60000610352</ele>
        <time>2012-03-28T08:21:03.000Z</time>
      </trkpt>
      <trkpt lat="47.72611" lon="6.08381">
        <ele>266.60000610352</ele>
        <time>2012-03-28T08:21:05.000Z</time>
      </trkpt>
      <trkpt lat="47.72611" lon="6.08381">
        <ele>266.60000610352</ele>
        <time>2012-03-28T08:21:06.000Z</time>
      </trkpt>
      <trkpt lat="47.72612" lon="6.0838">
        <ele>266.60000610352</ele>
        <time>2012-03-28T08:21:15.000Z</time>
      </trkpt>
      <trkpt lat="47.72612" lon="6.08381">
        <ele>266.60000610352</ele>
        <time>2012-03-28T08:21:16.000Z</time>
      </trkpt>
      <trkpt lat="47.72614" lon="6.08381">
        <ele>266.60000610352</ele>
        <time>2012-03-28T08:21:20.000Z</time>
      </trkpt>
      <trkpt lat="47.72616" lon="6.0838">
        <ele>266.60000610352</ele>
        <time>2012-03-28T08:21:22.000Z</time>
      </trkpt>
      <trkpt lat="47.72616" lon="6.08381">
        <ele>266.60000610352</ele>
        <time>2012-03-28T08:21:24.000Z</time>
      </trkpt>
      <trkpt lat="47.72616" lon="6.08382">
        <ele>266.60000610352</ele>
        <time>2012-03-28T08:21:28.000Z</time>
      </trkpt>
      <trkpt lat="47.7262" lon="6.08385">
        <ele>266.60000610352</ele>
        <time>2012-03-28T08:21:30.000Z</time>
      </trkpt>
      <trkpt lat="47.72631" lon="6.08397">
        <ele>266.60000610352</ele>
        <time>2012-03-28T08:21:35.000Z</time>
      </trkpt>
      <trkpt lat="47.72645" lon="6.08414">
        <ele>266.60000610352</ele>
        <time>2012-03-28T08:21:42.000Z</time>
      </trkpt>
      <trkpt lat="47.72654" lon="6.08428">
        <ele>266.60000610352</ele>
        <time>2012-03-28T08:21:49.000Z</time>
      </trkpt>
      <trkpt lat="47.72656" lon="6.08431">
        <ele>266.60000610352</ele>
        <time>2012-03-28T08:21:53.000Z</time>
      </trkpt>
      <trkpt lat="47.72655" lon="6.08432">
        <ele>266.60000610352</ele>
        <time>2012-03-28T08:21:55.000Z</time>
      </trkpt>
      <trkpt lat="47.72656" lon="6.0843">
        <ele>266.60000610352</ele>
        <time>2012-03-28T08:21:56.000Z</time>
      </trkpt>
      <trkpt lat="47.72656" lon="6.08431">
        <ele>266.60000610352</ele>
        <time>2012-03-28T08:21:57.000Z</time>
      </trkpt>
      <trkpt lat="47.72657" lon="6.08433">
        <ele>266.60000610352</ele>
        <time>2012-03-28T08:22:00.000Z</time>
      </trkpt>
      <trkpt lat="47.72658" lon="6.08436">
        <ele>266.60000610352</ele>
        <time>2012-03-28T08:22:03.000Z</time>
      </trkpt>
      <trkpt lat="47.72658" lon="6.08437">
        <ele>266.60000610352</ele>
        <time>2012-03-28T08:22:04.000Z</time>
      </trkpt>
      <trkpt lat="47.72658" lon="6.08438">
        <ele>266.60000610352</ele>
        <time>2012-03-28T08:22:06.000Z</time>
      </trkpt>
      <trkpt lat="47.72659" lon="6.08439">
        <ele>266.60000610352</ele>
        <time>2012-03-28T08:22:20.000Z</time>
      </trkpt>
      <trkpt lat="47.72659" lon="6.08439">
        <ele>266.60000610352</ele>
        <time>2012-03-28T08:22:21.000Z</time>
      </trkpt>
      <trkpt lat="47.72659" lon="6.0844">
        <ele>266.60000610352</ele>
        <time>2012-03-28T08:22:22.000Z</time>
      </trkpt>
      <trkpt lat="47.72659" lon="6.0844">
        <ele>266.60000610352</ele>
        <time>2012-03-28T08:22:24.000Z</time>
      </trkpt>
      <trkpt lat="47.7266" lon="6.08442">
        <ele>266.60000610352</ele>
        <time>2012-03-28T08:22:25.000Z</time>
      </trkpt>
      <trkpt lat="47.7266" lon="6.08443">
        <ele>266.60000610352</ele>
        <time>2012-03-28T08:22:27.000Z</time>
      </trkpt>
      <trkpt lat="47.7266" lon="6.08445">
        <ele>266.60000610352</ele>
        <time>2012-03-28T08:22:43.000Z</time>
      </trkpt>
      <trkpt lat="47.72661" lon="6.08449">
        <ele>266.60000610352</ele>
        <time>2012-03-28T08:22:44.000Z</time>
      </trkpt>
      <trkpt lat="47.72664" lon="6.0846">
        <ele>266.60000610352</ele>
        <time>2012-03-28T08:22:49.000Z</time>
      </trkpt>
      <trkpt lat="47.72667" lon="6.08472">
        <ele>266.60000610352</ele>
        <time>2012-03-28T08:22:54.000Z</time>
      </trkpt>
      <trkpt lat="47.72672" lon="6.08489">
        <ele>266.60000610352</ele>
        <time>2012-03-28T08:23:01.000Z</time>
      </trkpt>
      <trkpt lat="47.72673" lon="6.08491">
        <ele>266.60000610352</ele>
        <time>2012-03-28T08:23:02.000Z</time>
      </trkpt>
      <trkpt lat="47.72679" lon="6.08508">
        <ele>266.60000610352</ele>
        <time>2012-03-28T08:23:09.000Z</time>
      </trkpt>
      <trkpt lat="47.72686" lon="6.08529">
        <ele>266.60000610352</ele>
        <time>2012-03-28T08:23:13.000Z</time>
      </trkpt>
      <trkpt lat="47.7269" lon="6.08542">
        <ele>266.20001220703</ele>
        <time>2012-03-28T08:23:16.000Z</time>
      </trkpt>
      <trkpt lat="47.72691" lon="6.08545">
        <ele>265.79998779297</ele>
        <time>2012-03-28T08:23:17.000Z</time>
      </trkpt>
      <trkpt lat="47.72691" lon="6.08548">
        <ele>265.39999389648</ele>
        <time>2012-03-28T08:23:18.000Z</time>
      </trkpt>
      <trkpt lat="47.72693" lon="6.08551">
        <ele>265</ele>
        <time>2012-03-28T08:23:19.000Z</time>
      </trkpt>
      <trkpt lat="47.72694" lon="6.08554">
        <ele>264.60000610352</ele>
        <time>2012-03-28T08:23:20.000Z</time>
      </trkpt>
      <trkpt lat="47.72698" lon="6.08561">
        <ele>264.60000610352</ele>
        <time>2012-03-28T08:23:24.000Z</time>
      </trkpt>
      <trkpt lat="47.72703" lon="6.0857">
        <ele>264.60000610352</ele>
        <time>2012-03-28T08:23:30.000Z</time>
      </trkpt>
      <trkpt lat="47.72703" lon="6.08572">
        <ele>264.60000610352</ele>
        <time>2012-03-28T08:23:31.000Z</time>
      </trkpt>
      <trkpt lat="47.72701" lon="6.0859">
        <ele>264.60000610352</ele>
        <time>2012-03-28T08:23:39.000Z</time>
      </trkpt>
      <trkpt lat="47.72701" lon="6.08599">
        <ele>265</ele>
        <time>2012-03-28T08:23:43.000Z</time>
      </trkpt>
      <trkpt lat="47.727" lon="6.086">
        <ele>265.39999389648</ele>
        <time>2012-03-28T08:23:44.000Z</time>
      </trkpt>
      <trkpt lat="47.727" lon="6.08601">
        <ele>266.20001220703</ele>
        <time>2012-03-28T08:23:45.000Z</time>
      </trkpt>
      <trkpt lat="47.727" lon="6.08602">
        <ele>266.60000610352</ele>
        <time>2012-03-28T08:23:46.000Z</time>
      </trkpt>
      <trkpt lat="47.727" lon="6.08603">
        <ele>266.60000610352</ele>
        <time>2012-03-28T08:23:47.000Z</time>
      </trkpt>
      <trkpt lat="47.72699" lon="6.08604">
        <ele>266.79998779297</ele>
        <time>2012-03-28T08:23:54.000Z</time>
      </trkpt>
      <trkpt lat="47.72699" lon="6.08605">
        <ele>267.20001220703</ele>
        <time>2012-03-28T08:23:55.000Z</time>
      </trkpt>
      <trkpt lat="47.72699" lon="6.08606">
        <ele>267.39999389648</ele>
        <time>2012-03-28T08:23:56.000Z</time>
      </trkpt>
      <trkpt lat="47.72699" lon="6.08608">
        <ele>267.39999389648</ele>
        <time>2012-03-28T08:23:58.000Z</time>
      </trkpt>
      <trkpt lat="47.727" lon="6.08608">
        <ele>267.39999389648</ele>
        <time>2012-03-28T08:23:59.000Z</time>
      </trkpt>
      <trkpt lat="47.727" lon="6.08608">
        <ele>267.39999389648</ele>
        <time>2012-03-28T08:24:25.000Z</time>
      </trkpt>
      <trkpt lat="47.72701" lon="6.08607">
        <ele>267.39999389648</ele>
        <time>2012-03-28T08:24:27.000Z</time>
      </trkpt>
      <trkpt lat="47.72701" lon="6.08607">
        <ele>267.39999389648</ele>
        <time>2012-03-28T08:24:28.000Z</time>
      </trkpt>
      <trkpt lat="47.727" lon="6.08608">
        <ele>267.39999389648</ele>
        <time>2012-03-28T08:24:29.000Z</time>
      </trkpt>
      <trkpt lat="47.727" lon="6.08608">
        <ele>267.39999389648</ele>
        <time>2012-03-28T08:24:30.000Z</time>
      </trkpt>
      <trkpt lat="47.727" lon="6.08609">
        <ele>267.39999389648</ele>
        <time>2012-03-28T08:24:31.000Z</time>
      </trkpt>
      <trkpt lat="47.727" lon="6.0861">
        <ele>267.39999389648</ele>
        <time>2012-03-28T08:24:33.000Z</time>
      </trkpt>
      <trkpt lat="47.72701" lon="6.08609">
        <ele>267.39999389648</ele>
        <time>2012-03-28T08:25:16.000Z</time>
      </trkpt>
      <trkpt lat="47.72701" lon="6.0861">
        <ele>267.39999389648</ele>
        <time>2012-03-28T08:25:17.000Z</time>
      </trkpt>
      <trkpt lat="47.72702" lon="6.08613">
        <ele>267.39999389648</ele>
        <time>2012-03-28T08:25:19.000Z</time>
      </trkpt>
      <trkpt lat="47.72704" lon="6.08616">
        <ele>267.39999389648</ele>
        <time>2012-03-28T08:25:23.000Z</time>
      </trkpt>
      <trkpt lat="47.72704" lon="6.08616">
        <ele>267.39999389648</ele>
        <time>2012-03-28T08:25:29.000Z</time>
      </trkpt>
      <trkpt lat="47.72704" lon="6.08616">
        <ele>267.39999389648</ele>
        <time>2012-03-28T08:25:30.000Z</time>
      </trkpt>
      <trkpt lat="47.72708" lon="6.0862">
        <ele>267.39999389648</ele>
        <time>2012-03-28T08:25:33.000Z</time>
      </trkpt>
      <trkpt lat="47.7271" lon="6.08623">
        <ele>267.39999389648</ele>
        <time>2012-03-28T08:25:34.000Z</time>
      </trkpt>
      <trkpt lat="47.72718" lon="6.08637">
        <ele>267.39999389648</ele>
        <time>2012-03-28T08:25:38.000Z</time>
      </trkpt>
      <trkpt lat="47.72732" lon="6.08658">
        <ele>267.39999389648</ele>
        <time>2012-03-28T08:25:43.000Z</time>
      </trkpt>
      <trkpt lat="47.72749" lon="6.0868">
        <ele>267.39999389648</ele>
        <time>2012-03-28T08:25:49.000Z</time>
      </trkpt>
      <trkpt lat="47.72763" lon="6.08692">
        <ele>267.39999389648</ele>
        <time>2012-03-28T08:25:54.000Z</time>
      </trkpt>
      <trkpt lat="47.72771" lon="6.08706">
        <ele>267.39999389648</ele>
        <time>2012-03-28T08:25:59.000Z</time>
      </trkpt>
      <trkpt lat="47.72778" lon="6.08719">
        <ele>267.39999389648</ele>
        <time>2012-03-28T08:26:04.000Z</time>
      </trkpt>
      <trkpt lat="47.72786" lon="6.08734">
        <ele>267.39999389648</ele>
        <time>2012-03-28T08:26:12.000Z</time>
      </trkpt>
      <trkpt lat="47.72793" lon="6.08746">
        <ele>267.39999389648</ele>
        <time>2012-03-28T08:26:20.000Z</time>
      </trkpt>
      <trkpt lat="47.72799" lon="6.08757">
        <ele>267.39999389648</ele>
        <time>2012-03-28T08:26:25.000Z</time>
      </trkpt>
      <trkpt lat="47.72811" lon="6.08778">
        <ele>267</ele>
        <time>2012-03-28T08:26:30.000Z</time>
      </trkpt>
      <trkpt lat="47.72814" lon="6.08782">
        <ele>266.60000610352</ele>
        <time>2012-03-28T08:26:31.000Z</time>
      </trkpt>
      <trkpt lat="47.72817" lon="6.08786">
        <ele>266.20001220703</ele>
        <time>2012-03-28T08:26:32.000Z</time>
      </trkpt>
      <trkpt lat="47.72821" lon="6.08789">
        <ele>265.79998779297</ele>
        <time>2012-03-28T08:26:33.000Z</time>
      </trkpt>
      <trkpt lat="47.72824" lon="6.08792">
        <ele>265.39999389648</ele>
        <time>2012-03-28T08:26:34.000Z</time>
      </trkpt>
      <trkpt lat="47.72831" lon="6.08797">
        <ele>265.39999389648</ele>
        <time>2012-03-28T08:26:36.000Z</time>
      </trkpt>
      <trkpt lat="47.72842" lon="6.08805">
        <ele>265</ele>
        <time>2012-03-28T08:26:40.000Z</time>
      </trkpt>
      <trkpt lat="47.72844" lon="6.08807">
        <ele>264.39999389648</ele>
        <time>2012-03-28T08:26:41.000Z</time>
      </trkpt>
      <trkpt lat="47.72846" lon="6.08809">
        <ele>264</ele>
        <time>2012-03-28T08:26:42.000Z</time>
      </trkpt>
      <trkpt lat="47.72848" lon="6.0881">
        <ele>263.60000610352</ele>
        <time>2012-03-28T08:26:43.000Z</time>
      </trkpt>
      <trkpt lat="47.7285" lon="6.08812">
        <ele>263.20001220703</ele>
        <time>2012-03-28T08:26:44.000Z</time>
      </trkpt>
      <trkpt lat="47.72862" lon="6.08823">
        <ele>263.20001220703</ele>
        <time>2012-03-28T08:26:49.000Z</time>
      </trkpt>
      <trkpt lat="47.72877" lon="6.08842">
        <ele>263.20001220703</ele>
        <time>2012-03-28T08:26:57.000Z</time>
      </trkpt>
      <trkpt lat="47.7289" lon="6.08858">
        <ele>263.20001220703</ele>
        <time>2012-03-28T08:27:04.000Z</time>
      </trkpt>
      <trkpt lat="47.72905" lon="6.08881">
        <ele>263.20001220703</ele>
        <time>2012-03-28T08:27:13.000Z</time>
      </trkpt>
      <trkpt lat="47.72918" lon="6.08898">
        <ele>263.20001220703</ele>
        <time>2012-03-28T08:27:21.000Z</time>
      </trkpt>
      <trkpt lat="47.72929" lon="6.08913">
        <ele>263.20001220703</ele>
        <time>2012-03-28T08:27:29.000Z</time>
      </trkpt>
      <trkpt lat="47.72936" lon="6.08923">
        <ele>263.20001220703</ele>
        <time>2012-03-28T08:27:35.000Z</time>
      </trkpt>
      <trkpt lat="47.72942" lon="6.08927">
        <ele>263.20001220703</ele>
        <time>2012-03-28T08:27:40.000Z</time>
      </trkpt>
      <trkpt lat="47.7295" lon="6.08931">
        <ele>263.20001220703</ele>
        <time>2012-03-28T08:27:45.000Z</time>
      </trkpt>
      <trkpt lat="47.72952" lon="6.08932">
        <ele>263.20001220703</ele>
        <time>2012-03-28T08:27:46.000Z</time>
      </trkpt>
      <trkpt lat="47.72956" lon="6.08933">
        <ele>263.20001220703</ele>
        <time>2012-03-28T08:27:49.000Z</time>
      </trkpt>
      <trkpt lat="47.72957" lon="6.08931">
        <ele>263.20001220703</ele>
        <time>2012-03-28T08:27:51.000Z</time>
      </trkpt>
      <trkpt lat="47.72958" lon="6.08931">
        <ele>263.20001220703</ele>
        <time>2012-03-28T08:28:02.000Z</time>
      </trkpt>
      <trkpt lat="47.72968" lon="6.08927">
        <ele>263.20001220703</ele>
        <time>2012-03-28T08:28:09.000Z</time>
      </trkpt>
      <trkpt lat="47.72978" lon="6.08915">
        <ele>263.20001220703</ele>
        <time>2012-03-28T08:28:16.000Z</time>
      </trkpt>
      <trkpt lat="47.72989" lon="6.08908">
        <ele>263.20001220703</ele>
        <time>2012-03-28T08:28:22.000Z</time>
      </trkpt>
      <trkpt lat="47.72998" lon="6.08906">
        <ele>263.20001220703</ele>
        <time>2012-03-28T08:28:28.000Z</time>
      </trkpt>
      <trkpt lat="47.73005" lon="6.08906">
        <ele>263.20001220703</ele>
        <time>2012-03-28T08:28:33.000Z</time>
      </trkpt>
      <trkpt lat="47.73011" lon="6.08913">
        <ele>263.20001220703</ele>
        <time>2012-03-28T08:28:38.000Z</time>
      </trkpt>
      <trkpt lat="47.73019" lon="6.08925">
        <ele>263.20001220703</ele>
        <time>2012-03-28T08:28:44.000Z</time>
      </trkpt>
      <trkpt lat="47.73026" lon="6.08934">
        <ele>263.20001220703</ele>
        <time>2012-03-28T08:28:49.000Z</time>
      </trkpt>
      <trkpt lat="47.73035" lon="6.08947">
        <ele>263.20001220703</ele>
        <time>2012-03-28T08:28:56.000Z</time>
      </trkpt>
      <trkpt lat="47.73042" lon="6.0896">
        <ele>263.60000610352</ele>
        <time>2012-03-28T08:29:02.000Z</time>
      </trkpt>
      <trkpt lat="47.73043" lon="6.08962">
        <ele>264</ele>
        <time>2012-03-28T08:29:03.000Z</time>
      </trkpt>
      <trkpt lat="47.73044" lon="6.08964">
        <ele>264.79998779297</ele>
        <time>2012-03-28T08:29:04.000Z</time>
      </trkpt>
      <trkpt lat="47.73045" lon="6.08966">
        <ele>265.20001220703</ele>
        <time>2012-03-28T08:29:05.000Z</time>
      </trkpt>
      <trkpt lat="47.73051" lon="6.08976">
        <ele>265.20001220703</ele>
        <time>2012-03-28T08:29:10.000Z</time>
      </trkpt>
      <trkpt lat="47.73059" lon="6.08995">
        <ele>265.20001220703</ele>
        <time>2012-03-28T08:29:18.000Z</time>
      </trkpt>
      <trkpt lat="47.73068" lon="6.09008">
        <ele>265.20001220703</ele>
        <time>2012-03-28T08:29:26.000Z</time>
      </trkpt>
      <trkpt lat="47.7307" lon="6.09012">
        <ele>266</ele>
        <time>2012-03-28T08:29:28.000Z</time>
      </trkpt>
      <trkpt lat="47.73072" lon="6.09013">
        <ele>266.60000610352</ele>
        <time>2012-03-28T08:29:29.000Z</time>
      </trkpt>
      <trkpt lat="47.73073" lon="6.09015">
        <ele>267</ele>
        <time>2012-03-28T08:29:30.000Z</time>
      </trkpt>
      <trkpt lat="47.73074" lon="6.09017">
        <ele>267.39999389648</ele>
        <time>2012-03-28T08:29:31.000Z</time>
      </trkpt>
      <trkpt lat="47.73084" lon="6.09029">
        <ele>267.39999389648</ele>
        <time>2012-03-28T08:29:39.000Z</time>
      </trkpt>
      <trkpt lat="47.73093" lon="6.09039">
        <ele>267.39999389648</ele>
        <time>2012-03-28T08:29:45.000Z</time>
      </trkpt>
      <trkpt lat="47.73103" lon="6.0905">
        <ele>267.39999389648</ele>
        <time>2012-03-28T08:29:51.000Z</time>
      </trkpt>
      <trkpt lat="47.73119" lon="6.09065">
        <ele>267.39999389648</ele>
        <time>2012-03-28T08:29:59.000Z</time>
      </trkpt>
      <trkpt lat="47.73132" lon="6.09077">
        <ele>267.39999389648</ele>
        <time>2012-03-28T08:30:05.000Z</time>
      </trkpt>
      <trkpt lat="47.73151" lon="6.09085">
        <ele>267.39999389648</ele>
        <time>2012-03-28T08:30:12.000Z</time>
      </trkpt>
      <trkpt lat="47.7317" lon="6.09094">
        <ele>267.39999389648</ele>
        <time>2012-03-28T08:30:17.000Z</time>
      </trkpt>
      <trkpt lat="47.73174" lon="6.09099">
        <ele>266.39999389648</ele>
        <time>2012-03-28T08:30:18.000Z</time>
      </trkpt>
      <trkpt lat="47.73178" lon="6.09104">
        <ele>266</ele>
        <time>2012-03-28T08:30:19.000Z</time>
      </trkpt>
      <trkpt lat="47.73182" lon="6.0911">
        <ele>265.60000610352</ele>
        <time>2012-03-28T08:30:20.000Z</time>
      </trkpt>
      <trkpt lat="47.73186" lon="6.09117">
        <ele>265.20001220703</ele>
        <time>2012-03-28T08:30:21.000Z</time>
      </trkpt>
      <trkpt lat="47.73189" lon="6.09126">
        <ele>264.79998779297</ele>
        <time>2012-03-28T08:30:22.000Z</time>
      </trkpt>
      <trkpt lat="47.73191" lon="6.09135">
        <ele>264.39999389648</ele>
        <time>2012-03-28T08:30:23.000Z</time>
      </trkpt>
      <trkpt lat="47.73193" lon="6.09144">
        <ele>264</ele>
        <time>2012-03-28T08:30:24.000Z</time>
      </trkpt>
      <trkpt lat="47.73196" lon="6.09152">
        <ele>263.60000610352</ele>
        <time>2012-03-28T08:30:25.000Z</time>
      </trkpt>
      <trkpt lat="47.73198" lon="6.09159">
        <ele>263.20001220703</ele>
        <time>2012-03-28T08:30:26.000Z</time>
      </trkpt>
      <trkpt lat="47.73208" lon="6.09171">
        <ele>263.20001220703</ele>
        <time>2012-03-28T08:30:29.000Z</time>
      </trkpt>
      <trkpt lat="47.73219" lon="6.09163">
        <ele>263.20001220703</ele>
        <time>2012-03-28T08:30:32.000Z</time>
      </trkpt>
      <trkpt lat="47.73245" lon="6.09134">
        <ele>263.20001220703</ele>
        <time>2012-03-28T08:30:38.000Z</time>
      </trkpt>
      <trkpt lat="47.73249" lon="6.09128">
        <ele>262.60000610352</ele>
        <time>2012-03-28T08:30:39.000Z</time>
      </trkpt>
      <trkpt lat="47.73254" lon="6.09122">
        <ele>262.20001220703</ele>
        <time>2012-03-28T08:30:40.000Z</time>
      </trkpt>
      <trkpt lat="47.73258" lon="6.09116">
        <ele>261.60000610352</ele>
        <time>2012-03-28T08:30:41.000Z</time>
      </trkpt>
      <trkpt lat="47.73262" lon="6.0911">
        <ele>261.20001220703</ele>
        <time>2012-03-28T08:30:42.000Z</time>
      </trkpt>
      <trkpt lat="47.73265" lon="6.09104">
        <ele>260.79998779297</ele>
        <time>2012-03-28T08:30:43.000Z</time>
      </trkpt>
      <trkpt lat="47.73269" lon="6.09097">
        <ele>260.79998779297</ele>
        <time>2012-03-28T08:30:44.000Z</time>
      </trkpt>
      <trkpt lat="47.73282" lon="6.09076">
        <ele>260.79998779297</ele>
        <time>2012-03-28T08:30:48.000Z</time>
      </trkpt>
      <trkpt lat="47.73288" lon="6.09067">
        <ele>260.79998779297</ele>
        <time>2012-03-28T08:30:50.000Z</time>
      </trkpt>
      <trkpt lat="47.73302" lon="6.0904">
        <ele>260.79998779297</ele>
        <time>2012-03-28T08:30:56.000Z</time>
      </trkpt>
      <trkpt lat="47.73304" lon="6.09037">
        <ele>260.79998779297</ele>
        <time>2012-03-28T08:30:57.000Z</time>
      </trkpt>
      <trkpt lat="47.73309" lon="6.09032">
        <ele>260.20001220703</ele>
        <time>2012-03-28T08:30:59.000Z</time>
      </trkpt>
      <trkpt lat="47.73312" lon="6.09028">
        <ele>259.79998779297</ele>
        <time>2012-03-28T08:31:00.000Z</time>
      </trkpt>
      <trkpt lat="47.73315" lon="6.09025">
        <ele>259.39999389648</ele>
        <time>2012-03-28T08:31:01.000Z</time>
      </trkpt>
      <trkpt lat="47.73317" lon="6.0902">
        <ele>259</ele>
        <time>2012-03-28T08:31:02.000Z</time>
      </trkpt>
      <trkpt lat="47.7332" lon="6.09016">
        <ele>258.60000610352</ele>
        <time>2012-03-28T08:31:03.000Z</time>
      </trkpt>
      <trkpt lat="47.73326" lon="6.09005">
        <ele>258</ele>
        <time>2012-03-28T08:31:05.000Z</time>
      </trkpt>
      <trkpt lat="47.73329" lon="6.09001">
        <ele>257.60000610352</ele>
        <time>2012-03-28T08:31:06.000Z</time>
      </trkpt>
      <trkpt lat="47.73333" lon="6.08996">
        <ele>257.20001220703</ele>
        <time>2012-03-28T08:31:07.000Z</time>
      </trkpt>
      <trkpt lat="47.73336" lon="6.0899">
        <ele>256.20001220703</ele>
        <time>2012-03-28T08:31:08.000Z</time>
      </trkpt>
      <trkpt lat="47.73345" lon="6.08975">
        <ele>256.20001220703</ele>
        <time>2012-03-28T08:31:11.000Z</time>
      </trkpt>
      <trkpt lat="47.7335" lon="6.08964">
        <ele>255.80000305176</ele>
        <time>2012-03-28T08:31:13.000Z</time>
      </trkpt>
      <trkpt lat="47.73352" lon="6.08959">
        <ele>255.39999389648</ele>
        <time>2012-03-28T08:31:14.000Z</time>
      </trkpt>
      <trkpt lat="47.73354" lon="6.08955">
        <ele>255</ele>
        <time>2012-03-28T08:31:15.000Z</time>
      </trkpt>
      <trkpt lat="47.73356" lon="6.08951">
        <ele>254.60000610352</ele>
        <time>2012-03-28T08:31:16.000Z</time>
      </trkpt>
      <trkpt lat="47.73358" lon="6.08947">
        <ele>254.19999694824</ele>
        <time>2012-03-28T08:31:17.000Z</time>
      </trkpt>
      <trkpt lat="47.73362" lon="6.08937">
        <ele>253.80000305176</ele>
        <time>2012-03-28T08:31:19.000Z</time>
      </trkpt>
      <trkpt lat="47.73363" lon="6.08932">
        <ele>253.39999389648</ele>
        <time>2012-03-28T08:31:20.000Z</time>
      </trkpt>
      <trkpt lat="47.73365" lon="6.08925">
        <ele>252.80000305176</ele>
        <time>2012-03-28T08:31:21.000Z</time>
      </trkpt>
      <trkpt lat="47.73364" lon="6.08919">
        <ele>252.39999389648</ele>
        <time>2012-03-28T08:31:22.000Z</time>
      </trkpt>
      <trkpt lat="47.73364" lon="6.08913">
        <ele>252</ele>
        <time>2012-03-28T08:31:23.000Z</time>
      </trkpt>
      <trkpt lat="47.73362" lon="6.08907">
        <ele>251.60000610352</ele>
        <time>2012-03-28T08:31:24.000Z</time>
      </trkpt>
      <trkpt lat="47.7336" lon="6.08902">
        <ele>251.19999694824</ele>
        <time>2012-03-28T08:31:25.000Z</time>
      </trkpt>
      <trkpt lat="47.73357" lon="6.08896">
        <ele>250.60000610352</ele>
        <time>2012-03-28T08:31:26.000Z</time>
      </trkpt>
      <trkpt lat="47.73355" lon="6.0889">
        <ele>250.19999694824</ele>
        <time>2012-03-28T08:31:27.000Z</time>
      </trkpt>
      <trkpt lat="47.73352" lon="6.08884">
        <ele>249.60000610352</ele>
        <time>2012-03-28T08:31:28.000Z</time>
      </trkpt>
      <trkpt lat="47.73348" lon="6.08877">
        <ele>249.19999694824</ele>
        <time>2012-03-28T08:31:29.000Z</time>
      </trkpt>
      <trkpt lat="47.73345" lon="6.08871">
        <ele>248.60000610352</ele>
        <time>2012-03-28T08:31:30.000Z</time>
      </trkpt>
      <trkpt lat="47.73342" lon="6.08865">
        <ele>248</ele>
        <time>2012-03-28T08:31:31.000Z</time>
      </trkpt>
      <trkpt lat="47.73339" lon="6.08859">
        <ele>247</ele>
        <time>2012-03-28T08:31:32.000Z</time>
      </trkpt>
      <trkpt lat="47.73337" lon="6.08853">
        <ele>246.39999389648</ele>
        <time>2012-03-28T08:31:33.000Z</time>
      </trkpt>
      <trkpt lat="47.73336" lon="6.08846">
        <ele>246</ele>
        <time>2012-03-28T08:31:34.000Z</time>
      </trkpt>
      <trkpt lat="47.73335" lon="6.08839">
        <ele>245.39999389648</ele>
        <time>2012-03-28T08:31:35.000Z</time>
      </trkpt>
      <trkpt lat="47.73334" lon="6.08833">
        <ele>245</ele>
        <time>2012-03-28T08:31:36.000Z</time>
      </trkpt>
      <trkpt lat="47.73334" lon="6.08825">
        <ele>244.60000610352</ele>
        <time>2012-03-28T08:31:37.000Z</time>
      </trkpt>
      <trkpt lat="47.73334" lon="6.08819">
        <ele>244.19999694824</ele>
        <time>2012-03-28T08:31:38.000Z</time>
      </trkpt>
      <trkpt lat="47.73334" lon="6.08814">
        <ele>243.60000610352</ele>
        <time>2012-03-28T08:31:39.000Z</time>
      </trkpt>
      <trkpt lat="47.73334" lon="6.08808">
        <ele>243.19999694824</ele>
        <time>2012-03-28T08:31:40.000Z</time>
      </trkpt>
      <trkpt lat="47.73334" lon="6.08804">
        <ele>243.19999694824</ele>
        <time>2012-03-28T08:31:41.000Z</time>
      </trkpt>
      <trkpt lat="47.7334" lon="6.08781">
        <ele>243.19999694824</ele>
        <time>2012-03-28T08:31:46.000Z</time>
      </trkpt>
      <trkpt lat="47.73344" lon="6.08768">
        <ele>242.80000305176</ele>
        <time>2012-03-28T08:31:49.000Z</time>
      </trkpt>
      <trkpt lat="47.73345" lon="6.08764">
        <ele>242.39999389648</ele>
        <time>2012-03-28T08:31:50.000Z</time>
      </trkpt>
      <trkpt lat="47.73347" lon="6.08759">
        <ele>242</ele>
        <time>2012-03-28T08:31:51.000Z</time>
      </trkpt>
      <trkpt lat="47.73349" lon="6.08754">
        <ele>241.60000610352</ele>
        <time>2012-03-28T08:31:52.000Z</time>
      </trkpt>
      <trkpt lat="47.7335" lon="6.08749">
        <ele>241.19999694824</ele>
        <time>2012-03-28T08:31:53.000Z</time>
      </trkpt>
      <trkpt lat="47.73357" lon="6.08728">
        <ele>240.80000305176</ele>
        <time>2012-03-28T08:31:57.000Z</time>
      </trkpt>
      <trkpt lat="47.73359" lon="6.08724">
        <ele>240.19999694824</ele>
        <time>2012-03-28T08:31:58.000Z</time>
      </trkpt>
      <trkpt lat="47.73361" lon="6.0872">
        <ele>239.80000305176</ele>
        <time>2012-03-28T08:31:59.000Z</time>
      </trkpt>
      <trkpt lat="47.73363" lon="6.08717">
        <ele>239.39999389648</ele>
        <time>2012-03-28T08:32:00.000Z</time>
      </trkpt>
      <trkpt lat="47.73364" lon="6.08714">
        <ele>239</ele>
        <time>2012-03-28T08:32:01.000Z</time>
      </trkpt>
      <trkpt lat="47.73366" lon="6.08711">
        <ele>239</ele>
        <time>2012-03-28T08:32:02.000Z</time>
      </trkpt>
      <trkpt lat="47.73376" lon="6.08698">
        <ele>239</ele>
        <time>2012-03-28T08:32:08.000Z</time>
      </trkpt>
      <trkpt lat="47.73385" lon="6.08686">
        <ele>239</ele>
        <time>2012-03-28T08:32:13.000Z</time>
      </trkpt>
      <trkpt lat="47.73396" lon="6.08679">
        <ele>239</ele>
        <time>2012-03-28T08:32:18.000Z</time>
      </trkpt>
      <trkpt lat="47.73404" lon="6.08671">
        <ele>239</ele>
        <time>2012-03-28T08:32:22.000Z</time>
      </trkpt>
      <trkpt lat="47.73406" lon="6.08669">
        <ele>238.60000610352</ele>
        <time>2012-03-28T08:32:24.000Z</time>
      </trkpt>
      <trkpt lat="47.73408" lon="6.08667">
        <ele>238.19999694824</ele>
        <time>2012-03-28T08:32:25.000Z</time>
      </trkpt>
      <trkpt lat="47.7341" lon="6.08666">
        <ele>237.80000305176</ele>
        <time>2012-03-28T08:32:26.000Z</time>
      </trkpt>
      <trkpt lat="47.73413" lon="6.08665">
        <ele>237.39999389648</ele>
        <time>2012-03-28T08:32:27.000Z</time>
      </trkpt>
      <trkpt lat="47.73415" lon="6.08663">
        <ele>237</ele>
        <time>2012-03-28T08:32:28.000Z</time>
      </trkpt>
      <trkpt lat="47.73432" lon="6.08645">
        <ele>236.39999389648</ele>
        <time>2012-03-28T08:32:34.000Z</time>
      </trkpt>
      <trkpt lat="47.73434" lon="6.08641">
        <ele>236</ele>
        <time>2012-03-28T08:32:35.000Z</time>
      </trkpt>
      <trkpt lat="47.73436" lon="6.08639">
        <ele>235.60000610352</ele>
        <time>2012-03-28T08:32:36.000Z</time>
      </trkpt>
      <trkpt lat="47.73437" lon="6.08637">
        <ele>235.19999694824</ele>
        <time>2012-03-28T08:32:37.000Z</time>
      </trkpt>
      <trkpt lat="47.73439" lon="6.08635">
        <ele>234.80000305176</ele>
        <time>2012-03-28T08:32:38.000Z</time>
      </trkpt>
      <trkpt lat="47.73441" lon="6.0863">
        <ele>234.80000305176</ele>
        <time>2012-03-28T08:32:40.000Z</time>
      </trkpt>
      <trkpt lat="47.73452" lon="6.08618">
        <ele>234.80000305176</ele>
        <time>2012-03-28T08:32:46.000Z</time>
      </trkpt>
      <trkpt lat="47.73465" lon="6.08601">
        <ele>234.80000305176</ele>
        <time>2012-03-28T08:32:53.000Z</time>
      </trkpt>
      <trkpt lat="47.7348" lon="6.0858">
        <ele>234.80000305176</ele>
        <time>2012-03-28T08:33:01.000Z</time>
      </trkpt>
      <trkpt lat="47.73494" lon="6.08561">
        <ele>234.80000305176</ele>
        <time>2012-03-28T08:33:08.000Z</time>
      </trkpt>
      <trkpt lat="47.73504" lon="6.08543">
        <ele>234.80000305176</ele>
        <time>2012-03-28T08:33:14.000Z</time>
      </trkpt>
      <trkpt lat="47.73515" lon="6.08525">
        <ele>234.80000305176</ele>
        <time>2012-03-28T08:33:21.000Z</time>
      </trkpt>
      <trkpt lat="47.73528" lon="6.08509">
        <ele>234.80000305176</ele>
        <time>2012-03-28T08:33:27.000Z</time>
      </trkpt>
      <trkpt lat="47.73539" lon="6.08501">
        <ele>234.39999389648</ele>
        <time>2012-03-28T08:33:31.000Z</time>
      </trkpt>
      <trkpt lat="47.73542" lon="6.08499">
        <ele>234</ele>
        <time>2012-03-28T08:33:32.000Z</time>
      </trkpt>
      <trkpt lat="47.73544" lon="6.08499">
        <ele>233.60000610352</ele>
        <time>2012-03-28T08:33:33.000Z</time>
      </trkpt>
      <trkpt lat="47.73546" lon="6.08498">
        <ele>233.19999694824</ele>
        <time>2012-03-28T08:33:34.000Z</time>
      </trkpt>
      <trkpt lat="47.73549" lon="6.08497">
        <ele>232.80000305176</ele>
        <time>2012-03-28T08:33:35.000Z</time>
      </trkpt>
      <trkpt lat="47.73563" lon="6.08492">
        <ele>232.80000305176</ele>
        <time>2012-03-28T08:33:41.000Z</time>
      </trkpt>
      <trkpt lat="47.73578" lon="6.08488">
        <ele>232.80000305176</ele>
        <time>2012-03-28T08:33:48.000Z</time>
      </trkpt>
      <trkpt lat="47.7359" lon="6.08483">
        <ele>232.80000305176</ele>
        <time>2012-03-28T08:33:54.000Z</time>
      </trkpt>
      <trkpt lat="47.73602" lon="6.08479">
        <ele>232.80000305176</ele>
        <time>2012-03-28T08:34:00.000Z</time>
      </trkpt>
      <trkpt lat="47.73619" lon="6.08474">
        <ele>232.80000305176</ele>
        <time>2012-03-28T08:34:06.000Z</time>
      </trkpt>
      <trkpt lat="47.73636" lon="6.08468">
        <ele>232.80000305176</ele>
        <time>2012-03-28T08:34:12.000Z</time>
      </trkpt>
      <trkpt lat="47.73648" lon="6.08461">
        <ele>232.80000305176</ele>
        <time>2012-03-28T08:34:17.000Z</time>
      </trkpt>
      <trkpt lat="47.73667" lon="6.08448">
        <ele>232.80000305176</ele>
        <time>2012-03-28T08:34:24.000Z</time>
      </trkpt>
      <trkpt lat="47.73672" lon="6.08443">
        <ele>232.39999389648</ele>
        <time>2012-03-28T08:34:26.000Z</time>
      </trkpt>
      <trkpt lat="47.73675" lon="6.0844">
        <ele>232</ele>
        <time>2012-03-28T08:34:27.000Z</time>
      </trkpt>
      <trkpt lat="47.73677" lon="6.08438">
        <ele>231.60000610352</ele>
        <time>2012-03-28T08:34:28.000Z</time>
      </trkpt>
      <trkpt lat="47.7368" lon="6.08436">
        <ele>231.19999694824</ele>
        <time>2012-03-28T08:34:29.000Z</time>
      </trkpt>
      <trkpt lat="47.73683" lon="6.08433">
        <ele>230.80000305176</ele>
        <time>2012-03-28T08:34:30.000Z</time>
      </trkpt>
      <trkpt lat="47.73688" lon="6.08427">
        <ele>230.80000305176</ele>
        <time>2012-03-28T08:34:32.000Z</time>
      </trkpt>
      <trkpt lat="47.737" lon="6.08411">
        <ele>230.80000305176</ele>
        <time>2012-03-28T08:34:37.000Z</time>
      </trkpt>
      <trkpt lat="47.73716" lon="6.08394">
        <ele>230.80000305176</ele>
        <time>2012-03-28T08:34:43.000Z</time>
      </trkpt>
      <trkpt lat="47.73728" lon="6.08381">
        <ele>230.80000305176</ele>
        <time>2012-03-28T08:34:48.000Z</time>
      </trkpt>
      <trkpt lat="47.73747" lon="6.08361">
        <ele>230.80000305176</ele>
        <time>2012-03-28T08:34:54.000Z</time>
      </trkpt>
      <trkpt lat="47.73763" lon="6.08331">
        <ele>230.80000305176</ele>
        <time>2012-03-28T08:35:00.000Z</time>
      </trkpt>
      <trkpt lat="47.73777" lon="6.08295">
        <ele>230.80000305176</ele>
        <time>2012-03-28T08:35:07.000Z</time>
      </trkpt>
      <trkpt lat="47.73787" lon="6.08264">
        <ele>230.80000305176</ele>
        <time>2012-03-28T08:35:14.000Z</time>
      </trkpt>
      <trkpt lat="47.73795" lon="6.08254">
        <ele>230.39999389648</ele>
        <time>2012-03-28T08:35:17.000Z</time>
      </trkpt>
      <trkpt lat="47.73797" lon="6.08251">
        <ele>230</ele>
        <time>2012-03-28T08:35:18.000Z</time>
      </trkpt>
      <trkpt lat="47.738" lon="6.08248">
        <ele>229.60000610352</ele>
        <time>2012-03-28T08:35:19.000Z</time>
      </trkpt>
      <trkpt lat="47.73803" lon="6.08245">
        <ele>229.19999694824</ele>
        <time>2012-03-28T08:35:20.000Z</time>
      </trkpt>
      <trkpt lat="47.73806" lon="6.08242">
        <ele>228.80000305176</ele>
        <time>2012-03-28T08:35:21.000Z</time>
      </trkpt>
      <trkpt lat="47.73827" lon="6.08228">
        <ele>228.80000305176</ele>
        <time>2012-03-28T08:35:27.000Z</time>
      </trkpt>
      <trkpt lat="47.73854" lon="6.08211">
        <ele>228.80000305176</ele>
        <time>2012-03-28T08:35:35.000Z</time>
      </trkpt>
      <trkpt lat="47.7387" lon="6.08202">
        <ele>228.80000305176</ele>
        <time>2012-03-28T08:35:41.000Z</time>
      </trkpt>
      <trkpt lat="47.7389" lon="6.08188">
        <ele>228.80000305176</ele>
        <time>2012-03-28T08:35:47.000Z</time>
      </trkpt>
      <trkpt lat="47.73922" lon="6.08171">
        <ele>228.80000305176</ele>
        <time>2012-03-28T08:35:56.000Z</time>
      </trkpt>
      <trkpt lat="47.73952" lon="6.08156">
        <ele>228.80000305176</ele>
        <time>2012-03-28T08:36:05.000Z</time>
      </trkpt>
      <trkpt lat="47.73974" lon="6.08145">
        <ele>228.80000305176</ele>
        <time>2012-03-28T08:36:12.000Z</time>
      </trkpt>
      <trkpt lat="47.74003" lon="6.08135">
        <ele>228.80000305176</ele>
        <time>2012-03-28T08:36:21.000Z</time>
      </trkpt>
      <trkpt lat="47.74023" lon="6.08129">
        <ele>228.80000305176</ele>
        <time>2012-03-28T08:36:27.000Z</time>
      </trkpt>
      <trkpt lat="47.74039" lon="6.08125">
        <ele>228.80000305176</ele>
        <time>2012-03-28T08:36:32.000Z</time>
      </trkpt>
      <trkpt lat="47.74056" lon="6.0812">
        <ele>228.80000305176</ele>
        <time>2012-03-28T08:36:38.000Z</time>
      </trkpt>
      <trkpt lat="47.74081" lon="6.08116">
        <ele>228.80000305176</ele>
        <time>2012-03-28T08:36:45.000Z</time>
      </trkpt>
      <trkpt lat="47.74108" lon="6.08115">
        <ele>228.80000305176</ele>
        <time>2012-03-28T08:36:53.000Z</time>
      </trkpt>
      <trkpt lat="47.74123" lon="6.08115">
        <ele>228.39999389648</ele>
        <time>2012-03-28T08:36:58.000Z</time>
      </trkpt>
      <trkpt lat="47.74126" lon="6.08113">
        <ele>227.80000305176</ele>
        <time>2012-03-28T08:36:59.000Z</time>
      </trkpt>
      <trkpt lat="47.74129" lon="6.08111">
        <ele>227.39999389648</ele>
        <time>2012-03-28T08:37:00.000Z</time>
      </trkpt>
      <trkpt lat="47.74132" lon="6.08109">
        <ele>227</ele>
        <time>2012-03-28T08:37:01.000Z</time>
      </trkpt>
      <trkpt lat="47.74135" lon="6.08106">
        <ele>226.39999389648</ele>
        <time>2012-03-28T08:37:02.000Z</time>
      </trkpt>
      <trkpt lat="47.74146" lon="6.08093">
        <ele>226.39999389648</ele>
        <time>2012-03-28T08:37:06.000Z</time>
      </trkpt>
      <trkpt lat="47.74166" lon="6.08064">
        <ele>226.39999389648</ele>
        <time>2012-03-28T08:37:14.000Z</time>
      </trkpt>
      <trkpt lat="47.74182" lon="6.0804">
        <ele>226.39999389648</ele>
        <time>2012-03-28T08:37:21.000Z</time>
      </trkpt>
      <trkpt lat="47.742" lon="6.08019">
        <ele>226.39999389648</ele>
        <time>2012-03-28T08:37:28.000Z</time>
      </trkpt>
      <trkpt lat="47.74216" lon="6.08017">
        <ele>226.39999389648</ele>
        <time>2012-03-28T08:37:33.000Z</time>
      </trkpt>
      <trkpt lat="47.74237" lon="6.08021">
        <ele>226.39999389648</ele>
        <time>2012-03-28T08:37:40.000Z</time>
      </trkpt>
      <trkpt lat="47.74241" lon="6.08022">
        <ele>227</ele>
        <time>2012-03-28T08:37:42.000Z</time>
      </trkpt>
      <trkpt lat="47.74244" lon="6.08022">
        <ele>227.39999389648</ele>
        <time>2012-03-28T08:37:43.000Z</time>
      </trkpt>
      <trkpt lat="47.74246" lon="6.08023">
        <ele>228.19999694824</ele>
        <time>2012-03-28T08:37:44.000Z</time>
      </trkpt>
      <trkpt lat="47.74248" lon="6.08023">
        <ele>228.60000610352</ele>
        <time>2012-03-28T08:37:45.000Z</time>
      </trkpt>
      <trkpt lat="47.74251" lon="6.08023">
        <ele>228.60000610352</ele>
        <time>2012-03-28T08:37:46.000Z</time>
      </trkpt>
      <trkpt lat="47.74264" lon="6.08025">
        <ele>229</ele>
        <time>2012-03-28T08:37:51.000Z</time>
      </trkpt>
      <trkpt lat="47.74267" lon="6.08025">
        <ele>229.60000610352</ele>
        <time>2012-03-28T08:37:52.000Z</time>
      </trkpt>
      <trkpt lat="47.74269" lon="6.08026">
        <ele>230</ele>
        <time>2012-03-28T08:37:53.000Z</time>
      </trkpt>
      <trkpt lat="47.74272" lon="6.08027">
        <ele>230.39999389648</ele>
        <time>2012-03-28T08:37:54.000Z</time>
      </trkpt>
      <trkpt lat="47.74274" lon="6.08027">
        <ele>230.80000305176</ele>
        <time>2012-03-28T08:37:55.000Z</time>
      </trkpt>
      <trkpt lat="47.74276" lon="6.08027">
        <ele>230.80000305176</ele>
        <time>2012-03-28T08:37:56.000Z</time>
      </trkpt>
      <trkpt lat="47.74287" lon="6.08031">
        <ele>231.19999694824</ele>
        <time>2012-03-28T08:38:01.000Z</time>
      </trkpt>
      <trkpt lat="47.74289" lon="6.08032">
        <ele>231.60000610352</ele>
        <time>2012-03-28T08:38:02.000Z</time>
      </trkpt>
      <trkpt lat="47.74291" lon="6.08033">
        <ele>232</ele>
        <time>2012-03-28T08:38:03.000Z</time>
      </trkpt>
      <trkpt lat="47.74293" lon="6.08034">
        <ele>232.39999389648</ele>
        <time>2012-03-28T08:38:04.000Z</time>
      </trkpt>
      <trkpt lat="47.74294" lon="6.08034">
        <ele>232.80000305176</ele>
        <time>2012-03-28T08:38:05.000Z</time>
      </trkpt>
      <trkpt lat="47.743" lon="6.08036">
        <ele>232.80000305176</ele>
        <time>2012-03-28T08:38:08.000Z</time>
      </trkpt>
      <trkpt lat="47.74305" lon="6.08038">
        <ele>233.19999694824</ele>
        <time>2012-03-28T08:38:10.000Z</time>
      </trkpt>
      <trkpt lat="47.74307" lon="6.08038">
        <ele>233.60000610352</ele>
        <time>2012-03-28T08:38:11.000Z</time>
      </trkpt>
      <trkpt lat="47.74309" lon="6.08039">
        <ele>234</ele>
        <time>2012-03-28T08:38:12.000Z</time>
      </trkpt>
      <trkpt lat="47.74311" lon="6.0804">
        <ele>234.39999389648</ele>
        <time>2012-03-28T08:38:13.000Z</time>
      </trkpt>
      <trkpt lat="47.74313" lon="6.08041">
        <ele>234.80000305176</ele>
        <time>2012-03-28T08:38:14.000Z</time>
      </trkpt>
      <trkpt lat="47.74316" lon="6.08042">
        <ele>234.80000305176</ele>
        <time>2012-03-28T08:38:16.000Z</time>
      </trkpt>
      <trkpt lat="47.74321" lon="6.08041">
        <ele>234.80000305176</ele>
        <time>2012-03-28T08:38:19.000Z</time>
      </trkpt>
      <trkpt lat="47.74325" lon="6.08038">
        <ele>234.80000305176</ele>
        <time>2012-03-28T08:38:21.000Z</time>
      </trkpt>
      <trkpt lat="47.74327" lon="6.08033">
        <ele>234.80000305176</ele>
        <time>2012-03-28T08:38:23.000Z</time>
      </trkpt>
      <trkpt lat="47.74327" lon="6.08031">
        <ele>234.80000305176</ele>
        <time>2012-03-28T08:38:24.000Z</time>
      </trkpt>
      <trkpt lat="47.74324" lon="6.08016">
        <ele>234.80000305176</ele>
        <time>2012-03-28T08:38:29.000Z</time>
      </trkpt>
      <trkpt lat="47.74322" lon="6.07993">
        <ele>234</ele>
        <time>2012-03-28T08:38:33.000Z</time>
      </trkpt>
      <trkpt lat="47.74321" lon="6.07986">
        <ele>233.60000610352</ele>
        <time>2012-03-28T08:38:34.000Z</time>
      </trkpt>
      <trkpt lat="47.7432" lon="6.07978">
        <ele>233.19999694824</ele>
        <time>2012-03-28T08:38:35.000Z</time>
      </trkpt>
      <trkpt lat="47.74319" lon="6.0797">
        <ele>232.80000305176</ele>
        <time>2012-03-28T08:38:36.000Z</time>
      </trkpt>
      <trkpt lat="47.74318" lon="6.07961">
        <ele>232.39999389648</ele>
        <time>2012-03-28T08:38:37.000Z</time>
      </trkpt>
      <trkpt lat="47.74317" lon="6.07952">
        <ele>232</ele>
        <time>2012-03-28T08:38:38.000Z</time>
      </trkpt>
      <trkpt lat="47.74316" lon="6.07943">
        <ele>231.60000610352</ele>
        <time>2012-03-28T08:38:39.000Z</time>
      </trkpt>
      <trkpt lat="47.74315" lon="6.07935">
        <ele>231.19999694824</ele>
        <time>2012-03-28T08:38:40.000Z</time>
      </trkpt>
      <trkpt lat="47.74314" lon="6.07927">
        <ele>230.80000305176</ele>
        <time>2012-03-28T08:38:41.000Z</time>
      </trkpt>
      <trkpt lat="47.74313" lon="6.07919">
        <ele>230.19999694824</ele>
        <time>2012-03-28T08:38:42.000Z</time>
      </trkpt>
      <trkpt lat="47.74312" lon="6.07911">
        <ele>229.80000305176</ele>
        <time>2012-03-28T08:38:43.000Z</time>
      </trkpt>
      <trkpt lat="47.74311" lon="6.07903">
        <ele>229.39999389648</ele>
        <time>2012-03-28T08:38:44.000Z</time>
      </trkpt>
      <trkpt lat="47.74311" lon="6.07894">
        <ele>229</ele>
        <time>2012-03-28T08:38:45.000Z</time>
      </trkpt>
      <trkpt lat="47.7431" lon="6.07886">
        <ele>228.39999389648</ele>
        <time>2012-03-28T08:38:46.000Z</time>
      </trkpt>
      <trkpt lat="47.7431" lon="6.07877">
        <ele>227.80000305176</ele>
        <time>2012-03-28T08:38:47.000Z</time>
      </trkpt>
      <trkpt lat="47.7431" lon="6.07868">
        <ele>227.19999694824</ele>
        <time>2012-03-28T08:38:48.000Z</time>
      </trkpt>
      <trkpt lat="47.74311" lon="6.07858">
        <ele>226.80000305176</ele>
        <time>2012-03-28T08:38:49.000Z</time>
      </trkpt>
      <trkpt lat="47.74313" lon="6.07847">
        <ele>226.19999694824</ele>
        <time>2012-03-28T08:38:50.000Z</time>
      </trkpt>
      <trkpt lat="47.74316" lon="6.07836">
        <ele>225.60000610352</ele>
        <time>2012-03-28T08:38:51.000Z</time>
      </trkpt>
      <trkpt lat="47.7432" lon="6.07825">
        <ele>225</ele>
        <time>2012-03-28T08:38:52.000Z</time>
      </trkpt>
      <trkpt lat="47.74325" lon="6.07816">
        <ele>224.39999389648</ele>
        <time>2012-03-28T08:38:53.000Z</time>
      </trkpt>
      <trkpt lat="47.74332" lon="6.07808">
        <ele>224</ele>
        <time>2012-03-28T08:38:54.000Z</time>
      </trkpt>
      <trkpt lat="47.74338" lon="6.078">
        <ele>223.39999389648</ele>
        <time>2012-03-28T08:38:55.000Z</time>
      </trkpt>
      <trkpt lat="47.74346" lon="6.07795">
        <ele>222.80000305176</ele>
        <time>2012-03-28T08:38:56.000Z</time>
      </trkpt>
      <trkpt lat="47.74353" lon="6.0779">
        <ele>222.19999694824</ele>
        <time>2012-03-28T08:38:57.000Z</time>
      </trkpt>
      <trkpt lat="47.7436" lon="6.07785">
        <ele>221.19999694824</ele>
        <time>2012-03-28T08:38:58.000Z</time>
      </trkpt>
      <trkpt lat="47.74367" lon="6.07781">
        <ele>220.80000305176</ele>
        <time>2012-03-28T08:38:59.000Z</time>
      </trkpt>
      <trkpt lat="47.74375" lon="6.07778">
        <ele>220.39999389648</ele>
        <time>2012-03-28T08:39:00.000Z</time>
      </trkpt>
      <trkpt lat="47.74382" lon="6.07775">
        <ele>219.80000305176</ele>
        <time>2012-03-28T08:39:01.000Z</time>
      </trkpt>
      <trkpt lat="47.74388" lon="6.07773">
        <ele>219.39999389648</ele>
        <time>2012-03-28T08:39:02.000Z</time>
      </trkpt>
      <trkpt lat="47.74395" lon="6.07772">
        <ele>219.39999389648</ele>
        <time>2012-03-28T08:39:03.000Z</time>
      </trkpt>
      <trkpt lat="47.74422" lon="6.07768">
        <ele>219.39999389648</ele>
        <time>2012-03-28T08:39:08.000Z</time>
      </trkpt>
      <trkpt lat="47.74453" lon="6.07769">
        <ele>219.39999389648</ele>
        <time>2012-03-28T08:39:14.000Z</time>
      </trkpt>
      <trkpt lat="47.74462" lon="6.07771">
        <ele>219.39999389648</ele>
        <time>2012-03-28T08:39:16.000Z</time>
      </trkpt>
      <trkpt lat="47.74476" lon="6.07774">
        <ele>219.39999389648</ele>
        <time>2012-03-28T08:39:19.000Z</time>
      </trkpt>
      <trkpt lat="47.74479" lon="6.07777">
        <ele>219.39999389648</ele>
        <time>2012-03-28T08:39:20.000Z</time>
      </trkpt>
      <trkpt lat="47.74495" lon="6.07784">
        <ele>219.39999389648</ele>
        <time>2012-03-28T08:39:24.000Z</time>
      </trkpt>
      <trkpt lat="47.74502" lon="6.07785">
        <ele>219.39999389648</ele>
        <time>2012-03-28T08:39:26.000Z</time>
      </trkpt>
      <trkpt lat="47.74523" lon="6.07786">
        <ele>219.39999389648</ele>
        <time>2012-03-28T08:39:32.000Z</time>
      </trkpt>
      <trkpt lat="47.74536" lon="6.07786">
        <ele>219.80000305176</ele>
        <time>2012-03-28T08:39:36.000Z</time>
      </trkpt>
      <trkpt lat="47.7454" lon="6.07786">
        <ele>220.19999694824</ele>
        <time>2012-03-28T08:39:37.000Z</time>
      </trkpt>
      <trkpt lat="47.74544" lon="6.07786">
        <ele>220.80000305176</ele>
        <time>2012-03-28T08:39:38.000Z</time>
      </trkpt>
      <trkpt lat="47.74547" lon="6.07786">
        <ele>221.19999694824</ele>
        <time>2012-03-28T08:39:39.000Z</time>
      </trkpt>
      <trkpt lat="47.74551" lon="6.07787">
        <ele>221.60000610352</ele>
        <time>2012-03-28T08:39:40.000Z</time>
      </trkpt>
      <trkpt lat="47.74571" lon="6.07798">
        <ele>221.60000610352</ele>
        <time>2012-03-28T08:39:46.000Z</time>
      </trkpt>
      <trkpt lat="47.74587" lon="6.07814">
        <ele>221.60000610352</ele>
        <time>2012-03-28T08:39:53.000Z</time>
      </trkpt>
      <trkpt lat="47.74589" lon="6.07815">
        <ele>222</ele>
        <time>2012-03-28T08:39:54.000Z</time>
      </trkpt>
      <trkpt lat="47.74591" lon="6.07817">
        <ele>222.39999389648</ele>
        <time>2012-03-28T08:39:55.000Z</time>
      </trkpt>
      <trkpt lat="47.74594" lon="6.07819">
        <ele>222.80000305176</ele>
        <time>2012-03-28T08:39:56.000Z</time>
      </trkpt>
      <trkpt lat="47.74596" lon="6.0782">
        <ele>223.19999694824</ele>
        <time>2012-03-28T08:39:57.000Z</time>
      </trkpt>
      <trkpt lat="47.74599" lon="6.07821">
        <ele>223.60000610352</ele>
        <time>2012-03-28T08:39:58.000Z</time>
      </trkpt>
      <trkpt lat="47.74601" lon="6.07821">
        <ele>223.60000610352</ele>
        <time>2012-03-28T08:39:59.000Z</time>
      </trkpt>
      <trkpt lat="47.74619" lon="6.07819">
        <ele>223.60000610352</ele>
        <time>2012-03-28T08:40:05.000Z</time>
      </trkpt>
      <trkpt lat="47.74647" lon="6.07814">
        <ele>223.60000610352</ele>
        <time>2012-03-28T08:40:13.000Z</time>
      </trkpt>
      <trkpt lat="47.74678" lon="6.07807">
        <ele>223.60000610352</ele>
        <time>2012-03-28T08:40:23.000Z</time>
      </trkpt>
      <trkpt lat="47.74689" lon="6.07803">
        <ele>224</ele>
        <time>2012-03-28T08:40:27.000Z</time>
      </trkpt>
      <trkpt lat="47.74692" lon="6.07802">
        <ele>224.39999389648</ele>
        <time>2012-03-28T08:40:28.000Z</time>
      </trkpt>
      <trkpt lat="47.74695" lon="6.07802">
        <ele>224.80000305176</ele>
        <time>2012-03-28T08:40:29.000Z</time>
      </trkpt>
      <trkpt lat="47.74699" lon="6.078">
        <ele>225.19999694824</ele>
        <time>2012-03-28T08:40:30.000Z</time>
      </trkpt>
      <trkpt lat="47.74702" lon="6.07799">
        <ele>225.80000305176</ele>
        <time>2012-03-28T08:40:31.000Z</time>
      </trkpt>
      <trkpt lat="47.74706" lon="6.07798">
        <ele>225.80000305176</ele>
        <time>2012-03-28T08:40:32.000Z</time>
      </trkpt>
      <trkpt lat="47.74731" lon="6.0779">
        <ele>225.80000305176</ele>
        <time>2012-03-28T08:40:39.000Z</time>
      </trkpt>
      <trkpt lat="47.74762" lon="6.07781">
        <ele>225.80000305176</ele>
        <time>2012-03-28T08:40:48.000Z</time>
      </trkpt>
      <trkpt lat="47.74783" lon="6.07774">
        <ele>225.80000305176</ele>
        <time>2012-03-28T08:40:54.000Z</time>
      </trkpt>
      <trkpt lat="47.74817" lon="6.07762">
        <ele>225.80000305176</ele>
        <time>2012-03-28T08:41:03.000Z</time>
      </trkpt>
      <trkpt lat="47.74841" lon="6.07757">
        <ele>225.80000305176</ele>
        <time>2012-03-28T08:41:09.000Z</time>
      </trkpt>
      <trkpt lat="47.74862" lon="6.07758">
        <ele>225.80000305176</ele>
        <time>2012-03-28T08:41:15.000Z</time>
      </trkpt>
      <trkpt lat="47.7489" lon="6.0777">
        <ele>225.80000305176</ele>
        <time>2012-03-28T08:41:23.000Z</time>
      </trkpt>
      <trkpt lat="47.74912" lon="6.0778">
        <ele>225.80000305176</ele>
        <time>2012-03-28T08:41:30.000Z</time>
      </trkpt>
      <trkpt lat="47.74938" lon="6.07786">
        <ele>225.80000305176</ele>
        <time>2012-03-28T08:41:37.000Z</time>
      </trkpt>
      <trkpt lat="47.74967" lon="6.0779">
        <ele>225.80000305176</ele>
        <time>2012-03-28T08:41:44.000Z</time>
      </trkpt>
      <trkpt lat="47.75004" lon="6.07797">
        <ele>225.80000305176</ele>
        <time>2012-03-28T08:41:53.000Z</time>
      </trkpt>
      <trkpt lat="47.75031" lon="6.07802">
        <ele>225.80000305176</ele>
        <time>2012-03-28T08:41:59.000Z</time>
      </trkpt>
      <trkpt lat="47.75049" lon="6.07805">
        <ele>225.19999694824</ele>
        <time>2012-03-28T08:42:03.000Z</time>
      </trkpt>
      <trkpt lat="47.75054" lon="6.07805">
        <ele>224.80000305176</ele>
        <time>2012-03-28T08:42:04.000Z</time>
      </trkpt>
      <trkpt lat="47.75059" lon="6.07806">
        <ele>224.39999389648</ele>
        <time>2012-03-28T08:42:05.000Z</time>
      </trkpt>
      <trkpt lat="47.75063" lon="6.07806">
        <ele>224</ele>
        <time>2012-03-28T08:42:06.000Z</time>
      </trkpt>
      <trkpt lat="47.75068" lon="6.07808">
        <ele>223.60000610352</ele>
        <time>2012-03-28T08:42:07.000Z</time>
      </trkpt>
      <trkpt lat="47.75087" lon="6.07811">
        <ele>223.60000610352</ele>
        <time>2012-03-28T08:42:11.000Z</time>
      </trkpt>
      <trkpt lat="47.75115" lon="6.07817">
        <ele>223.60000610352</ele>
        <time>2012-03-28T08:42:18.000Z</time>
      </trkpt>
      <trkpt lat="47.75144" lon="6.07828">
        <ele>223.60000610352</ele>
        <time>2012-03-28T08:42:26.000Z</time>
      </trkpt>
      <trkpt lat="47.75155" lon="6.07835">
        <ele>223.60000610352</ele>
        <time>2012-03-28T08:42:29.000Z</time>
      </trkpt>
      <trkpt lat="47.75166" lon="6.07842">
        <ele>223.60000610352</ele>
        <time>2012-03-28T08:42:32.000Z</time>
      </trkpt>
      <trkpt lat="47.75188" lon="6.07856">
        <ele>223.60000610352</ele>
        <time>2012-03-28T08:42:39.000Z</time>
      </trkpt>
      <trkpt lat="47.75202" lon="6.07867">
        <ele>223.60000610352</ele>
        <time>2012-03-28T08:42:45.000Z</time>
      </trkpt>
      <trkpt lat="47.75214" lon="6.07879">
        <ele>223.60000610352</ele>
        <time>2012-03-28T08:42:50.000Z</time>
      </trkpt>
      <trkpt lat="47.75231" lon="6.07896">
        <ele>223.60000610352</ele>
        <time>2012-03-28T08:42:56.000Z</time>
      </trkpt>
      <trkpt lat="47.75253" lon="6.07926">
        <ele>223.60000610352</ele>
        <time>2012-03-28T08:43:05.000Z</time>
      </trkpt>
      <trkpt lat="47.7527" lon="6.07948">
        <ele>223.60000610352</ele>
        <time>2012-03-28T08:43:11.000Z</time>
      </trkpt>
      <trkpt lat="47.75294" lon="6.07977">
        <ele>223.60000610352</ele>
        <time>2012-03-28T08:43:19.000Z</time>
      </trkpt>
      <trkpt lat="47.75312" lon="6.08">
        <ele>223.60000610352</ele>
        <time>2012-03-28T08:43:25.000Z</time>
      </trkpt>
      <trkpt lat="47.75319" lon="6.08009">
        <ele>223.60000610352</ele>
        <time>2012-03-28T08:43:27.000Z</time>
      </trkpt>
      <trkpt lat="47.75345" lon="6.08042">
        <ele>223.60000610352</ele>
        <time>2012-03-28T08:43:35.000Z</time>
      </trkpt>
      <trkpt lat="47.75373" lon="6.08077">
        <ele>223.60000610352</ele>
        <time>2012-03-28T08:43:43.000Z</time>
      </trkpt>
      <trkpt lat="47.75402" lon="6.08116">
        <ele>223.60000610352</ele>
        <time>2012-03-28T08:43:52.000Z</time>
      </trkpt>
      <trkpt lat="47.75424" lon="6.08151">
        <ele>223.60000610352</ele>
        <time>2012-03-28T08:44:00.000Z</time>
      </trkpt>
      <trkpt lat="47.75445" lon="6.08191">
        <ele>223.60000610352</ele>
        <time>2012-03-28T08:44:08.000Z</time>
      </trkpt>
      <trkpt lat="47.75463" lon="6.08238">
        <ele>223.60000610352</ele>
        <time>2012-03-28T08:44:16.000Z</time>
      </trkpt>
      <trkpt lat="47.75485" lon="6.083">
        <ele>223.60000610352</ele>
        <time>2012-03-28T08:44:27.000Z</time>
      </trkpt>
      <trkpt lat="47.75497" lon="6.08333">
        <ele>223.60000610352</ele>
        <time>2012-03-28T08:44:33.000Z</time>
      </trkpt>
      <trkpt lat="47.75501" lon="6.08345">
        <ele>223.60000610352</ele>
        <time>2012-03-28T08:44:35.000Z</time>
      </trkpt>
      <trkpt lat="47.75518" lon="6.08403">
        <ele>223.60000610352</ele>
        <time>2012-03-28T08:44:45.000Z</time>
      </trkpt>
      <trkpt lat="47.75529" lon="6.08446">
        <ele>223.60000610352</ele>
        <time>2012-03-28T08:44:51.000Z</time>
      </trkpt>
      <trkpt lat="47.75536" lon="6.08481">
        <ele>223.60000610352</ele>
        <time>2012-03-28T08:44:56.000Z</time>
      </trkpt>
      <trkpt lat="47.75539" lon="6.08494">
        <ele>223.60000610352</ele>
        <time>2012-03-28T08:44:58.000Z</time>
      </trkpt>
      <trkpt lat="47.75547" lon="6.08547">
        <ele>223.60000610352</ele>
        <time>2012-03-28T08:45:06.000Z</time>
      </trkpt>
      <trkpt lat="47.75553" lon="6.08601">
        <ele>223.60000610352</ele>
        <time>2012-03-28T08:45:14.000Z</time>
      </trkpt>
      <trkpt lat="47.75555" lon="6.08614">
        <ele>223.60000610352</ele>
        <time>2012-03-28T08:45:16.000Z</time>
      </trkpt>
      <trkpt lat="47.75557" lon="6.08647">
        <ele>223.60000610352</ele>
        <time>2012-03-28T08:45:21.000Z</time>
      </trkpt>
      <trkpt lat="47.75559" lon="6.08694">
        <ele>223.60000610352</ele>
        <time>2012-03-28T08:45:28.000Z</time>
      </trkpt>
      <trkpt lat="47.75559" lon="6.08748">
        <ele>223.60000610352</ele>
        <time>2012-03-28T08:45:36.000Z</time>
      </trkpt>
      <trkpt lat="47.75552" lon="6.08807">
        <ele>223.60000610352</ele>
        <time>2012-03-28T08:45:45.000Z</time>
      </trkpt>
      <trkpt lat="47.75544" lon="6.08861">
        <ele>223.60000610352</ele>
        <time>2012-03-28T08:45:53.000Z</time>
      </trkpt>
      <trkpt lat="47.75541" lon="6.08874">
        <ele>223.60000610352</ele>
        <time>2012-03-28T08:45:55.000Z</time>
      </trkpt>
      <trkpt lat="47.75536" lon="6.08905">
        <ele>223.60000610352</ele>
        <time>2012-03-28T08:46:00.000Z</time>
      </trkpt>
      <trkpt lat="47.75534" lon="6.0891">
        <ele>223.60000610352</ele>
        <time>2012-03-28T08:46:01.000Z</time>
      </trkpt>
      <trkpt lat="47.75523" lon="6.08946">
        <ele>223.60000610352</ele>
        <time>2012-03-28T08:46:07.000Z</time>
      </trkpt>
      <trkpt lat="47.75509" lon="6.08998">
        <ele>223.60000610352</ele>
        <time>2012-03-28T08:46:15.000Z</time>
      </trkpt>
      <trkpt lat="47.75496" lon="6.09054">
        <ele>223.60000610352</ele>
        <time>2012-03-28T08:46:24.000Z</time>
      </trkpt>
      <trkpt lat="47.75485" lon="6.09103">
        <ele>223.60000610352</ele>
        <time>2012-03-28T08:46:32.000Z</time>
      </trkpt>
      <trkpt lat="47.75483" lon="6.0914">
        <ele>223.60000610352</ele>
        <time>2012-03-28T08:46:38.000Z</time>
      </trkpt>
      <trkpt lat="47.75482" lon="6.09152">
        <ele>223.60000610352</ele>
        <time>2012-03-28T08:46:40.000Z</time>
      </trkpt>
      <trkpt lat="47.75481" lon="6.09183">
        <ele>223.60000610352</ele>
        <time>2012-03-28T08:46:45.000Z</time>
      </trkpt>
      <trkpt lat="47.7548" lon="6.0922">
        <ele>223.60000610352</ele>
        <time>2012-03-28T08:46:51.000Z</time>
      </trkpt>
      <trkpt lat="47.7548" lon="6.09255">
        <ele>223.60000610352</ele>
        <time>2012-03-28T08:46:57.000Z</time>
      </trkpt>
      <trkpt lat="47.75482" lon="6.09283">
        <ele>223.60000610352</ele>
        <time>2012-03-28T08:47:02.000Z</time>
      </trkpt>
      <trkpt lat="47.75483" lon="6.09314">
        <ele>223.60000610352</ele>
        <time>2012-03-28T08:47:07.000Z</time>
      </trkpt>
      <trkpt lat="47.75485" lon="6.09356">
        <ele>223.60000610352</ele>
        <time>2012-03-28T08:47:14.000Z</time>
      </trkpt>
      <trkpt lat="47.75488" lon="6.09405">
        <ele>223.60000610352</ele>
        <time>2012-03-28T08:47:21.000Z</time>
      </trkpt>
      <trkpt lat="47.75487" lon="6.09449">
        <ele>223.60000610352</ele>
        <time>2012-03-28T08:47:27.000Z</time>
      </trkpt>
      <trkpt lat="47.75488" lon="6.09487">
        <ele>223.60000610352</ele>
        <time>2012-03-28T08:47:33.000Z</time>
      </trkpt>
      <trkpt lat="47.7549" lon="6.09531">
        <ele>223.60000610352</ele>
        <time>2012-03-28T08:47:40.000Z</time>
      </trkpt>
      <trkpt lat="47.75491" lon="6.09565">
        <ele>223.60000610352</ele>
        <time>2012-03-28T08:47:46.000Z</time>
      </trkpt>
      <trkpt lat="47.75494" lon="6.09596">
        <ele>223.60000610352</ele>
        <time>2012-03-28T08:47:51.000Z</time>
      </trkpt>
      <trkpt lat="47.75502" lon="6.09644">
        <ele>223.60000610352</ele>
        <time>2012-03-28T08:47:59.000Z</time>
      </trkpt>
      <trkpt lat="47.75511" lon="6.09683">
        <ele>223.60000610352</ele>
        <time>2012-03-28T08:48:05.000Z</time>
      </trkpt>
      <trkpt lat="47.75512" lon="6.09689">
        <ele>223.60000610352</ele>
        <time>2012-03-28T08:48:06.000Z</time>
      </trkpt>
      <trkpt lat="47.75521" lon="6.09722">
        <ele>223.60000610352</ele>
        <time>2012-03-28T08:48:11.000Z</time>
      </trkpt>
      <trkpt lat="47.75536" lon="6.09778">
        <ele>223.60000610352</ele>
        <time>2012-03-28T08:48:19.000Z</time>
      </trkpt>
      <trkpt lat="47.75546" lon="6.0981">
        <ele>223.60000610352</ele>
        <time>2012-03-28T08:48:24.000Z</time>
      </trkpt>
      <trkpt lat="47.7555" lon="6.09824">
        <ele>223.60000610352</ele>
        <time>2012-03-28T08:48:26.000Z</time>
      </trkpt>
      <trkpt lat="47.75568" lon="6.09877">
        <ele>223.60000610352</ele>
        <time>2012-03-28T08:48:34.000Z</time>
      </trkpt>
      <trkpt lat="47.75584" lon="6.09917">
        <ele>223.60000610352</ele>
        <time>2012-03-28T08:48:41.000Z</time>
      </trkpt>
      <trkpt lat="47.75607" lon="6.09962">
        <ele>223.60000610352</ele>
        <time>2012-03-28T08:48:50.000Z</time>
      </trkpt>
      <trkpt lat="47.7561" lon="6.09966">
        <ele>223.60000610352</ele>
        <time>2012-03-28T08:48:51.000Z</time>
      </trkpt>
      <trkpt lat="47.75627" lon="6.09987">
        <ele>223.60000610352</ele>
        <time>2012-03-28T08:48:55.000Z</time>
      </trkpt>
      <trkpt lat="47.75637" lon="6.1">
        <ele>223.19999694824</ele>
        <time>2012-03-28T08:48:57.000Z</time>
      </trkpt>
      <trkpt lat="47.75642" lon="6.10006">
        <ele>222.80000305176</ele>
        <time>2012-03-28T08:48:58.000Z</time>
      </trkpt>
      <trkpt lat="47.75647" lon="6.10013">
        <ele>222.39999389648</ele>
        <time>2012-03-28T08:48:59.000Z</time>
      </trkpt>
      <trkpt lat="47.75651" lon="6.10019">
        <ele>222</ele>
        <time>2012-03-28T08:49:00.000Z</time>
      </trkpt>
      <trkpt lat="47.75656" lon="6.10026">
        <ele>221.39999389648</ele>
        <time>2012-03-28T08:49:01.000Z</time>
      </trkpt>
      <trkpt lat="47.75694" lon="6.10079">
        <ele>221.39999389648</ele>
        <time>2012-03-28T08:49:10.000Z</time>
      </trkpt>
      <trkpt lat="47.75722" lon="6.10118">
        <ele>221.39999389648</ele>
        <time>2012-03-28T08:49:17.000Z</time>
      </trkpt>
      <trkpt lat="47.75753" lon="6.10147">
        <ele>221.39999389648</ele>
        <time>2012-03-28T08:49:24.000Z</time>
      </trkpt>
      <trkpt lat="47.75783" lon="6.10169">
        <ele>221.39999389648</ele>
        <time>2012-03-28T08:49:31.000Z</time>
      </trkpt>
      <trkpt lat="47.7582" lon="6.10196">
        <ele>221.39999389648</ele>
        <time>2012-03-28T08:49:39.000Z</time>
      </trkpt>
      <trkpt lat="47.75852" lon="6.10227">
        <ele>221.39999389648</ele>
        <time>2012-03-28T08:49:46.000Z</time>
      </trkpt>
      <trkpt lat="47.75885" lon="6.10265">
        <ele>221.39999389648</ele>
        <time>2012-03-28T08:49:54.000Z</time>
      </trkpt>
      <trkpt lat="47.75924" lon="6.1031">
        <ele>221.39999389648</ele>
        <time>2012-03-28T08:50:04.000Z</time>
      </trkpt>
      <trkpt lat="47.75947" lon="6.1034">
        <ele>221.39999389648</ele>
        <time>2012-03-28T08:50:11.000Z</time>
      </trkpt>
      <trkpt lat="47.75964" lon="6.10363">
        <ele>221.39999389648</ele>
        <time>2012-03-28T08:50:18.000Z</time>
      </trkpt>
      <trkpt lat="47.75982" lon="6.10388">
        <ele>221.39999389648</ele>
        <time>2012-03-28T08:50:26.000Z</time>
      </trkpt>
      <trkpt lat="47.75994" lon="6.10411">
        <ele>221.39999389648</ele>
        <time>2012-03-28T08:50:33.000Z</time>
      </trkpt>
      <trkpt lat="47.75996" lon="6.10415">
        <ele>222</ele>
        <time>2012-03-28T08:50:35.000Z</time>
      </trkpt>
      <trkpt lat="47.75996" lon="6.10415">
        <ele>222.39999389648</ele>
        <time>2012-03-28T08:50:36.000Z</time>
      </trkpt>
      <trkpt lat="47.75996" lon="6.10416">
        <ele>223.60000610352</ele>
        <time>2012-03-28T08:50:43.000Z</time>
      </trkpt>
      <trkpt lat="47.75999" lon="6.10424">
        <ele>223.60000610352</ele>
        <time>2012-03-28T08:50:47.000Z</time>
      </trkpt>
      <trkpt lat="47.76003" lon="6.10424">
        <ele>223.60000610352</ele>
        <time>2012-03-28T08:50:49.000Z</time>
      </trkpt>
      <trkpt lat="47.76008" lon="6.10427">
        <ele>223.60000610352</ele>
        <time>2012-03-28T08:50:51.000Z</time>
      </trkpt>
      <trkpt lat="47.76026" lon="6.10426">
        <ele>223.60000610352</ele>
        <time>2012-03-28T08:50:56.000Z</time>
      </trkpt>
      <trkpt lat="47.7604" lon="6.10418">
        <ele>224</ele>
        <time>2012-03-28T08:51:00.000Z</time>
      </trkpt>
      <trkpt lat="47.76043" lon="6.10415">
        <ele>224.39999389648</ele>
        <time>2012-03-28T08:51:01.000Z</time>
      </trkpt>
      <trkpt lat="47.76046" lon="6.10413">
        <ele>224.80000305176</ele>
        <time>2012-03-28T08:51:02.000Z</time>
      </trkpt>
      <trkpt lat="47.76049" lon="6.10411">
        <ele>225.39999389648</ele>
        <time>2012-03-28T08:51:03.000Z</time>
      </trkpt>
      <trkpt lat="47.76052" lon="6.10409">
        <ele>225.80000305176</ele>
        <time>2012-03-28T08:51:04.000Z</time>
      </trkpt>
      <trkpt lat="47.76077" lon="6.10391">
        <ele>225.80000305176</ele>
        <time>2012-03-28T08:51:13.000Z</time>
      </trkpt>
      <trkpt lat="47.76098" lon="6.10377">
        <ele>225.80000305176</ele>
        <time>2012-03-28T08:51:19.000Z</time>
      </trkpt>
      <trkpt lat="47.76136" lon="6.10349">
        <ele>225.80000305176</ele>
        <time>2012-03-28T08:51:28.000Z</time>
      </trkpt>
      <trkpt lat="47.76157" lon="6.10339">
        <ele>225.80000305176</ele>
        <time>2012-03-28T08:51:32.000Z</time>
      </trkpt>
      <trkpt lat="47.76169" lon="6.10336">
        <ele>225.80000305176</ele>
        <time>2012-03-28T08:51:34.000Z</time>
      </trkpt>
      <trkpt lat="47.76189" lon="6.10335">
        <ele>225.39999389648</ele>
        <time>2012-03-28T08:51:37.000Z</time>
      </trkpt>
      <trkpt lat="47.76195" lon="6.10335">
        <ele>224.80000305176</ele>
        <time>2012-03-28T08:51:38.000Z</time>
      </trkpt>
      <trkpt lat="47.76202" lon="6.10335">
        <ele>224.39999389648</ele>
        <time>2012-03-28T08:51:39.000Z</time>
      </trkpt>
      <trkpt lat="47.76209" lon="6.10336">
        <ele>224</ele>
        <time>2012-03-28T08:51:40.000Z</time>
      </trkpt>
      <trkpt lat="47.76215" lon="6.10336">
        <ele>223.60000610352</ele>
        <time>2012-03-28T08:51:41.000Z</time>
      </trkpt>
      <trkpt lat="47.76256" lon="6.10335">
        <ele>223.60000610352</ele>
        <time>2012-03-28T08:51:48.000Z</time>
      </trkpt>
      <trkpt lat="47.76292" lon="6.10332">
        <ele>223.60000610352</ele>
        <time>2012-03-28T08:51:55.000Z</time>
      </trkpt>
      <trkpt lat="47.76339" lon="6.10325">
        <ele>223.60000610352</ele>
        <time>2012-03-28T08:52:05.000Z</time>
      </trkpt>
      <trkpt lat="47.76377" lon="6.1032">
        <ele>223.60000610352</ele>
        <time>2012-03-28T08:52:13.000Z</time>
      </trkpt>
      <trkpt lat="47.76418" lon="6.10314">
        <ele>223.60000610352</ele>
        <time>2012-03-28T08:52:22.000Z</time>
      </trkpt>
      <trkpt lat="47.76446" lon="6.10311">
        <ele>223.60000610352</ele>
        <time>2012-03-28T08:52:29.000Z</time>
      </trkpt>
      <trkpt lat="47.76478" lon="6.10306">
        <ele>223.60000610352</ele>
        <time>2012-03-28T08:52:37.000Z</time>
      </trkpt>
      <trkpt lat="47.76497" lon="6.10302">
        <ele>223.60000610352</ele>
        <time>2012-03-28T08:52:41.000Z</time>
      </trkpt>
      <trkpt lat="47.765" lon="6.10297">
        <ele>223.60000610352</ele>
        <time>2012-03-28T08:52:42.000Z</time>
      </trkpt>
      <trkpt lat="47.76502" lon="6.10276">
        <ele>223.60000610352</ele>
        <time>2012-03-28T08:52:45.000Z</time>
      </trkpt>
      <trkpt lat="47.765" lon="6.10263">
        <ele>223.60000610352</ele>
        <time>2012-03-28T08:52:47.000Z</time>
      </trkpt>
      <trkpt lat="47.76498" lon="6.10256">
        <ele>223.60000610352</ele>
        <time>2012-03-28T08:52:48.000Z</time>
      </trkpt>
      <trkpt lat="47.76495" lon="6.10244">
        <ele>223.60000610352</ele>
        <time>2012-03-28T08:52:50.000Z</time>
      </trkpt>
      <trkpt lat="47.76493" lon="6.10232">
        <ele>223.60000610352</ele>
        <time>2012-03-28T08:52:52.000Z</time>
      </trkpt>
      <trkpt lat="47.76489" lon="6.10211">
        <ele>223.60000610352</ele>
        <time>2012-03-28T08:52:56.000Z</time>
      </trkpt>
      <trkpt lat="47.76484" lon="6.10184">
        <ele>223.60000610352</ele>
        <time>2012-03-28T08:53:02.000Z</time>
      </trkpt>
      <trkpt lat="47.7648" lon="6.10155">
        <ele>223.60000610352</ele>
        <time>2012-03-28T08:53:09.000Z</time>
      </trkpt>
      <trkpt lat="47.7648" lon="6.10127">
        <ele>223.60000610352</ele>
        <time>2012-03-28T08:53:15.000Z</time>
      </trkpt>
      <trkpt lat="47.76485" lon="6.10109">
        <ele>223.60000610352</ele>
        <time>2012-03-28T08:53:19.000Z</time>
      </trkpt>
      <trkpt lat="47.76484" lon="6.10104">
        <ele>223.60000610352</ele>
        <time>2012-03-28T08:53:20.000Z</time>
      </trkpt>
      <trkpt lat="47.7648" lon="6.10098">
        <ele>223.60000610352</ele>
        <time>2012-03-28T08:53:22.000Z</time>
      </trkpt>
      <trkpt lat="47.76479" lon="6.10081">
        <ele>223.60000610352</ele>
        <time>2012-03-28T08:53:26.000Z</time>
      </trkpt>
      <trkpt lat="47.76478" lon="6.10048">
        <ele>223.60000610352</ele>
        <time>2012-03-28T08:53:33.000Z</time>
      </trkpt>
      <trkpt lat="47.76478" lon="6.10019">
        <ele>223.60000610352</ele>
        <time>2012-03-28T08:53:39.000Z</time>
      </trkpt>
      <trkpt lat="47.76477" lon="6.09981">
        <ele>223.60000610352</ele>
        <time>2012-03-28T08:53:46.000Z</time>
      </trkpt>
      <trkpt lat="47.76475" lon="6.0995">
        <ele>223.60000610352</ele>
        <time>2012-03-28T08:53:52.000Z</time>
      </trkpt>
      <trkpt lat="47.76474" lon="6.09935">
        <ele>223.60000610352</ele>
        <time>2012-03-28T08:53:55.000Z</time>
      </trkpt>
      <trkpt lat="47.7648" lon="6.09926">
        <ele>223.60000610352</ele>
        <time>2012-03-28T08:53:57.000Z</time>
      </trkpt>
      <trkpt lat="47.76489" lon="6.09901">
        <ele>223.60000610352</ele>
        <time>2012-03-28T08:54:02.000Z</time>
      </trkpt>
      <trkpt lat="47.76488" lon="6.09897">
        <ele>223.60000610352</ele>
        <time>2012-03-28T08:54:03.000Z</time>
      </trkpt>
      <trkpt lat="47.7649" lon="6.09877">
        <ele>223.60000610352</ele>
        <time>2012-03-28T08:54:07.000Z</time>
      </trkpt>
      <trkpt lat="47.76504" lon="6.09864">
        <ele>223.60000610352</ele>
        <time>2012-03-28T08:54:12.000Z</time>
      </trkpt>
      <trkpt lat="47.76511" lon="6.09864">
        <ele>223.60000610352</ele>
        <time>2012-03-28T08:54:14.000Z</time>
      </trkpt>
      <trkpt lat="47.76519" lon="6.09863">
        <ele>223.60000610352</ele>
        <time>2012-03-28T08:54:17.000Z</time>
      </trkpt>
      <trkpt lat="47.76547" lon="6.09861">
        <ele>223.60000610352</ele>
        <time>2012-03-28T08:54:25.000Z</time>
      </trkpt>
      <trkpt lat="47.76573" lon="6.09859">
        <ele>223.60000610352</ele>
        <time>2012-03-28T08:54:33.000Z</time>
      </trkpt>
      <trkpt lat="47.76579" lon="6.09861">
        <ele>223.60000610352</ele>
        <time>2012-03-28T08:54:35.000Z</time>
      </trkpt>
      <trkpt lat="47.76584" lon="6.09859">
        <ele>223.60000610352</ele>
        <time>2012-03-28T08:54:37.000Z</time>
      </trkpt>
      <trkpt lat="47.76589" lon="6.09853">
        <ele>223.60000610352</ele>
        <time>2012-03-28T08:54:40.000Z</time>
      </trkpt>
      <trkpt lat="47.76593" lon="6.09848">
        <ele>223.60000610352</ele>
        <time>2012-03-28T08:54:42.000Z</time>
      </trkpt>
      <trkpt lat="47.76595" lon="6.09826">
        <ele>223.60000610352</ele>
        <time>2012-03-28T08:54:47.000Z</time>
      </trkpt>
      <trkpt lat="47.76596" lon="6.09798">
        <ele>223.60000610352</ele>
        <time>2012-03-28T08:54:53.000Z</time>
      </trkpt>
      <trkpt lat="47.76601" lon="6.0977">
        <ele>223.60000610352</ele>
        <time>2012-03-28T08:54:59.000Z</time>
      </trkpt>
      <trkpt lat="47.76608" lon="6.09741">
        <ele>223.60000610352</ele>
        <time>2012-03-28T08:55:05.000Z</time>
      </trkpt>
      <trkpt lat="47.7661" lon="6.09736">
        <ele>224</ele>
        <time>2012-03-28T08:55:07.000Z</time>
      </trkpt>
      <trkpt lat="47.7661" lon="6.09733">
        <ele>224.60000610352</ele>
        <time>2012-03-28T08:55:08.000Z</time>
      </trkpt>
      <trkpt lat="47.7661" lon="6.0973">
        <ele>225</ele>
        <time>2012-03-28T08:55:09.000Z</time>
      </trkpt>
      <trkpt lat="47.7661" lon="6.09726">
        <ele>225.39999389648</ele>
        <time>2012-03-28T08:55:10.000Z</time>
      </trkpt>
      <trkpt lat="47.7661" lon="6.09722">
        <ele>225.80000305176</ele>
        <time>2012-03-28T08:55:11.000Z</time>
      </trkpt>
      <trkpt lat="47.76609" lon="6.09697">
        <ele>225.80000305176</ele>
        <time>2012-03-28T08:55:17.000Z</time>
      </trkpt>
      <trkpt lat="47.76609" lon="6.09665">
        <ele>225.80000305176</ele>
        <time>2012-03-28T08:55:25.000Z</time>
      </trkpt>
      <trkpt lat="47.76607" lon="6.09639">
        <ele>225.80000305176</ele>
        <time>2012-03-28T08:55:32.000Z</time>
      </trkpt>
      <trkpt lat="47.76606" lon="6.09609">
        <ele>225.80000305176</ele>
        <time>2012-03-28T08:55:40.000Z</time>
      </trkpt>
      <trkpt lat="47.76607" lon="6.09599">
        <ele>226.19999694824</ele>
        <time>2012-03-28T08:55:43.000Z</time>
      </trkpt>
      <trkpt lat="47.76606" lon="6.09595">
        <ele>226.60000610352</ele>
        <time>2012-03-28T08:55:44.000Z</time>
      </trkpt>
      <trkpt lat="47.76606" lon="6.09591">
        <ele>227</ele>
        <time>2012-03-28T08:55:45.000Z</time>
      </trkpt>
      <trkpt lat="47.76606" lon="6.09588">
        <ele>227.39999389648</ele>
        <time>2012-03-28T08:55:46.000Z</time>
      </trkpt>
      <trkpt lat="47.76607" lon="6.09584">
        <ele>227.80000305176</ele>
        <time>2012-03-28T08:55:47.000Z</time>
      </trkpt>
      <trkpt lat="47.76606" lon="6.0958">
        <ele>227.80000305176</ele>
        <time>2012-03-28T08:55:48.000Z</time>
      </trkpt>
      <trkpt lat="47.76606" lon="6.09556">
        <ele>227.80000305176</ele>
        <time>2012-03-28T08:55:55.000Z</time>
      </trkpt>
      <trkpt lat="47.76605" lon="6.0953">
        <ele>228.19999694824</ele>
        <time>2012-03-28T08:56:02.000Z</time>
      </trkpt>
      <trkpt lat="47.76605" lon="6.09526">
        <ele>228.60000610352</ele>
        <time>2012-03-28T08:56:03.000Z</time>
      </trkpt>
      <trkpt lat="47.76605" lon="6.09522">
        <ele>229</ele>
        <time>2012-03-28T08:56:04.000Z</time>
      </trkpt>
      <trkpt lat="47.76605" lon="6.09518">
        <ele>229.39999389648</ele>
        <time>2012-03-28T08:56:05.000Z</time>
      </trkpt>
      <trkpt lat="47.76605" lon="6.09515">
        <ele>229.80000305176</ele>
        <time>2012-03-28T08:56:06.000Z</time>
      </trkpt>
      <trkpt lat="47.76605" lon="6.09495">
        <ele>229.80000305176</ele>
        <time>2012-03-28T08:56:11.000Z</time>
      </trkpt>
      <trkpt lat="47.76607" lon="6.09471">
        <ele>229.80000305176</ele>
        <time>2012-03-28T08:56:17.000Z</time>
      </trkpt>
      <trkpt lat="47.76612" lon="6.09429">
        <ele>229.80000305176</ele>
        <time>2012-03-28T08:56:26.000Z</time>
      </trkpt>
      <trkpt lat="47.76616" lon="6.09387">
        <ele>229.80000305176</ele>
        <time>2012-03-28T08:56:34.000Z</time>
      </trkpt>
      <trkpt lat="47.7662" lon="6.09351">
        <ele>229.80000305176</ele>
        <time>2012-03-28T08:56:41.000Z</time>
      </trkpt>
      <trkpt lat="47.76622" lon="6.09323">
        <ele>229.80000305176</ele>
        <time>2012-03-28T08:56:47.000Z</time>
      </trkpt>
      <trkpt lat="47.76624" lon="6.09292">
        <ele>229.80000305176</ele>
        <time>2012-03-28T08:56:54.000Z</time>
      </trkpt>
      <trkpt lat="47.76625" lon="6.09261">
        <ele>229.80000305176</ele>
        <time>2012-03-28T08:57:01.000Z</time>
      </trkpt>
      <trkpt lat="47.76623" lon="6.09237">
        <ele>229.80000305176</ele>
        <time>2012-03-28T08:57:07.000Z</time>
      </trkpt>
      <trkpt lat="47.76622" lon="6.09217">
        <ele>229.80000305176</ele>
        <time>2012-03-28T08:57:12.000Z</time>
      </trkpt>
      <trkpt lat="47.76617" lon="6.09196">
        <ele>229.80000305176</ele>
        <time>2012-03-28T08:57:18.000Z</time>
      </trkpt>
      <trkpt lat="47.76613" lon="6.09179">
        <ele>229.80000305176</ele>
        <time>2012-03-28T08:57:24.000Z</time>
      </trkpt>
      <trkpt lat="47.7661" lon="6.09161">
        <ele>229.80000305176</ele>
        <time>2012-03-28T08:57:30.000Z</time>
      </trkpt>
      <trkpt lat="47.76599" lon="6.09126">
        <ele>229.80000305176</ele>
        <time>2012-03-28T08:57:37.000Z</time>
      </trkpt>
      <trkpt lat="47.76592" lon="6.09102">
        <ele>229.80000305176</ele>
        <time>2012-03-28T08:57:41.000Z</time>
      </trkpt>
      <trkpt lat="47.76588" lon="6.09089">
        <ele>229.80000305176</ele>
        <time>2012-03-28T08:57:43.000Z</time>
      </trkpt>
      <trkpt lat="47.76578" lon="6.09048">
        <ele>229.80000305176</ele>
        <time>2012-03-28T08:57:50.000Z</time>
      </trkpt>
      <trkpt lat="47.76574" lon="6.09008">
        <ele>229.80000305176</ele>
        <time>2012-03-28T08:57:57.000Z</time>
      </trkpt>
      <trkpt lat="47.76567" lon="6.08964">
        <ele>229.80000305176</ele>
        <time>2012-03-28T08:58:05.000Z</time>
      </trkpt>
      <trkpt lat="47.76559" lon="6.08908">
        <ele>229.80000305176</ele>
        <time>2012-03-28T08:58:14.000Z</time>
      </trkpt>
      <trkpt lat="47.7655" lon="6.08839">
        <ele>229.80000305176</ele>
        <time>2012-03-28T08:58:23.000Z</time>
      </trkpt>
      <trkpt lat="47.76543" lon="6.08789">
        <ele>229.80000305176</ele>
        <time>2012-03-28T08:58:30.000Z</time>
      </trkpt>
      <trkpt lat="47.76542" lon="6.08783">
        <ele>229.80000305176</ele>
        <time>2012-03-28T08:58:31.000Z</time>
      </trkpt>
      <trkpt lat="47.76532" lon="6.08716">
        <ele>229.80000305176</ele>
        <time>2012-03-28T08:58:41.000Z</time>
      </trkpt>
      <trkpt lat="47.76523" lon="6.08662">
        <ele>229.80000305176</ele>
        <time>2012-03-28T08:58:49.000Z</time>
      </trkpt>
      <trkpt lat="47.76512" lon="6.08601">
        <ele>229.39999389648</ele>
        <time>2012-03-28T08:58:58.000Z</time>
      </trkpt>
      <trkpt lat="47.76511" lon="6.08595">
        <ele>229</ele>
        <time>2012-03-28T08:58:59.000Z</time>
      </trkpt>
      <trkpt lat="47.7651" lon="6.08589">
        <ele>228.60000610352</ele>
        <time>2012-03-28T08:59:00.000Z</time>
      </trkpt>
      <trkpt lat="47.76509" lon="6.08583">
        <ele>228.19999694824</ele>
        <time>2012-03-28T08:59:01.000Z</time>
      </trkpt>
      <trkpt lat="47.76508" lon="6.08576">
        <ele>227.80000305176</ele>
        <time>2012-03-28T08:59:02.000Z</time>
      </trkpt>
      <trkpt lat="47.76502" lon="6.08537">
        <ele>227.80000305176</ele>
        <time>2012-03-28T08:59:08.000Z</time>
      </trkpt>
      <trkpt lat="47.76493" lon="6.08479">
        <ele>227.80000305176</ele>
        <time>2012-03-28T08:59:17.000Z</time>
      </trkpt>
      <trkpt lat="47.76489" lon="6.08452">
        <ele>227.80000305176</ele>
        <time>2012-03-28T08:59:21.000Z</time>
      </trkpt>
      <trkpt lat="47.76488" lon="6.08431">
        <ele>227.80000305176</ele>
        <time>2012-03-28T08:59:24.000Z</time>
      </trkpt>
      <trkpt lat="47.76489" lon="6.08367">
        <ele>227.80000305176</ele>
        <time>2012-03-28T08:59:32.000Z</time>
      </trkpt>
      <trkpt lat="47.7649" lon="6.08304">
        <ele>227.80000305176</ele>
        <time>2012-03-28T08:59:41.000Z</time>
      </trkpt>
      <trkpt lat="47.76487" lon="6.08263">
        <ele>227.80000305176</ele>
        <time>2012-03-28T08:59:48.000Z</time>
      </trkpt>
      <trkpt lat="47.76483" lon="6.0824">
        <ele>227.80000305176</ele>
        <time>2012-03-28T08:59:52.000Z</time>
      </trkpt>
      <trkpt lat="47.7648" lon="6.08221">
        <ele>227.80000305176</ele>
        <time>2012-03-28T08:59:55.000Z</time>
      </trkpt>
      <trkpt lat="47.76467" lon="6.08174">
        <ele>227.80000305176</ele>
        <time>2012-03-28T09:00:02.000Z</time>
      </trkpt>
      <trkpt lat="47.7645" lon="6.08124">
        <ele>227.80000305176</ele>
        <time>2012-03-28T09:00:09.000Z</time>
      </trkpt>
      <trkpt lat="47.76425" lon="6.0805">
        <ele>227.80000305176</ele>
        <time>2012-03-28T09:00:18.000Z</time>
      </trkpt>
      <trkpt lat="47.76409" lon="6.07998">
        <ele>227.80000305176</ele>
        <time>2012-03-28T09:00:25.000Z</time>
      </trkpt>
      <trkpt lat="47.7639" lon="6.07946">
        <ele>227.80000305176</ele>
        <time>2012-03-28T09:00:33.000Z</time>
      </trkpt>
      <trkpt lat="47.76388" lon="6.07941">
        <ele>227.80000305176</ele>
        <time>2012-03-28T09:00:34.000Z</time>
      </trkpt>
      <trkpt lat="47.76382" lon="6.07927">
        <ele>227.39999389648</ele>
        <time>2012-03-28T09:00:37.000Z</time>
      </trkpt>
      <trkpt lat="47.76381" lon="6.07922">
        <ele>227</ele>
        <time>2012-03-28T09:00:38.000Z</time>
      </trkpt>
      <trkpt lat="47.7638" lon="6.07918">
        <ele>226.60000610352</ele>
        <time>2012-03-28T09:00:39.000Z</time>
      </trkpt>
      <trkpt lat="47.76378" lon="6.07913">
        <ele>226.19999694824</ele>
        <time>2012-03-28T09:00:40.000Z</time>
      </trkpt>
      <trkpt lat="47.76375" lon="6.07909">
        <ele>225.80000305176</ele>
        <time>2012-03-28T09:00:41.000Z</time>
      </trkpt>
      <trkpt lat="47.76371" lon="6.07899">
        <ele>225.80000305176</ele>
        <time>2012-03-28T09:00:43.000Z</time>
      </trkpt>
      <trkpt lat="47.76369" lon="6.07895">
        <ele>225.80000305176</ele>
        <time>2012-03-28T09:00:46.000Z</time>
      </trkpt>
      <trkpt lat="47.76369" lon="6.07896">
        <ele>225.80000305176</ele>
        <time>2012-03-28T09:00:48.000Z</time>
      </trkpt>
      <trkpt lat="47.76368" lon="6.07896">
        <ele>225.80000305176</ele>
        <time>2012-03-28T09:00:53.000Z</time>
      </trkpt>
      <trkpt lat="47.76369" lon="6.07898">
        <ele>225.80000305176</ele>
        <time>2012-03-28T09:00:55.000Z</time>
      </trkpt>
      <trkpt lat="47.7637" lon="6.07904">
        <ele>225.80000305176</ele>
        <time>2012-03-28T09:00:58.000Z</time>
      </trkpt>
      <trkpt lat="47.76369" lon="6.07907">
        <ele>225.80000305176</ele>
        <time>2012-03-28T09:01:00.000Z</time>
      </trkpt>
      <trkpt lat="47.76364" lon="6.07909">
        <ele>225.80000305176</ele>
        <time>2012-03-28T09:01:05.000Z</time>
      </trkpt>
      <trkpt lat="47.76365" lon="6.07908">
        <ele>225.80000305176</ele>
        <time>2012-03-28T09:01:38.000Z</time>
      </trkpt>
      <trkpt lat="47.76368" lon="6.07909">
        <ele>225.80000305176</ele>
        <time>2012-03-28T09:01:41.000Z</time>
      </trkpt>
      <trkpt lat="47.7637" lon="6.07909">
        <ele>225.80000305176</ele>
        <time>2012-03-28T09:01:45.000Z</time>
      </trkpt>
      <trkpt lat="47.7637" lon="6.07907">
        <ele>225.80000305176</ele>
        <time>2012-03-28T09:01:46.000Z</time>
      </trkpt>
      <trkpt lat="47.7637" lon="6.07908">
        <ele>225.80000305176</ele>
        <time>2012-03-28T09:01:47.000Z</time>
      </trkpt>
      <trkpt lat="47.7637" lon="6.07907">
        <ele>225.80000305176</ele>
        <time>2012-03-28T09:06:57.000Z</time>
      </trkpt>
      <trkpt lat="47.76371" lon="6.07906">
        <ele>225.80000305176</ele>
        <time>2012-03-28T09:06:58.000Z</time>
      </trkpt>
      <trkpt lat="47.76371" lon="6.07901">
        <ele>225.80000305176</ele>
        <time>2012-03-28T09:07:00.000Z</time>
      </trkpt>
      <trkpt lat="47.76367" lon="6.07888">
        <ele>225.80000305176</ele>
        <time>2012-03-28T09:07:05.000Z</time>
      </trkpt>
      <trkpt lat="47.76366" lon="6.07885">
        <ele>225.80000305176</ele>
        <time>2012-03-28T09:07:06.000Z</time>
      </trkpt>
      <trkpt lat="47.7636" lon="6.07869">
        <ele>225.80000305176</ele>
        <time>2012-03-28T09:07:10.000Z</time>
      </trkpt>
      <trkpt lat="47.7635" lon="6.07839">
        <ele>225.80000305176</ele>
        <time>2012-03-28T09:07:17.000Z</time>
      </trkpt>
      <trkpt lat="47.76336" lon="6.07796">
        <ele>225.80000305176</ele>
        <time>2012-03-28T09:07:25.000Z</time>
      </trkpt>
      <trkpt lat="47.76329" lon="6.07768">
        <ele>225.80000305176</ele>
        <time>2012-03-28T09:07:31.000Z</time>
      </trkpt>
      <trkpt lat="47.76328" lon="6.07764">
        <ele>225.80000305176</ele>
        <time>2012-03-28T09:07:35.000Z</time>
      </trkpt>
      <trkpt lat="47.76328" lon="6.07762">
        <ele>225.80000305176</ele>
        <time>2012-03-28T09:07:42.000Z</time>
      </trkpt>
      <trkpt lat="47.76327" lon="6.07751">
        <ele>225.80000305176</ele>
        <time>2012-03-28T09:07:47.000Z</time>
      </trkpt>
      <trkpt lat="47.76325" lon="6.07732">
        <ele>225.39999389648</ele>
        <time>2012-03-28T09:07:51.000Z</time>
      </trkpt>
      <trkpt lat="47.76325" lon="6.07727">
        <ele>225</ele>
        <time>2012-03-28T09:07:52.000Z</time>
      </trkpt>
      <trkpt lat="47.76324" lon="6.07721">
        <ele>224.39999389648</ele>
        <time>2012-03-28T09:07:53.000Z</time>
      </trkpt>
      <trkpt lat="47.76324" lon="6.07716">
        <ele>224</ele>
        <time>2012-03-28T09:07:54.000Z</time>
      </trkpt>
      <trkpt lat="47.76323" lon="6.07711">
        <ele>223.60000610352</ele>
        <time>2012-03-28T09:07:55.000Z</time>
      </trkpt>
      <trkpt lat="47.7632" lon="6.07693">
        <ele>223.60000610352</ele>
        <time>2012-03-28T09:07:58.000Z</time>
      </trkpt>
      <trkpt lat="47.76318" lon="6.07668">
        <ele>223.60000610352</ele>
        <time>2012-03-28T09:08:02.000Z</time>
      </trkpt>
      <trkpt lat="47.76315" lon="6.07649">
        <ele>223.60000610352</ele>
        <time>2012-03-28T09:08:05.000Z</time>
      </trkpt>
      <trkpt lat="47.76312" lon="6.07628">
        <ele>223.60000610352</ele>
        <time>2012-03-28T09:08:08.000Z</time>
      </trkpt>
      <trkpt lat="47.76307" lon="6.07602">
        <ele>223.60000610352</ele>
        <time>2012-03-28T09:08:12.000Z</time>
      </trkpt>
      <trkpt lat="47.763" lon="6.07559">
        <ele>223.60000610352</ele>
        <time>2012-03-28T09:08:19.000Z</time>
      </trkpt>
      <trkpt lat="47.76299" lon="6.07553">
        <ele>223.60000610352</ele>
        <time>2012-03-28T09:08:20.000Z</time>
      </trkpt>
      <trkpt lat="47.76293" lon="6.07515">
        <ele>223.60000610352</ele>
        <time>2012-03-28T09:08:27.000Z</time>
      </trkpt>
      <trkpt lat="47.76282" lon="6.07481">
        <ele>223.60000610352</ele>
        <time>2012-03-28T09:08:34.000Z</time>
      </trkpt>
      <trkpt lat="47.76277" lon="6.07468">
        <ele>223.60000610352</ele>
        <time>2012-03-28T09:08:39.000Z</time>
      </trkpt>
      <trkpt lat="47.76273" lon="6.07453">
        <ele>223.60000610352</ele>
        <time>2012-03-28T09:08:44.000Z</time>
      </trkpt>
      <trkpt lat="47.76273" lon="6.07453">
        <ele>223.60000610352</ele>
        <time>2012-03-28T09:08:45.000Z</time>
      </trkpt>
      <trkpt lat="47.76273" lon="6.07453">
        <ele>223.60000610352</ele>
        <time>2012-03-28T09:09:09.000Z</time>
      </trkpt>
      <trkpt lat="47.76273" lon="6.07453">
        <ele>223.60000610352</ele>
        <time>2012-03-28T09:09:11.000Z</time>
      </trkpt>
      <trkpt lat="47.76272" lon="6.07447">
        <ele>223.60000610352</ele>
        <time>2012-03-28T09:09:16.000Z</time>
      </trkpt>
      <trkpt lat="47.76272" lon="6.07444">
        <ele>223.60000610352</ele>
        <time>2012-03-28T09:09:17.000Z</time>
      </trkpt>
      <trkpt lat="47.76272" lon="6.07435">
        <ele>223.60000610352</ele>
        <time>2012-03-28T09:09:21.000Z</time>
      </trkpt>
      <trkpt lat="47.76269" lon="6.07424">
        <ele>223.60000610352</ele>
        <time>2012-03-28T09:09:28.000Z</time>
      </trkpt>
      <trkpt lat="47.76264" lon="6.07407">
        <ele>223.60000610352</ele>
        <time>2012-03-28T09:09:37.000Z</time>
      </trkpt>
      <trkpt lat="47.7626" lon="6.07381">
        <ele>223.60000610352</ele>
        <time>2012-03-28T09:09:45.000Z</time>
      </trkpt>
      <trkpt lat="47.76256" lon="6.07362">
        <ele>223.60000610352</ele>
        <time>2012-03-28T09:09:51.000Z</time>
      </trkpt>
      <trkpt lat="47.76249" lon="6.07338">
        <ele>223.60000610352</ele>
        <time>2012-03-28T09:09:57.000Z</time>
      </trkpt>
      <trkpt lat="47.7624" lon="6.073">
        <ele>223.60000610352</ele>
        <time>2012-03-28T09:10:04.000Z</time>
      </trkpt>
      <trkpt lat="47.76229" lon="6.07269">
        <ele>223.60000610352</ele>
        <time>2012-03-28T09:10:10.000Z</time>
      </trkpt>
      <trkpt lat="47.76218" lon="6.07232">
        <ele>223.60000610352</ele>
        <time>2012-03-28T09:10:17.000Z</time>
      </trkpt>
      <trkpt lat="47.7621" lon="6.072">
        <ele>223.60000610352</ele>
        <time>2012-03-28T09:10:23.000Z</time>
      </trkpt>
      <trkpt lat="47.76208" lon="6.07195">
        <ele>223.60000610352</ele>
        <time>2012-03-28T09:10:24.000Z</time>
      </trkpt>
      <trkpt lat="47.76202" lon="6.07178">
        <ele>223.60000610352</ele>
        <time>2012-03-28T09:10:27.000Z</time>
      </trkpt>
      <trkpt lat="47.76199" lon="6.07167">
        <ele>223.60000610352</ele>
        <time>2012-03-28T09:10:29.000Z</time>
      </trkpt>
      <trkpt lat="47.76188" lon="6.07125">
        <ele>223.60000610352</ele>
        <time>2012-03-28T09:10:36.000Z</time>
      </trkpt>
      <trkpt lat="47.76183" lon="6.07106">
        <ele>222.80000305176</ele>
        <time>2012-03-28T09:10:39.000Z</time>
      </trkpt>
      <trkpt lat="47.76182" lon="6.07101">
        <ele>222.39999389648</ele>
        <time>2012-03-28T09:10:40.000Z</time>
      </trkpt>
      <trkpt lat="47.7618" lon="6.07095">
        <ele>222</ele>
        <time>2012-03-28T09:10:41.000Z</time>
      </trkpt>
      <trkpt lat="47.76178" lon="6.07089">
        <ele>221.60000610352</ele>
        <time>2012-03-28T09:10:42.000Z</time>
      </trkpt>
      <trkpt lat="47.76175" lon="6.07077">
        <ele>221.60000610352</ele>
        <time>2012-03-28T09:10:44.000Z</time>
      </trkpt>
      <trkpt lat="47.76169" lon="6.07059">
        <ele>221.60000610352</ele>
        <time>2012-03-28T09:10:47.000Z</time>
      </trkpt>
      <trkpt lat="47.76166" lon="6.07047">
        <ele>221.60000610352</ele>
        <time>2012-03-28T09:10:49.000Z</time>
      </trkpt>
      <trkpt lat="47.76163" lon="6.07036">
        <ele>221.60000610352</ele>
        <time>2012-03-28T09:10:51.000Z</time>
      </trkpt>
      <trkpt lat="47.76154" lon="6.06999">
        <ele>221.60000610352</ele>
        <time>2012-03-28T09:10:57.000Z</time>
      </trkpt>
      <trkpt lat="47.76147" lon="6.0697">
        <ele>221.60000610352</ele>
        <time>2012-03-28T09:11:02.000Z</time>
      </trkpt>
      <trkpt lat="47.76145" lon="6.06964">
        <ele>221.60000610352</ele>
        <time>2012-03-28T09:11:03.000Z</time>
      </trkpt>
      <trkpt lat="47.76138" lon="6.06935">
        <ele>221.60000610352</ele>
        <time>2012-03-28T09:11:09.000Z</time>
      </trkpt>
      <trkpt lat="47.76129" lon="6.06897">
        <ele>221.60000610352</ele>
        <time>2012-03-28T09:11:17.000Z</time>
      </trkpt>
      <trkpt lat="47.76117" lon="6.06851">
        <ele>221.60000610352</ele>
        <time>2012-03-28T09:11:26.000Z</time>
      </trkpt>
      <trkpt lat="47.76107" lon="6.06816">
        <ele>221.60000610352</ele>
        <time>2012-03-28T09:11:33.000Z</time>
      </trkpt>
      <trkpt lat="47.76098" lon="6.06782">
        <ele>221.60000610352</ele>
        <time>2012-03-28T09:11:40.000Z</time>
      </trkpt>
      <trkpt lat="47.76093" lon="6.06767">
        <ele>221.60000610352</ele>
        <time>2012-03-28T09:11:43.000Z</time>
      </trkpt>
      <trkpt lat="47.7609" lon="6.06755">
        <ele>221.60000610352</ele>
        <time>2012-03-28T09:11:45.000Z</time>
      </trkpt>
      <trkpt lat="47.76084" lon="6.06737">
        <ele>221.60000610352</ele>
        <time>2012-03-28T09:11:48.000Z</time>
      </trkpt>
      <trkpt lat="47.76079" lon="6.06715">
        <ele>221.60000610352</ele>
        <time>2012-03-28T09:11:52.000Z</time>
      </trkpt>
      <trkpt lat="47.76072" lon="6.0669">
        <ele>221.60000610352</ele>
        <time>2012-03-28T09:11:57.000Z</time>
      </trkpt>
      <trkpt lat="47.76064" lon="6.06658">
        <ele>221.60000610352</ele>
        <time>2012-03-28T09:12:03.000Z</time>
      </trkpt>
      <trkpt lat="47.76057" lon="6.06628">
        <ele>221.60000610352</ele>
        <time>2012-03-28T09:12:08.000Z</time>
      </trkpt>
      <trkpt lat="47.76055" lon="6.06622">
        <ele>221.60000610352</ele>
        <time>2012-03-28T09:12:09.000Z</time>
      </trkpt>
      <trkpt lat="47.76046" lon="6.06586">
        <ele>221.60000610352</ele>
        <time>2012-03-28T09:12:16.000Z</time>
      </trkpt>
      <trkpt lat="47.76034" lon="6.06545">
        <ele>221.60000610352</ele>
        <time>2012-03-28T09:12:24.000Z</time>
      </trkpt>
      <trkpt lat="47.76025" lon="6.06512">
        <ele>221.60000610352</ele>
        <time>2012-03-28T09:12:30.000Z</time>
      </trkpt>
      <trkpt lat="47.76013" lon="6.06468">
        <ele>221.60000610352</ele>
        <time>2012-03-28T09:12:38.000Z</time>
      </trkpt>
      <trkpt lat="47.76003" lon="6.06439">
        <ele>221.60000610352</ele>
        <time>2012-03-28T09:12:44.000Z</time>
      </trkpt>
      <trkpt lat="47.75993" lon="6.06402">
        <ele>221.60000610352</ele>
        <time>2012-03-28T09:12:51.000Z</time>
      </trkpt>
      <trkpt lat="47.75982" lon="6.0636">
        <ele>221.60000610352</ele>
        <time>2012-03-28T09:12:59.000Z</time>
      </trkpt>
      <trkpt lat="47.75969" lon="6.0631">
        <ele>221.60000610352</ele>
        <time>2012-03-28T09:13:08.000Z</time>
      </trkpt>
      <trkpt lat="47.75959" lon="6.06272">
        <ele>221.60000610352</ele>
        <time>2012-03-28T09:13:15.000Z</time>
      </trkpt>
      <trkpt lat="47.75948" lon="6.06234">
        <ele>221.60000610352</ele>
        <time>2012-03-28T09:13:22.000Z</time>
      </trkpt>
      <trkpt lat="47.75946" lon="6.06229">
        <ele>221.60000610352</ele>
        <time>2012-03-28T09:13:23.000Z</time>
      </trkpt>
      <trkpt lat="47.75939" lon="6.06199">
        <ele>221.60000610352</ele>
        <time>2012-03-28T09:13:28.000Z</time>
      </trkpt>
      <trkpt lat="47.75938" lon="6.06193">
        <ele>221.60000610352</ele>
        <time>2012-03-28T09:13:29.000Z</time>
      </trkpt>
      <trkpt lat="47.75925" lon="6.06146">
        <ele>221.60000610352</ele>
        <time>2012-03-28T09:13:37.000Z</time>
      </trkpt>
      <trkpt lat="47.75915" lon="6.06108">
        <ele>221.60000610352</ele>
        <time>2012-03-28T09:13:44.000Z</time>
      </trkpt>
      <trkpt lat="47.75904" lon="6.06073">
        <ele>221.60000610352</ele>
        <time>2012-03-28T09:13:51.000Z</time>
      </trkpt>
      <trkpt lat="47.75896" lon="6.06037">
        <ele>221.60000610352</ele>
        <time>2012-03-28T09:13:58.000Z</time>
      </trkpt>
      <trkpt lat="47.75887" lon="6.06007">
        <ele>221.60000610352</ele>
        <time>2012-03-28T09:14:04.000Z</time>
      </trkpt>
      <trkpt lat="47.75879" lon="6.05978">
        <ele>221.60000610352</ele>
        <time>2012-03-28T09:14:10.000Z</time>
      </trkpt>
      <trkpt lat="47.75869" lon="6.05944">
        <ele>221.60000610352</ele>
        <time>2012-03-28T09:14:17.000Z</time>
      </trkpt>
      <trkpt lat="47.75857" lon="6.059">
        <ele>221.60000610352</ele>
        <time>2012-03-28T09:14:25.000Z</time>
      </trkpt>
      <trkpt lat="47.75847" lon="6.05861">
        <ele>221.60000610352</ele>
        <time>2012-03-28T09:14:32.000Z</time>
      </trkpt>
      <trkpt lat="47.75836" lon="6.05813">
        <ele>221.60000610352</ele>
        <time>2012-03-28T09:14:40.000Z</time>
      </trkpt>
      <trkpt lat="47.75822" lon="6.05751">
        <ele>221.60000610352</ele>
        <time>2012-03-28T09:14:49.000Z</time>
      </trkpt>
      <trkpt lat="47.75813" lon="6.05721">
        <ele>221.60000610352</ele>
        <time>2012-03-28T09:14:54.000Z</time>
      </trkpt>
      <trkpt lat="47.75811" lon="6.05715">
        <ele>221.60000610352</ele>
        <time>2012-03-28T09:14:55.000Z</time>
      </trkpt>
      <trkpt lat="47.75807" lon="6.05698">
        <ele>221.60000610352</ele>
        <time>2012-03-28T09:14:58.000Z</time>
      </trkpt>
      <trkpt lat="47.75803" lon="6.05682">
        <ele>221.60000610352</ele>
        <time>2012-03-28T09:15:01.000Z</time>
      </trkpt>
      <trkpt lat="47.75802" lon="6.05677">
        <ele>221.60000610352</ele>
        <time>2012-03-28T09:15:02.000Z</time>
      </trkpt>
      <trkpt lat="47.75793" lon="6.05644">
        <ele>221.60000610352</ele>
        <time>2012-03-28T09:15:08.000Z</time>
      </trkpt>
      <trkpt lat="47.75784" lon="6.05608">
        <ele>221.60000610352</ele>
        <time>2012-03-28T09:15:15.000Z</time>
      </trkpt>
      <trkpt lat="47.7577" lon="6.0556">
        <ele>221.60000610352</ele>
        <time>2012-03-28T09:15:24.000Z</time>
      </trkpt>
      <trkpt lat="47.75762" lon="6.0553">
        <ele>221.60000610352</ele>
        <time>2012-03-28T09:15:29.000Z</time>
      </trkpt>
      <trkpt lat="47.75758" lon="6.05518">
        <ele>221.60000610352</ele>
        <time>2012-03-28T09:15:31.000Z</time>
      </trkpt>
      <trkpt lat="47.75749" lon="6.05488">
        <ele>221.60000610352</ele>
        <time>2012-03-28T09:15:37.000Z</time>
      </trkpt>
      <trkpt lat="47.75738" lon="6.0545">
        <ele>221.60000610352</ele>
        <time>2012-03-28T09:15:45.000Z</time>
      </trkpt>
      <trkpt lat="47.75728" lon="6.05408">
        <ele>221.60000610352</ele>
        <time>2012-03-28T09:15:53.000Z</time>
      </trkpt>
      <trkpt lat="47.75727" lon="6.05402">
        <ele>221.60000610352</ele>
        <time>2012-03-28T09:15:54.000Z</time>
      </trkpt>
      <trkpt lat="47.75724" lon="6.05379">
        <ele>221.60000610352</ele>
        <time>2012-03-28T09:15:58.000Z</time>
      </trkpt>
      <trkpt lat="47.75717" lon="6.05343">
        <ele>221.60000610352</ele>
        <time>2012-03-28T09:16:05.000Z</time>
      </trkpt>
      <trkpt lat="47.75704" lon="6.05311">
        <ele>221.60000610352</ele>
        <time>2012-03-28T09:16:12.000Z</time>
      </trkpt>
      <trkpt lat="47.75695" lon="6.05285">
        <ele>221.60000610352</ele>
        <time>2012-03-28T09:16:18.000Z</time>
      </trkpt>
      <trkpt lat="47.75687" lon="6.05258">
        <ele>221.60000610352</ele>
        <time>2012-03-28T09:16:24.000Z</time>
      </trkpt>
      <trkpt lat="47.75678" lon="6.05219">
        <ele>221.60000610352</ele>
        <time>2012-03-28T09:16:31.000Z</time>
      </trkpt>
      <trkpt lat="47.75675" lon="6.05208">
        <ele>221.60000610352</ele>
        <time>2012-03-28T09:16:33.000Z</time>
      </trkpt>
      <trkpt lat="47.75669" lon="6.05184">
        <ele>221.60000610352</ele>
        <time>2012-03-28T09:16:37.000Z</time>
      </trkpt>
      <trkpt lat="47.75664" lon="6.05166">
        <ele>221.60000610352</ele>
        <time>2012-03-28T09:16:40.000Z</time>
      </trkpt>
      <trkpt lat="47.75659" lon="6.05147">
        <ele>221.60000610352</ele>
        <time>2012-03-28T09:16:43.000Z</time>
      </trkpt>
      <trkpt lat="47.75648" lon="6.05094">
        <ele>221.60000610352</ele>
        <time>2012-03-28T09:16:51.000Z</time>
      </trkpt>
      <trkpt lat="47.75641" lon="6.05059">
        <ele>221.60000610352</ele>
        <time>2012-03-28T09:16:57.000Z</time>
      </trkpt>
      <trkpt lat="47.7564" lon="6.05053">
        <ele>221.60000610352</ele>
        <time>2012-03-28T09:16:58.000Z</time>
      </trkpt>
      <trkpt lat="47.75637" lon="6.05035">
        <ele>221.60000610352</ele>
        <time>2012-03-28T09:17:01.000Z</time>
      </trkpt>
      <trkpt lat="47.75635" lon="6.05018">
        <ele>221.60000610352</ele>
        <time>2012-03-28T09:17:04.000Z</time>
      </trkpt>
      <trkpt lat="47.75632" lon="6.0498">
        <ele>221.60000610352</ele>
        <time>2012-03-28T09:17:11.000Z</time>
      </trkpt>
      <trkpt lat="47.75631" lon="6.0494">
        <ele>221.60000610352</ele>
        <time>2012-03-28T09:17:19.000Z</time>
      </trkpt>
      <trkpt lat="47.7563" lon="6.04901">
        <ele>221.60000610352</ele>
        <time>2012-03-28T09:17:27.000Z</time>
      </trkpt>
      <trkpt lat="47.7563" lon="6.04891">
        <ele>221.60000610352</ele>
        <time>2012-03-28T09:17:29.000Z</time>
      </trkpt>
      <trkpt lat="47.75632" lon="6.04861">
        <ele>221.60000610352</ele>
        <time>2012-03-28T09:17:35.000Z</time>
      </trkpt>
      <trkpt lat="47.75635" lon="6.04827">
        <ele>221.60000610352</ele>
        <time>2012-03-28T09:17:42.000Z</time>
      </trkpt>
      <trkpt lat="47.75639" lon="6.04795">
        <ele>221.60000610352</ele>
        <time>2012-03-28T09:17:49.000Z</time>
      </trkpt>
      <trkpt lat="47.75644" lon="6.04767">
        <ele>221.60000610352</ele>
        <time>2012-03-28T09:17:55.000Z</time>
      </trkpt>
      <trkpt lat="47.75652" lon="6.04729">
        <ele>221.60000610352</ele>
        <time>2012-03-28T09:18:03.000Z</time>
      </trkpt>
      <trkpt lat="47.75658" lon="6.04701">
        <ele>221.60000610352</ele>
        <time>2012-03-28T09:18:10.000Z</time>
      </trkpt>
      <trkpt lat="47.75656" lon="6.04697">
        <ele>221.60000610352</ele>
        <time>2012-03-28T09:18:11.000Z</time>
      </trkpt>
      <trkpt lat="47.75644" lon="6.04687">
        <ele>221.60000610352</ele>
        <time>2012-03-28T09:18:15.000Z</time>
      </trkpt>
      <trkpt lat="47.75631" lon="6.04686">
        <ele>221.60000610352</ele>
        <time>2012-03-28T09:18:18.000Z</time>
      </trkpt>
      <trkpt lat="47.75622" lon="6.04687">
        <ele>221.60000610352</ele>
        <time>2012-03-28T09:18:20.000Z</time>
      </trkpt>
      <trkpt lat="47.75612" lon="6.0469">
        <ele>221.60000610352</ele>
        <time>2012-03-28T09:18:22.000Z</time>
      </trkpt>
      <trkpt lat="47.75593" lon="6.04697">
        <ele>221.60000610352</ele>
        <time>2012-03-28T09:18:26.000Z</time>
      </trkpt>
      <trkpt lat="47.75575" lon="6.04708">
        <ele>221.60000610352</ele>
        <time>2012-03-28T09:18:30.000Z</time>
      </trkpt>
      <trkpt lat="47.75566" lon="6.04716">
        <ele>221.60000610352</ele>
        <time>2012-03-28T09:18:32.000Z</time>
      </trkpt>
      <trkpt lat="47.75535" lon="6.04747">
        <ele>221.60000610352</ele>
        <time>2012-03-28T09:18:39.000Z</time>
      </trkpt>
      <trkpt lat="47.75526" lon="6.04755">
        <ele>221.60000610352</ele>
        <time>2012-03-28T09:18:41.000Z</time>
      </trkpt>
      <trkpt lat="47.75507" lon="6.04772">
        <ele>221.60000610352</ele>
        <time>2012-03-28T09:18:45.000Z</time>
      </trkpt>
      <trkpt lat="47.75474" lon="6.04806">
        <ele>221.60000610352</ele>
        <time>2012-03-28T09:18:52.000Z</time>
      </trkpt>
      <trkpt lat="47.75447" lon="6.04829">
        <ele>221.60000610352</ele>
        <time>2012-03-28T09:18:58.000Z</time>
      </trkpt>
      <trkpt lat="47.75415" lon="6.0485">
        <ele>221.60000610352</ele>
        <time>2012-03-28T09:19:05.000Z</time>
      </trkpt>
      <trkpt lat="47.75377" lon="6.04866">
        <ele>221.60000610352</ele>
        <time>2012-03-28T09:19:12.000Z</time>
      </trkpt>
      <trkpt lat="47.75361" lon="6.04872">
        <ele>221</ele>
        <time>2012-03-28T09:19:15.000Z</time>
      </trkpt>
      <trkpt lat="47.75356" lon="6.04873">
        <ele>220.60000610352</ele>
        <time>2012-03-28T09:19:16.000Z</time>
      </trkpt>
      <trkpt lat="47.75351" lon="6.04875">
        <ele>219.80000305176</ele>
        <time>2012-03-28T09:19:17.000Z</time>
      </trkpt>
      <trkpt lat="47.75346" lon="6.04876">
        <ele>219.39999389648</ele>
        <time>2012-03-28T09:19:18.000Z</time>
      </trkpt>
      <trkpt lat="47.75341" lon="6.04878">
        <ele>219.39999389648</ele>
        <time>2012-03-28T09:19:19.000Z</time>
      </trkpt>
      <trkpt lat="47.75304" lon="6.0489">
        <ele>219.39999389648</ele>
        <time>2012-03-28T09:19:26.000Z</time>
      </trkpt>
      <trkpt lat="47.75269" lon="6.04902">
        <ele>219.39999389648</ele>
        <time>2012-03-28T09:19:33.000Z</time>
      </trkpt>
      <trkpt lat="47.75234" lon="6.04912">
        <ele>219.39999389648</ele>
        <time>2012-03-28T09:19:40.000Z</time>
      </trkpt>
      <trkpt lat="47.75191" lon="6.04924">
        <ele>219.39999389648</ele>
        <time>2012-03-28T09:19:48.000Z</time>
      </trkpt>
      <trkpt lat="47.75148" lon="6.04935">
        <ele>219.39999389648</ele>
        <time>2012-03-28T09:19:55.000Z</time>
      </trkpt>
      <trkpt lat="47.75105" lon="6.04945">
        <ele>219.39999389648</ele>
        <time>2012-03-28T09:20:02.000Z</time>
      </trkpt>
      <trkpt lat="47.75061" lon="6.04955">
        <ele>219.39999389648</ele>
        <time>2012-03-28T09:20:10.000Z</time>
      </trkpt>
      <trkpt lat="47.75028" lon="6.04962">
        <ele>219.39999389648</ele>
        <time>2012-03-28T09:20:17.000Z</time>
      </trkpt>
      <trkpt lat="47.74996" lon="6.0497">
        <ele>219.39999389648</ele>
        <time>2012-03-28T09:20:25.000Z</time>
      </trkpt>
      <trkpt lat="47.74959" lon="6.04978">
        <ele>219.39999389648</ele>
        <time>2012-03-28T09:20:34.000Z</time>
      </trkpt>
      <trkpt lat="47.74914" lon="6.04987">
        <ele>219.39999389648</ele>
        <time>2012-03-28T09:20:45.000Z</time>
      </trkpt>
      <trkpt lat="47.74879" lon="6.04996">
        <ele>219.39999389648</ele>
        <time>2012-03-28T09:20:53.000Z</time>
      </trkpt>
      <trkpt lat="47.74837" lon="6.05005">
        <ele>219.39999389648</ele>
        <time>2012-03-28T09:21:02.000Z</time>
      </trkpt>
      <trkpt lat="47.74797" lon="6.05014">
        <ele>219.39999389648</ele>
        <time>2012-03-28T09:21:10.000Z</time>
      </trkpt>
      <trkpt lat="47.74754" lon="6.05023">
        <ele>219.39999389648</ele>
        <time>2012-03-28T09:21:19.000Z</time>
      </trkpt>
      <trkpt lat="47.74722" lon="6.05029">
        <ele>219.39999389648</ele>
        <time>2012-03-28T09:21:26.000Z</time>
      </trkpt>
      <trkpt lat="47.74688" lon="6.05037">
        <ele>219.39999389648</ele>
        <time>2012-03-28T09:21:34.000Z</time>
      </trkpt>
      <trkpt lat="47.74653" lon="6.05047">
        <ele>219.39999389648</ele>
        <time>2012-03-28T09:21:42.000Z</time>
      </trkpt>
      <trkpt lat="47.74626" lon="6.05059">
        <ele>219.39999389648</ele>
        <time>2012-03-28T09:21:48.000Z</time>
      </trkpt>
      <trkpt lat="47.74605" lon="6.05072">
        <ele>219.39999389648</ele>
        <time>2012-03-28T09:21:53.000Z</time>
      </trkpt>
      <trkpt lat="47.74601" lon="6.05074">
        <ele>219.39999389648</ele>
        <time>2012-03-28T09:21:54.000Z</time>
      </trkpt>
      <trkpt lat="47.74593" lon="6.05078">
        <ele>219.39999389648</ele>
        <time>2012-03-28T09:21:56.000Z</time>
      </trkpt>
      <trkpt lat="47.74578" lon="6.05084">
        <ele>219.39999389648</ele>
        <time>2012-03-28T09:22:00.000Z</time>
      </trkpt>
      <trkpt lat="47.74569" lon="6.0509">
        <ele>219.39999389648</ele>
        <time>2012-03-28T09:22:04.000Z</time>
      </trkpt>
      <trkpt lat="47.74559" lon="6.05084">
        <ele>219.39999389648</ele>
        <time>2012-03-28T09:22:09.000Z</time>
      </trkpt>
      <trkpt lat="47.74554" lon="6.05068">
        <ele>219.39999389648</ele>
        <time>2012-03-28T09:22:12.000Z</time>
      </trkpt>
      <trkpt lat="47.74552" lon="6.0506">
        <ele>219.39999389648</ele>
        <time>2012-03-28T09:22:13.000Z</time>
      </trkpt>
      <trkpt lat="47.74551" lon="6.05053">
        <ele>219</ele>
        <time>2012-03-28T09:22:14.000Z</time>
      </trkpt>
      <trkpt lat="47.74548" lon="6.05047">
        <ele>218.39999389648</ele>
        <time>2012-03-28T09:22:15.000Z</time>
      </trkpt>
      <trkpt lat="47.74546" lon="6.05041">
        <ele>218</ele>
        <time>2012-03-28T09:22:16.000Z</time>
      </trkpt>
      <trkpt lat="47.74543" lon="6.05036">
        <ele>217.60000610352</ele>
        <time>2012-03-28T09:22:17.000Z</time>
      </trkpt>
      <trkpt lat="47.7454" lon="6.0503">
        <ele>217.19999694824</ele>
        <time>2012-03-28T09:22:18.000Z</time>
      </trkpt>
      <trkpt lat="47.74533" lon="6.05022">
        <ele>217.19999694824</ele>
        <time>2012-03-28T09:22:20.000Z</time>
      </trkpt>
      <trkpt lat="47.74519" lon="6.05006">
        <ele>217.19999694824</ele>
        <time>2012-03-28T09:22:24.000Z</time>
      </trkpt>
      <trkpt lat="47.74509" lon="6.04995">
        <ele>217.19999694824</ele>
        <time>2012-03-28T09:22:27.000Z</time>
      </trkpt>
      <trkpt lat="47.745" lon="6.04984">
        <ele>217.19999694824</ele>
        <time>2012-03-28T09:22:30.000Z</time>
      </trkpt>
      <trkpt lat="47.7447" lon="6.04952">
        <ele>217.19999694824</ele>
        <time>2012-03-28T09:22:39.000Z</time>
      </trkpt>
      <trkpt lat="47.74449" lon="6.04929">
        <ele>217.19999694824</ele>
        <time>2012-03-28T09:22:45.000Z</time>
      </trkpt>
      <trkpt lat="47.74445" lon="6.04925">
        <ele>217.19999694824</ele>
        <time>2012-03-28T09:22:46.000Z</time>
      </trkpt>
      <trkpt lat="47.74417" lon="6.04895">
        <ele>217.19999694824</ele>
        <time>2012-03-28T09:22:54.000Z</time>
      </trkpt>
      <trkpt lat="47.74387" lon="6.04865">
        <ele>217.19999694824</ele>
        <time>2012-03-28T09:23:01.000Z</time>
      </trkpt>
      <trkpt lat="47.7435" lon="6.04826">
        <ele>217.19999694824</ele>
        <time>2012-03-28T09:23:09.000Z</time>
      </trkpt>
      <trkpt lat="47.74325" lon="6.04801">
        <ele>217.19999694824</ele>
        <time>2012-03-28T09:23:16.000Z</time>
      </trkpt>
      <trkpt lat="47.74297" lon="6.04769">
        <ele>217.19999694824</ele>
        <time>2012-03-28T09:23:24.000Z</time>
      </trkpt>
      <trkpt lat="47.74273" lon="6.04743">
        <ele>217.19999694824</ele>
        <time>2012-03-28T09:23:30.000Z</time>
      </trkpt>
      <trkpt lat="47.74249" lon="6.04719">
        <ele>217.19999694824</ele>
        <time>2012-03-28T09:23:35.000Z</time>
      </trkpt>
      <trkpt lat="47.74221" lon="6.04689">
        <ele>217.19999694824</ele>
        <time>2012-03-28T09:23:42.000Z</time>
      </trkpt>
      <trkpt lat="47.74194" lon="6.04661">
        <ele>217.19999694824</ele>
        <time>2012-03-28T09:23:49.000Z</time>
      </trkpt>
      <trkpt lat="47.7419" lon="6.04657">
        <ele>217.19999694824</ele>
        <time>2012-03-28T09:23:50.000Z</time>
      </trkpt>
      <trkpt lat="47.74166" lon="6.04631">
        <ele>217.19999694824</ele>
        <time>2012-03-28T09:23:56.000Z</time>
      </trkpt>
      <trkpt lat="47.74137" lon="6.04599">
        <ele>217.19999694824</ele>
        <time>2012-03-28T09:24:03.000Z</time>
      </trkpt>
      <trkpt lat="47.74096" lon="6.04555">
        <ele>217.19999694824</ele>
        <time>2012-03-28T09:24:13.000Z</time>
      </trkpt>
      <trkpt lat="47.74063" lon="6.0452">
        <ele>217.19999694824</ele>
        <time>2012-03-28T09:24:21.000Z</time>
      </trkpt>
      <trkpt lat="47.74034" lon="6.04489">
        <ele>217.19999694824</ele>
        <time>2012-03-28T09:24:28.000Z</time>
      </trkpt>
      <trkpt lat="47.74006" lon="6.04459">
        <ele>217.19999694824</ele>
        <time>2012-03-28T09:24:35.000Z</time>
      </trkpt>
      <trkpt lat="47.73976" lon="6.04429">
        <ele>217.19999694824</ele>
        <time>2012-03-28T09:24:42.000Z</time>
      </trkpt>
      <trkpt lat="47.73957" lon="6.04407">
        <ele>217.19999694824</ele>
        <time>2012-03-28T09:24:47.000Z</time>
      </trkpt>
      <trkpt lat="47.73953" lon="6.04403">
        <ele>217.19999694824</ele>
        <time>2012-03-28T09:24:48.000Z</time>
      </trkpt>
      <trkpt lat="47.73918" lon="6.04365">
        <ele>217.19999694824</ele>
        <time>2012-03-28T09:24:57.000Z</time>
      </trkpt>
      <trkpt lat="47.73886" lon="6.0433">
        <ele>217.19999694824</ele>
        <time>2012-03-28T09:25:05.000Z</time>
      </trkpt>
      <trkpt lat="47.73851" lon="6.04302">
        <ele>217.19999694824</ele>
        <time>2012-03-28T09:25:13.000Z</time>
      </trkpt>
      <trkpt lat="47.73817" lon="6.04283">
        <ele>217.19999694824</ele>
        <time>2012-03-28T09:25:20.000Z</time>
      </trkpt>
      <trkpt lat="47.73779" lon="6.04261">
        <ele>217.19999694824</ele>
        <time>2012-03-28T09:25:28.000Z</time>
      </trkpt>
      <trkpt lat="47.73732" lon="6.04237">
        <ele>217.19999694824</ele>
        <time>2012-03-28T09:25:38.000Z</time>
      </trkpt>
      <trkpt lat="47.73711" lon="6.04236">
        <ele>217.19999694824</ele>
        <time>2012-03-28T09:25:42.000Z</time>
      </trkpt>
      <trkpt lat="47.73706" lon="6.04237">
        <ele>217.19999694824</ele>
        <time>2012-03-28T09:25:43.000Z</time>
      </trkpt>
      <trkpt lat="47.7367" lon="6.04253">
        <ele>217.19999694824</ele>
        <time>2012-03-28T09:25:50.000Z</time>
      </trkpt>
      <trkpt lat="47.73641" lon="6.04267">
        <ele>217.19999694824</ele>
        <time>2012-03-28T09:25:56.000Z</time>
      </trkpt>
      <trkpt lat="47.73604" lon="6.04284">
        <ele>217.19999694824</ele>
        <time>2012-03-28T09:26:04.000Z</time>
      </trkpt>
      <trkpt lat="47.73567" lon="6.04298">
        <ele>217.19999694824</ele>
        <time>2012-03-28T09:26:12.000Z</time>
      </trkpt>
      <trkpt lat="47.73557" lon="6.04299">
        <ele>217.19999694824</ele>
        <time>2012-03-28T09:26:14.000Z</time>
      </trkpt>
      <trkpt lat="47.73541" lon="6.04295">
        <ele>217.19999694824</ele>
        <time>2012-03-28T09:26:17.000Z</time>
      </trkpt>
      <trkpt lat="47.73531" lon="6.04289">
        <ele>217.19999694824</ele>
        <time>2012-03-28T09:26:19.000Z</time>
      </trkpt>
      <trkpt lat="47.73511" lon="6.04277">
        <ele>217.19999694824</ele>
        <time>2012-03-28T09:26:23.000Z</time>
      </trkpt>
      <trkpt lat="47.73479" lon="6.04254">
        <ele>217.19999694824</ele>
        <time>2012-03-28T09:26:30.000Z</time>
      </trkpt>
      <trkpt lat="47.73445" lon="6.04229">
        <ele>217.19999694824</ele>
        <time>2012-03-28T09:26:38.000Z</time>
      </trkpt>
      <trkpt lat="47.73416" lon="6.04211">
        <ele>217.19999694824</ele>
        <time>2012-03-28T09:26:45.000Z</time>
      </trkpt>
      <trkpt lat="47.73396" lon="6.04199">
        <ele>217.19999694824</ele>
        <time>2012-03-28T09:26:51.000Z</time>
      </trkpt>
      <trkpt lat="47.73383" lon="6.04188">
        <ele>217.60000610352</ele>
        <time>2012-03-28T09:26:56.000Z</time>
      </trkpt>
      <trkpt lat="47.7338" lon="6.04187">
        <ele>218</ele>
        <time>2012-03-28T09:26:57.000Z</time>
      </trkpt>
      <trkpt lat="47.73377" lon="6.04186">
        <ele>218.39999389648</ele>
        <time>2012-03-28T09:26:58.000Z</time>
      </trkpt>
      <trkpt lat="47.73374" lon="6.04185">
        <ele>218.80000305176</ele>
        <time>2012-03-28T09:26:59.000Z</time>
      </trkpt>
      <trkpt lat="47.73371" lon="6.04184">
        <ele>219.39999389648</ele>
        <time>2012-03-28T09:27:00.000Z</time>
      </trkpt>
      <trkpt lat="47.73359" lon="6.04183">
        <ele>219.39999389648</ele>
        <time>2012-03-28T09:27:04.000Z</time>
      </trkpt>
      <trkpt lat="47.73352" lon="6.04186">
        <ele>220.19999694824</ele>
        <time>2012-03-28T09:27:07.000Z</time>
      </trkpt>
      <trkpt lat="47.7335" lon="6.04188">
        <ele>220.60000610352</ele>
        <time>2012-03-28T09:27:08.000Z</time>
      </trkpt>
      <trkpt lat="47.73348" lon="6.04191">
        <ele>221</ele>
        <time>2012-03-28T09:27:09.000Z</time>
      </trkpt>
      <trkpt lat="47.73347" lon="6.04196">
        <ele>221.39999389648</ele>
        <time>2012-03-28T09:27:10.000Z</time>
      </trkpt>
      <trkpt lat="47.7334" lon="6.04228">
        <ele>221.39999389648</ele>
        <time>2012-03-28T09:27:17.000Z</time>
      </trkpt>
      <trkpt lat="47.73332" lon="6.04255">
        <ele>221.39999389648</ele>
        <time>2012-03-28T09:27:24.000Z</time>
      </trkpt>
      <trkpt lat="47.73326" lon="6.04276">
        <ele>221</ele>
        <time>2012-03-28T09:27:27.000Z</time>
      </trkpt>
      <trkpt lat="47.73325" lon="6.04285">
        <ele>220.60000610352</ele>
        <time>2012-03-28T09:27:28.000Z</time>
      </trkpt>
      <trkpt lat="47.73324" lon="6.04293">
        <ele>220.19999694824</ele>
        <time>2012-03-28T09:27:29.000Z</time>
      </trkpt>
      <trkpt lat="47.73323" lon="6.043">
        <ele>219.60000610352</ele>
        <time>2012-03-28T09:27:30.000Z</time>
      </trkpt>
      <trkpt lat="47.73321" lon="6.04307">
        <ele>219.19999694824</ele>
        <time>2012-03-28T09:27:31.000Z</time>
      </trkpt>
      <trkpt lat="47.73319" lon="6.04321">
        <ele>219.19999694824</ele>
        <time>2012-03-28T09:27:33.000Z</time>
      </trkpt>
      <trkpt lat="47.73314" lon="6.04356">
        <ele>219.19999694824</ele>
        <time>2012-03-28T09:27:39.000Z</time>
      </trkpt>
      <trkpt lat="47.73311" lon="6.04371">
        <ele>219.19999694824</ele>
        <time>2012-03-28T09:27:42.000Z</time>
      </trkpt>
      <trkpt lat="47.73309" lon="6.04387">
        <ele>219.19999694824</ele>
        <time>2012-03-28T09:27:46.000Z</time>
      </trkpt>
      <trkpt lat="47.73307" lon="6.04409">
        <ele>219.19999694824</ele>
        <time>2012-03-28T09:27:51.000Z</time>
      </trkpt>
      <trkpt lat="47.73305" lon="6.04418">
        <ele>219.80000305176</ele>
        <time>2012-03-28T09:27:54.000Z</time>
      </trkpt>
      <trkpt lat="47.73304" lon="6.0442">
        <ele>220.19999694824</ele>
        <time>2012-03-28T09:27:55.000Z</time>
      </trkpt>
      <trkpt lat="47.73304" lon="6.04422">
        <ele>221</ele>
        <time>2012-03-28T09:27:56.000Z</time>
      </trkpt>
      <trkpt lat="47.73304" lon="6.04424">
        <ele>221.60000610352</ele>
        <time>2012-03-28T09:27:57.000Z</time>
      </trkpt>
      <trkpt lat="47.73301" lon="6.0444">
        <ele>221.60000610352</ele>
        <time>2012-03-28T09:28:03.000Z</time>
      </trkpt>
      <trkpt lat="47.73297" lon="6.04459">
        <ele>221.60000610352</ele>
        <time>2012-03-28T09:28:09.000Z</time>
      </trkpt>
      <trkpt lat="47.73295" lon="6.04472">
        <ele>221.60000610352</ele>
        <time>2012-03-28T09:28:13.000Z</time>
      </trkpt>
      <trkpt lat="47.73291" lon="6.0448">
        <ele>221.60000610352</ele>
        <time>2012-03-28T09:28:15.000Z</time>
      </trkpt>
      <trkpt lat="47.73281" lon="6.04494">
        <ele>221.60000610352</ele>
        <time>2012-03-28T09:28:18.000Z</time>
      </trkpt>
      <trkpt lat="47.73277" lon="6.04502">
        <ele>221.60000610352</ele>
        <time>2012-03-28T09:28:19.000Z</time>
      </trkpt>
      <trkpt lat="47.73273" lon="6.0451">
        <ele>221</ele>
        <time>2012-03-28T09:28:20.000Z</time>
      </trkpt>
      <trkpt lat="47.7327" lon="6.04519">
        <ele>220</ele>
        <time>2012-03-28T09:28:21.000Z</time>
      </trkpt>
      <trkpt lat="47.73267" lon="6.04528">
        <ele>219.60000610352</ele>
        <time>2012-03-28T09:28:22.000Z</time>
      </trkpt>
      <trkpt lat="47.73264" lon="6.04535">
        <ele>219.19999694824</ele>
        <time>2012-03-28T09:28:23.000Z</time>
      </trkpt>
      <trkpt lat="47.73257" lon="6.04556">
        <ele>218.80000305176</ele>
        <time>2012-03-28T09:28:26.000Z</time>
      </trkpt>
      <trkpt lat="47.73255" lon="6.04563">
        <ele>218.39999389648</ele>
        <time>2012-03-28T09:28:27.000Z</time>
      </trkpt>
      <trkpt lat="47.73253" lon="6.04568">
        <ele>218</ele>
        <time>2012-03-28T09:28:28.000Z</time>
      </trkpt>
      <trkpt lat="47.73251" lon="6.04574">
        <ele>217.60000610352</ele>
        <time>2012-03-28T09:28:29.000Z</time>
      </trkpt>
      <trkpt lat="47.73249" lon="6.04578">
        <ele>217.19999694824</ele>
        <time>2012-03-28T09:28:30.000Z</time>
      </trkpt>
      <trkpt lat="47.73244" lon="6.0459">
        <ele>217.19999694824</ele>
        <time>2012-03-28T09:28:33.000Z</time>
      </trkpt>
      <trkpt lat="47.73231" lon="6.04618">
        <ele>217.19999694824</ele>
        <time>2012-03-28T09:28:40.000Z</time>
      </trkpt>
      <trkpt lat="47.73215" lon="6.04652">
        <ele>217.19999694824</ele>
        <time>2012-03-28T09:28:48.000Z</time>
      </trkpt>
      <trkpt lat="47.73202" lon="6.04677">
        <ele>217.19999694824</ele>
        <time>2012-03-28T09:28:54.000Z</time>
      </trkpt>
      <trkpt lat="47.73192" lon="6.04697">
        <ele>217.19999694824</ele>
        <time>2012-03-28T09:29:00.000Z</time>
      </trkpt>
      <trkpt lat="47.73176" lon="6.04732">
        <ele>217.19999694824</ele>
        <time>2012-03-28T09:29:11.000Z</time>
      </trkpt>
      <trkpt lat="47.73166" lon="6.04761">
        <ele>217.19999694824</ele>
        <time>2012-03-28T09:29:19.000Z</time>
      </trkpt>
      <trkpt lat="47.73161" lon="6.04787">
        <ele>217.19999694824</ele>
        <time>2012-03-28T09:29:25.000Z</time>
      </trkpt>
      <trkpt lat="47.73151" lon="6.04807">
        <ele>217.19999694824</ele>
        <time>2012-03-28T09:29:30.000Z</time>
      </trkpt>
      <trkpt lat="47.7314" lon="6.04828">
        <ele>217.19999694824</ele>
        <time>2012-03-28T09:29:36.000Z</time>
      </trkpt>
      <trkpt lat="47.73129" lon="6.04849">
        <ele>217.19999694824</ele>
        <time>2012-03-28T09:29:41.000Z</time>
      </trkpt>
      <trkpt lat="47.73106" lon="6.04875">
        <ele>217.19999694824</ele>
        <time>2012-03-28T09:29:48.000Z</time>
      </trkpt>
      <trkpt lat="47.73096" lon="6.04889">
        <ele>217.19999694824</ele>
        <time>2012-03-28T09:29:53.000Z</time>
      </trkpt>
      <trkpt lat="47.73081" lon="6.04901">
        <ele>217.19999694824</ele>
        <time>2012-03-28T09:29:59.000Z</time>
      </trkpt>
      <trkpt lat="47.73064" lon="6.04915">
        <ele>217.19999694824</ele>
        <time>2012-03-28T09:30:06.000Z</time>
      </trkpt>
      <trkpt lat="47.73045" lon="6.04928">
        <ele>217.19999694824</ele>
        <time>2012-03-28T09:30:13.000Z</time>
      </trkpt>
      <trkpt lat="47.73027" lon="6.04938">
        <ele>217.19999694824</ele>
        <time>2012-03-28T09:30:19.000Z</time>
      </trkpt>
      <trkpt lat="47.7301" lon="6.04949">
        <ele>217.19999694824</ele>
        <time>2012-03-28T09:30:25.000Z</time>
      </trkpt>
      <trkpt lat="47.72993" lon="6.04956">
        <ele>217.19999694824</ele>
        <time>2012-03-28T09:30:31.000Z</time>
      </trkpt>
      <trkpt lat="47.72977" lon="6.0496">
        <ele>217.19999694824</ele>
        <time>2012-03-28T09:30:37.000Z</time>
      </trkpt>
      <trkpt lat="47.72955" lon="6.04962">
        <ele>217.19999694824</ele>
        <time>2012-03-28T09:30:44.000Z</time>
      </trkpt>
      <trkpt lat="47.7294" lon="6.04959">
        <ele>217.19999694824</ele>
        <time>2012-03-28T09:30:49.000Z</time>
      </trkpt>
      <trkpt lat="47.72923" lon="6.04956">
        <ele>217.19999694824</ele>
        <time>2012-03-28T09:30:55.000Z</time>
      </trkpt>
      <trkpt lat="47.72906" lon="6.0495">
        <ele>217.19999694824</ele>
        <time>2012-03-28T09:31:02.000Z</time>
      </trkpt>
      <trkpt lat="47.72888" lon="6.04945">
        <ele>217.19999694824</ele>
        <time>2012-03-28T09:31:09.000Z</time>
      </trkpt>
      <trkpt lat="47.72871" lon="6.04938">
        <ele>217.19999694824</ele>
        <time>2012-03-28T09:31:16.000Z</time>
      </trkpt>
      <trkpt lat="47.72853" lon="6.04928">
        <ele>217.19999694824</ele>
        <time>2012-03-28T09:31:23.000Z</time>
      </trkpt>
      <trkpt lat="47.72836" lon="6.04919">
        <ele>217.19999694824</ele>
        <time>2012-03-28T09:31:30.000Z</time>
      </trkpt>
      <trkpt lat="47.72824" lon="6.04909">
        <ele>217.19999694824</ele>
        <time>2012-03-28T09:31:36.000Z</time>
      </trkpt>
      <trkpt lat="47.7281" lon="6.04895">
        <ele>217.19999694824</ele>
        <time>2012-03-28T09:31:43.000Z</time>
      </trkpt>
      <trkpt lat="47.72798" lon="6.04883">
        <ele>217.19999694824</ele>
        <time>2012-03-28T09:31:50.000Z</time>
      </trkpt>
      <trkpt lat="47.72788" lon="6.04871">
        <ele>217.19999694824</ele>
        <time>2012-03-28T09:31:56.000Z</time>
      </trkpt>
      <trkpt lat="47.72773" lon="6.04859">
        <ele>217.19999694824</ele>
        <time>2012-03-28T09:32:03.000Z</time>
      </trkpt>
      <trkpt lat="47.72754" lon="6.04847">
        <ele>217.19999694824</ele>
        <time>2012-03-28T09:32:11.000Z</time>
      </trkpt>
      <trkpt lat="47.72735" lon="6.04837">
        <ele>217.19999694824</ele>
        <time>2012-03-28T09:32:19.000Z</time>
      </trkpt>
      <trkpt lat="47.72716" lon="6.04825">
        <ele>217.19999694824</ele>
        <time>2012-03-28T09:32:27.000Z</time>
      </trkpt>
      <trkpt lat="47.72697" lon="6.04815">
        <ele>217.19999694824</ele>
        <time>2012-03-28T09:32:34.000Z</time>
      </trkpt>
      <trkpt lat="47.7268" lon="6.04806">
        <ele>217.19999694824</ele>
        <time>2012-03-28T09:32:40.000Z</time>
      </trkpt>
      <trkpt lat="47.72661" lon="6.04793">
        <ele>217.19999694824</ele>
        <time>2012-03-28T09:32:47.000Z</time>
      </trkpt>
      <trkpt lat="47.72641" lon="6.04782">
        <ele>217.19999694824</ele>
        <time>2012-03-28T09:32:54.000Z</time>
      </trkpt>
      <trkpt lat="47.7262" lon="6.04768">
        <ele>217.19999694824</ele>
        <time>2012-03-28T09:33:02.000Z</time>
      </trkpt>
      <trkpt lat="47.72601" lon="6.04754">
        <ele>217.19999694824</ele>
        <time>2012-03-28T09:33:09.000Z</time>
      </trkpt>
      <trkpt lat="47.72582" lon="6.04736">
        <ele>217.19999694824</ele>
        <time>2012-03-28T09:33:15.000Z</time>
      </trkpt>
      <trkpt lat="47.72578" lon="6.04733">
        <ele>217.19999694824</ele>
        <time>2012-03-28T09:33:16.000Z</time>
      </trkpt>
      <trkpt lat="47.7257" lon="6.04726">
        <ele>217.19999694824</ele>
        <time>2012-03-28T09:33:18.000Z</time>
      </trkpt>
      <trkpt lat="47.72564" lon="6.0472">
        <ele>217.19999694824</ele>
        <time>2012-03-28T09:33:20.000Z</time>
      </trkpt>
      <trkpt lat="47.72543" lon="6.04699">
        <ele>217.19999694824</ele>
        <time>2012-03-28T09:33:26.000Z</time>
      </trkpt>
      <trkpt lat="47.72526" lon="6.04681">
        <ele>217.19999694824</ele>
        <time>2012-03-28T09:33:32.000Z</time>
      </trkpt>
      <trkpt lat="47.72508" lon="6.04658">
        <ele>217.19999694824</ele>
        <time>2012-03-28T09:33:39.000Z</time>
      </trkpt>
      <trkpt lat="47.72496" lon="6.04645">
        <ele>217.19999694824</ele>
        <time>2012-03-28T09:33:44.000Z</time>
      </trkpt>
      <trkpt lat="47.72475" lon="6.0462">
        <ele>217.19999694824</ele>
        <time>2012-03-28T09:33:52.000Z</time>
      </trkpt>
      <trkpt lat="47.72459" lon="6.04603">
        <ele>217.19999694824</ele>
        <time>2012-03-28T09:33:58.000Z</time>
      </trkpt>
      <trkpt lat="47.72441" lon="6.04587">
        <ele>217.19999694824</ele>
        <time>2012-03-28T09:34:05.000Z</time>
      </trkpt>
      <trkpt lat="47.72427" lon="6.04572">
        <ele>217.19999694824</ele>
        <time>2012-03-28T09:34:11.000Z</time>
      </trkpt>
      <trkpt lat="47.72409" lon="6.04553">
        <ele>217.19999694824</ele>
        <time>2012-03-28T09:34:19.000Z</time>
      </trkpt>
      <trkpt lat="47.7239" lon="6.04534">
        <ele>217.19999694824</ele>
        <time>2012-03-28T09:34:27.000Z</time>
      </trkpt>
      <trkpt lat="47.72376" lon="6.04521">
        <ele>217.19999694824</ele>
        <time>2012-03-28T09:34:33.000Z</time>
      </trkpt>
      <trkpt lat="47.72362" lon="6.04506">
        <ele>217.19999694824</ele>
        <time>2012-03-28T09:34:40.000Z</time>
      </trkpt>
      <trkpt lat="47.72349" lon="6.04492">
        <ele>217.19999694824</ele>
        <time>2012-03-28T09:34:46.000Z</time>
      </trkpt>
      <trkpt lat="47.72335" lon="6.04477">
        <ele>217.19999694824</ele>
        <time>2012-03-28T09:34:52.000Z</time>
      </trkpt>
      <trkpt lat="47.72321" lon="6.04463">
        <ele>217.19999694824</ele>
        <time>2012-03-28T09:34:58.000Z</time>
      </trkpt>
      <trkpt lat="47.72299" lon="6.04441">
        <ele>217.19999694824</ele>
        <time>2012-03-28T09:35:07.000Z</time>
      </trkpt>
      <trkpt lat="47.72283" lon="6.04426">
        <ele>217.19999694824</ele>
        <time>2012-03-28T09:35:13.000Z</time>
      </trkpt>
      <trkpt lat="47.72263" lon="6.04408">
        <ele>217.19999694824</ele>
        <time>2012-03-28T09:35:19.000Z</time>
      </trkpt>
      <trkpt lat="47.72244" lon="6.04387">
        <ele>217.19999694824</ele>
        <time>2012-03-28T09:35:25.000Z</time>
      </trkpt>
      <trkpt lat="47.72226" lon="6.04363">
        <ele>217.19999694824</ele>
        <time>2012-03-28T09:35:32.000Z</time>
      </trkpt>
      <trkpt lat="47.72213" lon="6.04343">
        <ele>217.19999694824</ele>
        <time>2012-03-28T09:35:39.000Z</time>
      </trkpt>
      <trkpt lat="47.72208" lon="6.04324">
        <ele>217.19999694824</ele>
        <time>2012-03-28T09:35:45.000Z</time>
      </trkpt>
      <trkpt lat="47.72205" lon="6.04303">
        <ele>217.19999694824</ele>
        <time>2012-03-28T09:35:51.000Z</time>
      </trkpt>
      <trkpt lat="47.72203" lon="6.04278">
        <ele>217.19999694824</ele>
        <time>2012-03-28T09:35:58.000Z</time>
      </trkpt>
      <trkpt lat="47.722" lon="6.04258">
        <ele>217.19999694824</ele>
        <time>2012-03-28T09:36:03.000Z</time>
      </trkpt>
      <trkpt lat="47.72198" lon="6.04229">
        <ele>217.19999694824</ele>
        <time>2012-03-28T09:36:10.000Z</time>
      </trkpt>
      <trkpt lat="47.72197" lon="6.04193">
        <ele>217.19999694824</ele>
        <time>2012-03-28T09:36:17.000Z</time>
      </trkpt>
      <trkpt lat="47.72196" lon="6.04164">
        <ele>217.19999694824</ele>
        <time>2012-03-28T09:36:22.000Z</time>
      </trkpt>
      <trkpt lat="47.72196" lon="6.04137">
        <ele>217.19999694824</ele>
        <time>2012-03-28T09:36:28.000Z</time>
      </trkpt>
      <trkpt lat="47.72195" lon="6.04101">
        <ele>217.19999694824</ele>
        <time>2012-03-28T09:36:35.000Z</time>
      </trkpt>
      <trkpt lat="47.72195" lon="6.04076">
        <ele>217.19999694824</ele>
        <time>2012-03-28T09:36:41.000Z</time>
      </trkpt>
      <trkpt lat="47.72195" lon="6.04042">
        <ele>217.19999694824</ele>
        <time>2012-03-28T09:36:48.000Z</time>
      </trkpt>
      <trkpt lat="47.72196" lon="6.0402">
        <ele>217.19999694824</ele>
        <time>2012-03-28T09:36:53.000Z</time>
      </trkpt>
      <trkpt lat="47.72196" lon="6.03988">
        <ele>217.19999694824</ele>
        <time>2012-03-28T09:36:59.000Z</time>
      </trkpt>
      <trkpt lat="47.72196" lon="6.03959">
        <ele>217.19999694824</ele>
        <time>2012-03-28T09:37:05.000Z</time>
      </trkpt>
      <trkpt lat="47.72196" lon="6.03937">
        <ele>217.19999694824</ele>
        <time>2012-03-28T09:37:10.000Z</time>
      </trkpt>
      <trkpt lat="47.72195" lon="6.03918">
        <ele>217.19999694824</ele>
        <time>2012-03-28T09:37:15.000Z</time>
      </trkpt>
      <trkpt lat="47.72195" lon="6.0389">
        <ele>217.19999694824</ele>
        <time>2012-03-28T09:37:22.000Z</time>
      </trkpt>
      <trkpt lat="47.72193" lon="6.03859">
        <ele>217.19999694824</ele>
        <time>2012-03-28T09:37:28.000Z</time>
      </trkpt>
      <trkpt lat="47.72191" lon="6.03823">
        <ele>217.19999694824</ele>
        <time>2012-03-28T09:37:36.000Z</time>
      </trkpt>
      <trkpt lat="47.72185" lon="6.03792">
        <ele>217.19999694824</ele>
        <time>2012-03-28T09:37:43.000Z</time>
      </trkpt>
      <trkpt lat="47.72183" lon="6.03766">
        <ele>217.19999694824</ele>
        <time>2012-03-28T09:37:49.000Z</time>
      </trkpt>
      <trkpt lat="47.72179" lon="6.03745">
        <ele>217.19999694824</ele>
        <time>2012-03-28T09:37:54.000Z</time>
      </trkpt>
      <trkpt lat="47.72177" lon="6.03718">
        <ele>217.19999694824</ele>
        <time>2012-03-28T09:38:01.000Z</time>
      </trkpt>
      <trkpt lat="47.72174" lon="6.03691">
        <ele>217.19999694824</ele>
        <time>2012-03-28T09:38:08.000Z</time>
      </trkpt>
      <trkpt lat="47.72171" lon="6.03662">
        <ele>217.19999694824</ele>
        <time>2012-03-28T09:38:14.000Z</time>
      </trkpt>
      <trkpt lat="47.72165" lon="6.03624">
        <ele>217.19999694824</ele>
        <time>2012-03-28T09:38:21.000Z</time>
      </trkpt>
      <trkpt lat="47.72162" lon="6.03599">
        <ele>217.19999694824</ele>
        <time>2012-03-28T09:38:27.000Z</time>
      </trkpt>
      <trkpt lat="47.72159" lon="6.03575">
        <ele>217.19999694824</ele>
        <time>2012-03-28T09:38:33.000Z</time>
      </trkpt>
      <trkpt lat="47.72152" lon="6.03554">
        <ele>217.19999694824</ele>
        <time>2012-03-28T09:38:39.000Z</time>
      </trkpt>
      <trkpt lat="47.72145" lon="6.03548">
        <ele>217.19999694824</ele>
        <time>2012-03-28T09:38:44.000Z</time>
      </trkpt>
      <trkpt lat="47.72144" lon="6.03547">
        <ele>217.19999694824</ele>
        <time>2012-03-28T09:39:32.000Z</time>
      </trkpt>
      <trkpt lat="47.7214" lon="6.03542">
        <ele>217.19999694824</ele>
        <time>2012-03-28T09:39:35.000Z</time>
      </trkpt>
      <trkpt lat="47.72137" lon="6.03541">
        <ele>217.19999694824</ele>
        <time>2012-03-28T09:39:36.000Z</time>
      </trkpt>
      <trkpt lat="47.72125" lon="6.03536">
        <ele>217.19999694824</ele>
        <time>2012-03-28T09:39:41.000Z</time>
      </trkpt>
      <trkpt lat="47.72109" lon="6.03547">
        <ele>217.19999694824</ele>
        <time>2012-03-28T09:39:47.000Z</time>
      </trkpt>
      <trkpt lat="47.72096" lon="6.03567">
        <ele>217.19999694824</ele>
        <time>2012-03-28T09:39:54.000Z</time>
      </trkpt>
      <trkpt lat="47.72088" lon="6.03578">
        <ele>217.19999694824</ele>
        <time>2012-03-28T09:40:00.000Z</time>
      </trkpt>
      <trkpt lat="47.72086" lon="6.0358">
        <ele>217.60000610352</ele>
        <time>2012-03-28T09:40:01.000Z</time>
      </trkpt>
      <trkpt lat="47.72084" lon="6.03582">
        <ele>218</ele>
        <time>2012-03-28T09:40:02.000Z</time>
      </trkpt>
      <trkpt lat="47.72083" lon="6.03583">
        <ele>218.39999389648</ele>
        <time>2012-03-28T09:40:03.000Z</time>
      </trkpt>
      <trkpt lat="47.72082" lon="6.03585">
        <ele>218.80000305176</ele>
        <time>2012-03-28T09:40:04.000Z</time>
      </trkpt>
      <trkpt lat="47.72081" lon="6.03586">
        <ele>219.19999694824</ele>
        <time>2012-03-28T09:40:05.000Z</time>
      </trkpt>
      <trkpt lat="47.72078" lon="6.03589">
        <ele>219.19999694824</ele>
        <time>2012-03-28T09:40:07.000Z</time>
      </trkpt>
      <trkpt lat="47.72065" lon="6.03597">
        <ele>219.19999694824</ele>
        <time>2012-03-28T09:40:14.000Z</time>
      </trkpt>
      <trkpt lat="47.7206" lon="6.03599">
        <ele>219.60000610352</ele>
        <time>2012-03-28T09:40:17.000Z</time>
      </trkpt>
      <trkpt lat="47.72058" lon="6.03599">
        <ele>220</ele>
        <time>2012-03-28T09:40:18.000Z</time>
      </trkpt>
      <trkpt lat="47.72056" lon="6.036">
        <ele>220.39999389648</ele>
        <time>2012-03-28T09:40:19.000Z</time>
      </trkpt>
      <trkpt lat="47.72053" lon="6.036">
        <ele>220.80000305176</ele>
        <time>2012-03-28T09:40:20.000Z</time>
      </trkpt>
      <trkpt lat="47.72051" lon="6.03599">
        <ele>221.19999694824</ele>
        <time>2012-03-28T09:40:21.000Z</time>
      </trkpt>
      <trkpt lat="47.72038" lon="6.03596">
        <ele>221.19999694824</ele>
        <time>2012-03-28T09:40:27.000Z</time>
      </trkpt>
      <trkpt lat="47.72025" lon="6.03593">
        <ele>221.19999694824</ele>
        <time>2012-03-28T09:40:33.000Z</time>
      </trkpt>
      <trkpt lat="47.72023" lon="6.03592">
        <ele>221.60000610352</ele>
        <time>2012-03-28T09:40:34.000Z</time>
      </trkpt>
      <trkpt lat="47.72021" lon="6.03592">
        <ele>222</ele>
        <time>2012-03-28T09:40:35.000Z</time>
      </trkpt>
      <trkpt lat="47.72019" lon="6.03592">
        <ele>222.60000610352</ele>
        <time>2012-03-28T09:40:36.000Z</time>
      </trkpt>
      <trkpt lat="47.72017" lon="6.03591">
        <ele>223</ele>
        <time>2012-03-28T09:40:37.000Z</time>
      </trkpt>
      <trkpt lat="47.72015" lon="6.03591">
        <ele>223.39999389648</ele>
        <time>2012-03-28T09:40:38.000Z</time>
      </trkpt>
      <trkpt lat="47.72012" lon="6.0359">
        <ele>223.39999389648</ele>
        <time>2012-03-28T09:40:40.000Z</time>
      </trkpt>
      <trkpt lat="47.72005" lon="6.03588">
        <ele>223.80000305176</ele>
        <time>2012-03-28T09:40:45.000Z</time>
      </trkpt>
      <trkpt lat="47.72003" lon="6.03587">
        <ele>224.19999694824</ele>
        <time>2012-03-28T09:40:46.000Z</time>
      </trkpt>
      <trkpt lat="47.72001" lon="6.03586">
        <ele>224.60000610352</ele>
        <time>2012-03-28T09:40:47.000Z</time>
      </trkpt>
      <trkpt lat="47.72" lon="6.03585">
        <ele>225.19999694824</ele>
        <time>2012-03-28T09:40:48.000Z</time>
      </trkpt>
      <trkpt lat="47.71998" lon="6.03584">
        <ele>225.60000610352</ele>
        <time>2012-03-28T09:40:49.000Z</time>
      </trkpt>
      <trkpt lat="47.71994" lon="6.03583">
        <ele>225.60000610352</ele>
        <time>2012-03-28T09:40:51.000Z</time>
      </trkpt>
      <trkpt lat="47.71978" lon="6.03577">
        <ele>225.60000610352</ele>
        <time>2012-03-28T09:40:59.000Z</time>
      </trkpt>
      <trkpt lat="47.71973" lon="6.03576">
        <ele>226</ele>
        <time>2012-03-28T09:41:01.000Z</time>
      </trkpt>
      <trkpt lat="47.71972" lon="6.03575">
        <ele>226.39999389648</ele>
        <time>2012-03-28T09:41:02.000Z</time>
      </trkpt>
      <trkpt lat="47.7197" lon="6.03574">
        <ele>226.80000305176</ele>
        <time>2012-03-28T09:41:03.000Z</time>
      </trkpt>
      <trkpt lat="47.71968" lon="6.03574">
        <ele>227.19999694824</ele>
        <time>2012-03-28T09:41:04.000Z</time>
      </trkpt>
      <trkpt lat="47.71966" lon="6.03573">
        <ele>227.60000610352</ele>
        <time>2012-03-28T09:41:05.000Z</time>
      </trkpt>
      <trkpt lat="47.71963" lon="6.03573">
        <ele>227.60000610352</ele>
        <time>2012-03-28T09:41:06.000Z</time>
      </trkpt>
      <trkpt lat="47.71949" lon="6.03568">
        <ele>227.60000610352</ele>
        <time>2012-03-28T09:41:13.000Z</time>
      </trkpt>
      <trkpt lat="47.71933" lon="6.03564">
        <ele>227.60000610352</ele>
        <time>2012-03-28T09:41:20.000Z</time>
      </trkpt>
      <trkpt lat="47.71913" lon="6.03561">
        <ele>228</ele>
        <time>2012-03-28T09:41:27.000Z</time>
      </trkpt>
      <trkpt lat="47.7191" lon="6.0356">
        <ele>228.39999389648</ele>
        <time>2012-03-28T09:41:28.000Z</time>
      </trkpt>
      <trkpt lat="47.71907" lon="6.03559">
        <ele>228.80000305176</ele>
        <time>2012-03-28T09:41:29.000Z</time>
      </trkpt>
      <trkpt lat="47.71904" lon="6.03559">
        <ele>229.19999694824</ele>
        <time>2012-03-28T09:41:30.000Z</time>
      </trkpt>
      <trkpt lat="47.71901" lon="6.03559">
        <ele>229.60000610352</ele>
        <time>2012-03-28T09:41:31.000Z</time>
      </trkpt>
      <trkpt lat="47.71891" lon="6.03559">
        <ele>229.60000610352</ele>
        <time>2012-03-28T09:41:34.000Z</time>
      </trkpt>
      <trkpt lat="47.71873" lon="6.03559">
        <ele>229.60000610352</ele>
        <time>2012-03-28T09:41:40.000Z</time>
      </trkpt>
      <trkpt lat="47.71845" lon="6.03558">
        <ele>229.60000610352</ele>
        <time>2012-03-28T09:41:48.000Z</time>
      </trkpt>
      <trkpt lat="47.71821" lon="6.03557">
        <ele>229.60000610352</ele>
        <time>2012-03-28T09:41:52.000Z</time>
      </trkpt>
      <trkpt lat="47.71801" lon="6.03555">
        <ele>229.19999694824</ele>
        <time>2012-03-28T09:41:55.000Z</time>
      </trkpt>
      <trkpt lat="47.71794" lon="6.03555">
        <ele>228.39999389648</ele>
        <time>2012-03-28T09:41:56.000Z</time>
      </trkpt>
      <trkpt lat="47.71787" lon="6.03555">
        <ele>228</ele>
        <time>2012-03-28T09:41:57.000Z</time>
      </trkpt>
      <trkpt lat="47.71779" lon="6.03554">
        <ele>227.39999389648</ele>
        <time>2012-03-28T09:41:58.000Z</time>
      </trkpt>
      <trkpt lat="47.71734" lon="6.03553">
        <ele>227.39999389648</ele>
        <time>2012-03-28T09:42:04.000Z</time>
      </trkpt>
      <trkpt lat="47.71728" lon="6.03551">
        <ele>227.39999389648</ele>
        <time>2012-03-28T09:42:05.000Z</time>
      </trkpt>
      <trkpt lat="47.71716" lon="6.03548">
        <ele>227</ele>
        <time>2012-03-28T09:42:07.000Z</time>
      </trkpt>
      <trkpt lat="47.71711" lon="6.03549">
        <ele>226.60000610352</ele>
        <time>2012-03-28T09:42:08.000Z</time>
      </trkpt>
      <trkpt lat="47.71705" lon="6.03548">
        <ele>226.19999694824</ele>
        <time>2012-03-28T09:42:09.000Z</time>
      </trkpt>
      <trkpt lat="47.717" lon="6.03547">
        <ele>225.80000305176</ele>
        <time>2012-03-28T09:42:10.000Z</time>
      </trkpt>
      <trkpt lat="47.71694" lon="6.03545">
        <ele>225.39999389648</ele>
        <time>2012-03-28T09:42:11.000Z</time>
      </trkpt>
      <trkpt lat="47.71689" lon="6.03543">
        <ele>225.39999389648</ele>
        <time>2012-03-28T09:42:12.000Z</time>
      </trkpt>
      <trkpt lat="47.71683" lon="6.0354">
        <ele>225.39999389648</ele>
        <time>2012-03-28T09:42:13.000Z</time>
      </trkpt>
      <trkpt lat="47.71646" lon="6.03529">
        <ele>225.39999389648</ele>
        <time>2012-03-28T09:42:19.000Z</time>
      </trkpt>
      <trkpt lat="47.71632" lon="6.03532">
        <ele>225</ele>
        <time>2012-03-28T09:42:21.000Z</time>
      </trkpt>
      <trkpt lat="47.71625" lon="6.03534">
        <ele>224.60000610352</ele>
        <time>2012-03-28T09:42:22.000Z</time>
      </trkpt>
      <trkpt lat="47.71616" lon="6.03536">
        <ele>224.19999694824</ele>
        <time>2012-03-28T09:42:23.000Z</time>
      </trkpt>
      <trkpt lat="47.71609" lon="6.0354">
        <ele>223.80000305176</ele>
        <time>2012-03-28T09:42:24.000Z</time>
      </trkpt>
      <trkpt lat="47.71601" lon="6.03545">
        <ele>223.39999389648</ele>
        <time>2012-03-28T09:42:25.000Z</time>
      </trkpt>
      <trkpt lat="47.7159" lon="6.0356">
        <ele>223.39999389648</ele>
        <time>2012-03-28T09:42:27.000Z</time>
      </trkpt>
      <trkpt lat="47.71579" lon="6.03577">
        <ele>223.39999389648</ele>
        <time>2012-03-28T09:42:30.000Z</time>
      </trkpt>
      <trkpt lat="47.71564" lon="6.03581">
        <ele>223.39999389648</ele>
        <time>2012-03-28T09:42:33.000Z</time>
      </trkpt>
      <trkpt lat="47.71558" lon="6.03584">
        <ele>223.39999389648</ele>
        <time>2012-03-28T09:42:34.000Z</time>
      </trkpt>
      <trkpt lat="47.71549" lon="6.03587">
        <ele>223.39999389648</ele>
        <time>2012-03-28T09:42:36.000Z</time>
      </trkpt>
      <trkpt lat="47.71538" lon="6.03589">
        <ele>223.39999389648</ele>
        <time>2012-03-28T09:42:38.000Z</time>
      </trkpt>
      <trkpt lat="47.71533" lon="6.03591">
        <ele>223.39999389648</ele>
        <time>2012-03-28T09:42:39.000Z</time>
      </trkpt>
      <trkpt lat="47.71519" lon="6.03597">
        <ele>223.39999389648</ele>
        <time>2012-03-28T09:42:42.000Z</time>
      </trkpt>
      <trkpt lat="47.71515" lon="6.03601">
        <ele>223.39999389648</ele>
        <time>2012-03-28T09:42:43.000Z</time>
      </trkpt>
      <trkpt lat="47.7151" lon="6.03621">
        <ele>223.39999389648</ele>
        <time>2012-03-28T09:42:46.000Z</time>
      </trkpt>
      <trkpt lat="47.71501" lon="6.03645">
        <ele>223.39999389648</ele>
        <time>2012-03-28T09:42:51.000Z</time>
      </trkpt>
      <trkpt lat="47.71491" lon="6.03665">
        <ele>223.39999389648</ele>
        <time>2012-03-28T09:42:56.000Z</time>
      </trkpt>
      <trkpt lat="47.71484" lon="6.03672">
        <ele>223.80000305176</ele>
        <time>2012-03-28T09:42:58.000Z</time>
      </trkpt>
      <trkpt lat="47.71479" lon="6.03675">
        <ele>224.19999694824</ele>
        <time>2012-03-28T09:42:59.000Z</time>
      </trkpt>
      <trkpt lat="47.71475" lon="6.03678">
        <ele>224.60000610352</ele>
        <time>2012-03-28T09:43:00.000Z</time>
      </trkpt>
      <trkpt lat="47.7147" lon="6.03681">
        <ele>225</ele>
        <time>2012-03-28T09:43:01.000Z</time>
      </trkpt>
      <trkpt lat="47.71466" lon="6.03682">
        <ele>225.60000610352</ele>
        <time>2012-03-28T09:43:02.000Z</time>
      </trkpt>
      <trkpt lat="47.71445" lon="6.03689">
        <ele>225.60000610352</ele>
        <time>2012-03-28T09:43:07.000Z</time>
      </trkpt>
      <trkpt lat="47.71423" lon="6.0369">
        <ele>225.60000610352</ele>
        <time>2012-03-28T09:43:13.000Z</time>
      </trkpt>
      <trkpt lat="47.71402" lon="6.03699">
        <ele>225.60000610352</ele>
        <time>2012-03-28T09:43:19.000Z</time>
      </trkpt>
      <trkpt lat="47.71398" lon="6.03701">
        <ele>225.60000610352</ele>
        <time>2012-03-28T09:43:20.000Z</time>
      </trkpt>
      <trkpt lat="47.71389" lon="6.03704">
        <ele>225.60000610352</ele>
        <time>2012-03-28T09:43:22.000Z</time>
      </trkpt>
      <trkpt lat="47.71379" lon="6.03706">
        <ele>225.60000610352</ele>
        <time>2012-03-28T09:43:24.000Z</time>
      </trkpt>
      <trkpt lat="47.71368" lon="6.03711">
        <ele>225.60000610352</ele>
        <time>2012-03-28T09:43:26.000Z</time>
      </trkpt>
      <trkpt lat="47.71348" lon="6.03719">
        <ele>225.60000610352</ele>
        <time>2012-03-28T09:43:30.000Z</time>
      </trkpt>
      <trkpt lat="47.71329" lon="6.0373">
        <ele>225.60000610352</ele>
        <time>2012-03-28T09:43:34.000Z</time>
      </trkpt>
      <trkpt lat="47.7132" lon="6.03737">
        <ele>225.60000610352</ele>
        <time>2012-03-28T09:43:36.000Z</time>
      </trkpt>
      <trkpt lat="47.71312" lon="6.03746">
        <ele>225.60000610352</ele>
        <time>2012-03-28T09:43:38.000Z</time>
      </trkpt>
      <trkpt lat="47.71296" lon="6.03764">
        <ele>225.60000610352</ele>
        <time>2012-03-28T09:43:42.000Z</time>
      </trkpt>
      <trkpt lat="47.71292" lon="6.03768">
        <ele>225.19999694824</ele>
        <time>2012-03-28T09:43:43.000Z</time>
      </trkpt>
      <trkpt lat="47.71288" lon="6.03773">
        <ele>224.80000305176</ele>
        <time>2012-03-28T09:43:44.000Z</time>
      </trkpt>
      <trkpt lat="47.71284" lon="6.03777">
        <ele>224.39999389648</ele>
        <time>2012-03-28T09:43:45.000Z</time>
      </trkpt>
      <trkpt lat="47.7128" lon="6.03781">
        <ele>223.80000305176</ele>
        <time>2012-03-28T09:43:46.000Z</time>
      </trkpt>
      <trkpt lat="47.71277" lon="6.03786">
        <ele>223.39999389648</ele>
        <time>2012-03-28T09:43:47.000Z</time>
      </trkpt>
      <trkpt lat="47.7127" lon="6.03798">
        <ele>223.39999389648</ele>
        <time>2012-03-28T09:43:49.000Z</time>
      </trkpt>
      <trkpt lat="47.71267" lon="6.03805">
        <ele>223.39999389648</ele>
        <time>2012-03-28T09:43:50.000Z</time>
      </trkpt>
      <trkpt lat="47.71262" lon="6.03815">
        <ele>223.39999389648</ele>
        <time>2012-03-28T09:43:52.000Z</time>
      </trkpt>
      <trkpt lat="47.71252" lon="6.03827">
        <ele>223.39999389648</ele>
        <time>2012-03-28T09:43:55.000Z</time>
      </trkpt>
      <trkpt lat="47.71231" lon="6.03828">
        <ele>223.39999389648</ele>
        <time>2012-03-28T09:43:59.000Z</time>
      </trkpt>
      <trkpt lat="47.71219" lon="6.03825">
        <ele>223</ele>
        <time>2012-03-28T09:44:01.000Z</time>
      </trkpt>
      <trkpt lat="47.71212" lon="6.03823">
        <ele>222.60000610352</ele>
        <time>2012-03-28T09:44:02.000Z</time>
      </trkpt>
      <trkpt lat="47.71206" lon="6.03823">
        <ele>222.19999694824</ele>
        <time>2012-03-28T09:44:03.000Z</time>
      </trkpt>
      <trkpt lat="47.712" lon="6.03825">
        <ele>221.80000305176</ele>
        <time>2012-03-28T09:44:04.000Z</time>
      </trkpt>
      <trkpt lat="47.71193" lon="6.03828">
        <ele>221.39999389648</ele>
        <time>2012-03-28T09:44:05.000Z</time>
      </trkpt>
      <trkpt lat="47.71154" lon="6.03852">
        <ele>221.39999389648</ele>
        <time>2012-03-28T09:44:11.000Z</time>
      </trkpt>
      <trkpt lat="47.71141" lon="6.03861">
        <ele>221</ele>
        <time>2012-03-28T09:44:13.000Z</time>
      </trkpt>
      <trkpt lat="47.71134" lon="6.03866">
        <ele>220.60000610352</ele>
        <time>2012-03-28T09:44:14.000Z</time>
      </trkpt>
      <trkpt lat="47.71127" lon="6.0387">
        <ele>220.19999694824</ele>
        <time>2012-03-28T09:44:15.000Z</time>
      </trkpt>
      <trkpt lat="47.7112" lon="6.03874">
        <ele>219.80000305176</ele>
        <time>2012-03-28T09:44:16.000Z</time>
      </trkpt>
      <trkpt lat="47.71112" lon="6.03878">
        <ele>219.19999694824</ele>
        <time>2012-03-28T09:44:17.000Z</time>
      </trkpt>
      <trkpt lat="47.71104" lon="6.03882">
        <ele>219.19999694824</ele>
        <time>2012-03-28T09:44:18.000Z</time>
      </trkpt>
      <trkpt lat="47.7105" lon="6.03907">
        <ele>219.19999694824</ele>
        <time>2012-03-28T09:44:25.000Z</time>
      </trkpt>
      <trkpt lat="47.71042" lon="6.0391">
        <ele>219.19999694824</ele>
        <time>2012-03-28T09:44:26.000Z</time>
      </trkpt>
      <trkpt lat="47.70998" lon="6.03921">
        <ele>219.19999694824</ele>
        <time>2012-03-28T09:44:32.000Z</time>
      </trkpt>
      <trkpt lat="47.70992" lon="6.03922">
        <ele>219.19999694824</ele>
        <time>2012-03-28T09:44:33.000Z</time>
      </trkpt>
      <trkpt lat="47.70957" lon="6.03925">
        <ele>219.19999694824</ele>
        <time>2012-03-28T09:44:38.000Z</time>
      </trkpt>
      <trkpt lat="47.70913" lon="6.03926">
        <ele>219.19999694824</ele>
        <time>2012-03-28T09:44:45.000Z</time>
      </trkpt>
      <trkpt lat="47.70869" lon="6.03928">
        <ele>219.19999694824</ele>
        <time>2012-03-28T09:44:53.000Z</time>
      </trkpt>
      <trkpt lat="47.70841" lon="6.03931">
        <ele>219.19999694824</ele>
        <time>2012-03-28T09:44:59.000Z</time>
      </trkpt>
      <trkpt lat="47.70807" lon="6.03945">
        <ele>219.19999694824</ele>
        <time>2012-03-28T09:45:06.000Z</time>
      </trkpt>
      <trkpt lat="47.70765" lon="6.03979">
        <ele>219.19999694824</ele>
        <time>2012-03-28T09:45:15.000Z</time>
      </trkpt>
      <trkpt lat="47.7073" lon="6.04012">
        <ele>219.19999694824</ele>
        <time>2012-03-28T09:45:22.000Z</time>
      </trkpt>
      <trkpt lat="47.70699" lon="6.04044">
        <ele>219.19999694824</ele>
        <time>2012-03-28T09:45:28.000Z</time>
      </trkpt>
      <trkpt lat="47.70688" lon="6.04054">
        <ele>219.19999694824</ele>
        <time>2012-03-28T09:45:30.000Z</time>
      </trkpt>
      <trkpt lat="47.70668" lon="6.04076">
        <ele>219.19999694824</ele>
        <time>2012-03-28T09:45:34.000Z</time>
      </trkpt>
      <trkpt lat="47.70633" lon="6.04118">
        <ele>219.19999694824</ele>
        <time>2012-03-28T09:45:41.000Z</time>
      </trkpt>
      <trkpt lat="47.70628" lon="6.04125">
        <ele>219.19999694824</ele>
        <time>2012-03-28T09:45:42.000Z</time>
      </trkpt>
      <trkpt lat="47.70604" lon="6.04159">
        <ele>219.19999694824</ele>
        <time>2012-03-28T09:45:47.000Z</time>
      </trkpt>
      <trkpt lat="47.70577" lon="6.04197">
        <ele>219.19999694824</ele>
        <time>2012-03-28T09:45:53.000Z</time>
      </trkpt>
      <trkpt lat="47.70548" lon="6.04243">
        <ele>219.19999694824</ele>
        <time>2012-03-28T09:46:00.000Z</time>
      </trkpt>
      <trkpt lat="47.70513" lon="6.04296">
        <ele>219.19999694824</ele>
        <time>2012-03-28T09:46:08.000Z</time>
      </trkpt>
      <trkpt lat="47.70481" lon="6.04331">
        <ele>219.19999694824</ele>
        <time>2012-03-28T09:46:14.000Z</time>
      </trkpt>
      <trkpt lat="47.70452" lon="6.04355">
        <ele>219.19999694824</ele>
        <time>2012-03-28T09:46:20.000Z</time>
      </trkpt>
      <trkpt lat="47.70439" lon="6.04365">
        <ele>219.80000305176</ele>
        <time>2012-03-28T09:46:23.000Z</time>
      </trkpt>
      <trkpt lat="47.70434" lon="6.04368">
        <ele>220.19999694824</ele>
        <time>2012-03-28T09:46:24.000Z</time>
      </trkpt>
      <trkpt lat="47.70429" lon="6.04371">
        <ele>220.60000610352</ele>
        <time>2012-03-28T09:46:25.000Z</time>
      </trkpt>
      <trkpt lat="47.70425" lon="6.04374">
        <ele>221</ele>
        <time>2012-03-28T09:46:26.000Z</time>
      </trkpt>
      <trkpt lat="47.7042" lon="6.04377">
        <ele>221.39999389648</ele>
        <time>2012-03-28T09:46:27.000Z</time>
      </trkpt>
      <trkpt lat="47.70399" lon="6.04389">
        <ele>222</ele>
        <time>2012-03-28T09:46:32.000Z</time>
      </trkpt>
      <trkpt lat="47.70394" lon="6.04391">
        <ele>222.39999389648</ele>
        <time>2012-03-28T09:46:33.000Z</time>
      </trkpt>
      <trkpt lat="47.7039" lon="6.04393">
        <ele>222.80000305176</ele>
        <time>2012-03-28T09:46:34.000Z</time>
      </trkpt>
      <trkpt lat="47.70386" lon="6.04396">
        <ele>223.19999694824</ele>
        <time>2012-03-28T09:46:35.000Z</time>
      </trkpt>
      <trkpt lat="47.70381" lon="6.04398">
        <ele>223.60000610352</ele>
        <time>2012-03-28T09:46:36.000Z</time>
      </trkpt>
      <trkpt lat="47.70355" lon="6.04412">
        <ele>223.60000610352</ele>
        <time>2012-03-28T09:46:42.000Z</time>
      </trkpt>
      <trkpt lat="47.70319" lon="6.04432">
        <ele>223.60000610352</ele>
        <time>2012-03-28T09:46:49.000Z</time>
      </trkpt>
      <trkpt lat="47.70282" lon="6.04453">
        <ele>223.60000610352</ele>
        <time>2012-03-28T09:46:55.000Z</time>
      </trkpt>
      <trkpt lat="47.70235" lon="6.04468">
        <ele>223.60000610352</ele>
        <time>2012-03-28T09:47:02.000Z</time>
      </trkpt>
      <trkpt lat="47.70194" lon="6.04479">
        <ele>223.60000610352</ele>
        <time>2012-03-28T09:47:09.000Z</time>
      </trkpt>
      <trkpt lat="47.70173" lon="6.04484">
        <ele>223.60000610352</ele>
        <time>2012-03-28T09:47:13.000Z</time>
      </trkpt>
      <trkpt lat="47.70168" lon="6.04484">
        <ele>223.60000610352</ele>
        <time>2012-03-28T09:47:14.000Z</time>
      </trkpt>
      <trkpt lat="47.70127" lon="6.04477">
        <ele>224</ele>
        <time>2012-03-28T09:47:22.000Z</time>
      </trkpt>
      <trkpt lat="47.70122" lon="6.04476">
        <ele>224.39999389648</ele>
        <time>2012-03-28T09:47:23.000Z</time>
      </trkpt>
      <trkpt lat="47.70118" lon="6.04475">
        <ele>224.80000305176</ele>
        <time>2012-03-28T09:47:24.000Z</time>
      </trkpt>
      <trkpt lat="47.70113" lon="6.04474">
        <ele>225.19999694824</ele>
        <time>2012-03-28T09:47:25.000Z</time>
      </trkpt>
      <trkpt lat="47.70108" lon="6.04473">
        <ele>225.60000610352</ele>
        <time>2012-03-28T09:47:26.000Z</time>
      </trkpt>
      <trkpt lat="47.70097" lon="6.04469">
        <ele>225.60000610352</ele>
        <time>2012-03-28T09:47:28.000Z</time>
      </trkpt>
      <trkpt lat="47.70069" lon="6.04461">
        <ele>225.19999694824</ele>
        <time>2012-03-28T09:47:33.000Z</time>
      </trkpt>
      <trkpt lat="47.70063" lon="6.0446">
        <ele>224.80000305176</ele>
        <time>2012-03-28T09:47:34.000Z</time>
      </trkpt>
      <trkpt lat="47.70057" lon="6.04459">
        <ele>224.39999389648</ele>
        <time>2012-03-28T09:47:35.000Z</time>
      </trkpt>
      <trkpt lat="47.70051" lon="6.04458">
        <ele>224</ele>
        <time>2012-03-28T09:47:36.000Z</time>
      </trkpt>
      <trkpt lat="47.70045" lon="6.04457">
        <ele>223.60000610352</ele>
        <time>2012-03-28T09:47:37.000Z</time>
      </trkpt>
      <trkpt lat="47.70027" lon="6.04453">
        <ele>223.60000610352</ele>
        <time>2012-03-28T09:47:40.000Z</time>
      </trkpt>
      <trkpt lat="47.70013" lon="6.0445">
        <ele>222.80000305176</ele>
        <time>2012-03-28T09:47:42.000Z</time>
      </trkpt>
      <trkpt lat="47.70007" lon="6.04449">
        <ele>222.39999389648</ele>
        <time>2012-03-28T09:47:43.000Z</time>
      </trkpt>
      <trkpt lat="47.7" lon="6.04448">
        <ele>222</ele>
        <time>2012-03-28T09:47:44.000Z</time>
      </trkpt>
      <trkpt lat="47.69994" lon="6.04447">
        <ele>221.60000610352</ele>
        <time>2012-03-28T09:47:45.000Z</time>
      </trkpt>
      <trkpt lat="47.69989" lon="6.04446">
        <ele>221.60000610352</ele>
        <time>2012-03-28T09:47:46.000Z</time>
      </trkpt>
      <trkpt lat="47.69944" lon="6.04439">
        <ele>221.60000610352</ele>
        <time>2012-03-28T09:47:54.000Z</time>
      </trkpt>
      <trkpt lat="47.6991" lon="6.04437">
        <ele>221.60000610352</ele>
        <time>2012-03-28T09:48:01.000Z</time>
      </trkpt>
      <trkpt lat="47.69878" lon="6.04437">
        <ele>221.60000610352</ele>
        <time>2012-03-28T09:48:08.000Z</time>
      </trkpt>
      <trkpt lat="47.69875" lon="6.04439">
        <ele>221.60000610352</ele>
        <time>2012-03-28T09:48:09.000Z</time>
      </trkpt>
      <trkpt lat="47.69871" lon="6.04439">
        <ele>221.60000610352</ele>
        <time>2012-03-28T09:48:10.000Z</time>
      </trkpt>
      <trkpt lat="47.69864" lon="6.04435">
        <ele>221.60000610352</ele>
        <time>2012-03-28T09:48:12.000Z</time>
      </trkpt>
      <trkpt lat="47.69856" lon="6.04434">
        <ele>221.60000610352</ele>
        <time>2012-03-28T09:48:14.000Z</time>
      </trkpt>
      <trkpt lat="47.69844" lon="6.04433">
        <ele>221.60000610352</ele>
        <time>2012-03-28T09:48:17.000Z</time>
      </trkpt>
      <trkpt lat="47.69813" lon="6.04428">
        <ele>221.60000610352</ele>
        <time>2012-03-28T09:48:24.000Z</time>
      </trkpt>
      <trkpt lat="47.6978" lon="6.04425">
        <ele>221.60000610352</ele>
        <time>2012-03-28T09:48:30.000Z</time>
      </trkpt>
      <trkpt lat="47.69769" lon="6.04425">
        <ele>221.60000610352</ele>
        <time>2012-03-28T09:48:32.000Z</time>
      </trkpt>
      <trkpt lat="47.69764" lon="6.04425">
        <ele>221.19999694824</ele>
        <time>2012-03-28T09:48:33.000Z</time>
      </trkpt>
      <trkpt lat="47.69758" lon="6.04425">
        <ele>220.80000305176</ele>
        <time>2012-03-28T09:48:34.000Z</time>
      </trkpt>
      <trkpt lat="47.69752" lon="6.04425">
        <ele>220.39999389648</ele>
        <time>2012-03-28T09:48:35.000Z</time>
      </trkpt>
      <trkpt lat="47.69746" lon="6.04425">
        <ele>220</ele>
        <time>2012-03-28T09:48:36.000Z</time>
      </trkpt>
      <trkpt lat="47.6974" lon="6.04425">
        <ele>219.60000610352</ele>
        <time>2012-03-28T09:48:37.000Z</time>
      </trkpt>
      <trkpt lat="47.69712" lon="6.04427">
        <ele>219.60000610352</ele>
        <time>2012-03-28T09:48:42.000Z</time>
      </trkpt>
      <trkpt lat="47.69671" lon="6.04429">
        <ele>219.60000610352</ele>
        <time>2012-03-28T09:48:50.000Z</time>
      </trkpt>
      <trkpt lat="47.69641" lon="6.04429">
        <ele>219.60000610352</ele>
        <time>2012-03-28T09:48:56.000Z</time>
      </trkpt>
      <trkpt lat="47.69604" lon="6.0443">
        <ele>219.60000610352</ele>
        <time>2012-03-28T09:49:03.000Z</time>
      </trkpt>
      <trkpt lat="47.69566" lon="6.04432">
        <ele>219.60000610352</ele>
        <time>2012-03-28T09:49:10.000Z</time>
      </trkpt>
      <trkpt lat="47.6956" lon="6.04432">
        <ele>219.60000610352</ele>
        <time>2012-03-28T09:49:11.000Z</time>
      </trkpt>
      <trkpt lat="47.69531" lon="6.04431">
        <ele>219.60000610352</ele>
        <time>2012-03-28T09:49:16.000Z</time>
      </trkpt>
      <trkpt lat="47.69485" lon="6.04428">
        <ele>219.60000610352</ele>
        <time>2012-03-28T09:49:24.000Z</time>
      </trkpt>
      <trkpt lat="47.6945" lon="6.04424">
        <ele>219.60000610352</ele>
        <time>2012-03-28T09:49:30.000Z</time>
      </trkpt>
      <trkpt lat="47.69411" lon="6.04419">
        <ele>219.60000610352</ele>
        <time>2012-03-28T09:49:37.000Z</time>
      </trkpt>
      <trkpt lat="47.69405" lon="6.04418">
        <ele>219.60000610352</ele>
        <time>2012-03-28T09:49:38.000Z</time>
      </trkpt>
      <trkpt lat="47.69367" lon="6.04413">
        <ele>219.60000610352</ele>
        <time>2012-03-28T09:49:45.000Z</time>
      </trkpt>
      <trkpt lat="47.69332" lon="6.04409">
        <ele>219.60000610352</ele>
        <time>2012-03-28T09:49:52.000Z</time>
      </trkpt>
      <trkpt lat="47.69299" lon="6.04405">
        <ele>219.60000610352</ele>
        <time>2012-03-28T09:49:59.000Z</time>
      </trkpt>
      <trkpt lat="47.69295" lon="6.04404">
        <ele>219.60000610352</ele>
        <time>2012-03-28T09:50:00.000Z</time>
      </trkpt>
      <trkpt lat="47.69264" lon="6.04395">
        <ele>219.60000610352</ele>
        <time>2012-03-28T09:50:07.000Z</time>
      </trkpt>
      <trkpt lat="47.69222" lon="6.04379">
        <ele>219.60000610352</ele>
        <time>2012-03-28T09:50:16.000Z</time>
      </trkpt>
      <trkpt lat="47.69198" lon="6.0437">
        <ele>219.60000610352</ele>
        <time>2012-03-28T09:50:22.000Z</time>
      </trkpt>
      <trkpt lat="47.69176" lon="6.04361">
        <ele>219.60000610352</ele>
        <time>2012-03-28T09:50:28.000Z</time>
      </trkpt>
      <trkpt lat="47.69142" lon="6.0435">
        <ele>219.60000610352</ele>
        <time>2012-03-28T09:50:35.000Z</time>
      </trkpt>
      <trkpt lat="47.69103" lon="6.04341">
        <ele>219.60000610352</ele>
        <time>2012-03-28T09:50:43.000Z</time>
      </trkpt>
      <trkpt lat="47.6908" lon="6.04338">
        <ele>219.60000610352</ele>
        <time>2012-03-28T09:50:49.000Z</time>
      </trkpt>
      <trkpt lat="47.69059" lon="6.04334">
        <ele>219.60000610352</ele>
        <time>2012-03-28T09:50:55.000Z</time>
      </trkpt>
      <trkpt lat="47.69043" lon="6.04326">
        <ele>219.60000610352</ele>
        <time>2012-03-28T09:51:00.000Z</time>
      </trkpt>
      <trkpt lat="47.69024" lon="6.0432">
        <ele>219.60000610352</ele>
        <time>2012-03-28T09:51:05.000Z</time>
      </trkpt>
      <trkpt lat="47.68998" lon="6.04314">
        <ele>219.60000610352</ele>
        <time>2012-03-28T09:51:12.000Z</time>
      </trkpt>
      <trkpt lat="47.68994" lon="6.04313">
        <ele>220</ele>
        <time>2012-03-28T09:51:13.000Z</time>
      </trkpt>
      <trkpt lat="47.6899" lon="6.04313">
        <ele>220.39999389648</ele>
        <time>2012-03-28T09:51:14.000Z</time>
      </trkpt>
      <trkpt lat="47.68986" lon="6.04313">
        <ele>220.80000305176</ele>
        <time>2012-03-28T09:51:15.000Z</time>
      </trkpt>
      <trkpt lat="47.68983" lon="6.04313">
        <ele>221.19999694824</ele>
        <time>2012-03-28T09:51:16.000Z</time>
      </trkpt>
      <trkpt lat="47.68979" lon="6.04314">
        <ele>221.60000610352</ele>
        <time>2012-03-28T09:51:17.000Z</time>
      </trkpt>
      <trkpt lat="47.68976" lon="6.04314">
        <ele>221.60000610352</ele>
        <time>2012-03-28T09:51:18.000Z</time>
      </trkpt>
      <trkpt lat="47.68955" lon="6.0432">
        <ele>221.60000610352</ele>
        <time>2012-03-28T09:51:26.000Z</time>
      </trkpt>
      <trkpt lat="47.68937" lon="6.04326">
        <ele>222</ele>
        <time>2012-03-28T09:51:32.000Z</time>
      </trkpt>
      <trkpt lat="47.68934" lon="6.04326">
        <ele>222.39999389648</ele>
        <time>2012-03-28T09:51:33.000Z</time>
      </trkpt>
      <trkpt lat="47.68932" lon="6.04327">
        <ele>223</ele>
        <time>2012-03-28T09:51:34.000Z</time>
      </trkpt>
      <trkpt lat="47.68929" lon="6.04327">
        <ele>223.39999389648</ele>
        <time>2012-03-28T09:51:35.000Z</time>
      </trkpt>
      <trkpt lat="47.68925" lon="6.04328">
        <ele>223.80000305176</ele>
        <time>2012-03-28T09:51:36.000Z</time>
      </trkpt>
      <trkpt lat="47.68909" lon="6.04333">
        <ele>223.80000305176</ele>
        <time>2012-03-28T09:51:41.000Z</time>
      </trkpt>
      <trkpt lat="47.68893" lon="6.0433">
        <ele>223.80000305176</ele>
        <time>2012-03-28T09:51:46.000Z</time>
      </trkpt>
      <trkpt lat="47.68889" lon="6.04329">
        <ele>223.80000305176</ele>
        <time>2012-03-28T09:51:49.000Z</time>
      </trkpt>
      <trkpt lat="47.68889" lon="6.04329">
        <ele>223.80000305176</ele>
        <time>2012-03-28T09:51:57.000Z</time>
      </trkpt>
      <trkpt lat="47.68883" lon="6.04332">
        <ele>223.80000305176</ele>
        <time>2012-03-28T09:52:00.000Z</time>
      </trkpt>
      <trkpt lat="47.68882" lon="6.04335">
        <ele>223.80000305176</ele>
        <time>2012-03-28T09:52:01.000Z</time>
      </trkpt>
      <trkpt lat="47.68876" lon="6.04351">
        <ele>223.80000305176</ele>
        <time>2012-03-28T09:52:05.000Z</time>
      </trkpt>
      <trkpt lat="47.68864" lon="6.04377">
        <ele>223.80000305176</ele>
        <time>2012-03-28T09:52:11.000Z</time>
      </trkpt>
      <trkpt lat="47.68858" lon="6.04392">
        <ele>223.80000305176</ele>
        <time>2012-03-28T09:52:14.000Z</time>
      </trkpt>
      <trkpt lat="47.68854" lon="6.04404">
        <ele>223.80000305176</ele>
        <time>2012-03-28T09:52:16.000Z</time>
      </trkpt>
      <trkpt lat="47.68852" lon="6.04411">
        <ele>224.19999694824</ele>
        <time>2012-03-28T09:52:17.000Z</time>
      </trkpt>
      <trkpt lat="47.6885" lon="6.04419">
        <ele>224.60000610352</ele>
        <time>2012-03-28T09:52:18.000Z</time>
      </trkpt>
      <trkpt lat="47.68848" lon="6.04426">
        <ele>225</ele>
        <time>2012-03-28T09:52:19.000Z</time>
      </trkpt>
      <trkpt lat="47.68847" lon="6.04433">
        <ele>225.39999389648</ele>
        <time>2012-03-28T09:52:20.000Z</time>
      </trkpt>
      <trkpt lat="47.68845" lon="6.0444">
        <ele>225.80000305176</ele>
        <time>2012-03-28T09:52:21.000Z</time>
      </trkpt>
      <trkpt lat="47.68844" lon="6.04447">
        <ele>225.80000305176</ele>
        <time>2012-03-28T09:52:22.000Z</time>
      </trkpt>
      <trkpt lat="47.6884" lon="6.04466">
        <ele>226.19999694824</ele>
        <time>2012-03-28T09:52:25.000Z</time>
      </trkpt>
      <trkpt lat="47.68839" lon="6.04472">
        <ele>226.60000610352</ele>
        <time>2012-03-28T09:52:26.000Z</time>
      </trkpt>
      <trkpt lat="47.68838" lon="6.04478">
        <ele>227</ele>
        <time>2012-03-28T09:52:27.000Z</time>
      </trkpt>
      <trkpt lat="47.68837" lon="6.04484">
        <ele>227.60000610352</ele>
        <time>2012-03-28T09:52:28.000Z</time>
      </trkpt>
      <trkpt lat="47.68836" lon="6.0449">
        <ele>228</ele>
        <time>2012-03-28T09:52:29.000Z</time>
      </trkpt>
      <trkpt lat="47.68835" lon="6.04496">
        <ele>228</ele>
        <time>2012-03-28T09:52:30.000Z</time>
      </trkpt>
      <trkpt lat="47.68828" lon="6.0454">
        <ele>228</ele>
        <time>2012-03-28T09:52:38.000Z</time>
      </trkpt>
      <trkpt lat="47.68826" lon="6.04556">
        <ele>228.39999389648</ele>
        <time>2012-03-28T09:52:41.000Z</time>
      </trkpt>
      <trkpt lat="47.68826" lon="6.04561">
        <ele>228.80000305176</ele>
        <time>2012-03-28T09:52:42.000Z</time>
      </trkpt>
      <trkpt lat="47.68825" lon="6.04566">
        <ele>229.19999694824</ele>
        <time>2012-03-28T09:52:43.000Z</time>
      </trkpt>
      <trkpt lat="47.68825" lon="6.04572">
        <ele>229.60000610352</ele>
        <time>2012-03-28T09:52:44.000Z</time>
      </trkpt>
      <trkpt lat="47.68824" lon="6.04577">
        <ele>230</ele>
        <time>2012-03-28T09:52:45.000Z</time>
      </trkpt>
      <trkpt lat="47.68824" lon="6.04582">
        <ele>230</ele>
        <time>2012-03-28T09:52:46.000Z</time>
      </trkpt>
      <trkpt lat="47.68825" lon="6.04614">
        <ele>230</ele>
        <time>2012-03-28T09:52:52.000Z</time>
      </trkpt>
      <trkpt lat="47.68826" lon="6.04659">
        <ele>230</ele>
        <time>2012-03-28T09:53:01.000Z</time>
      </trkpt>
      <trkpt lat="47.68824" lon="6.04693">
        <ele>230</ele>
        <time>2012-03-28T09:53:08.000Z</time>
      </trkpt>
      <trkpt lat="47.68823" lon="6.04703">
        <ele>230.39999389648</ele>
        <time>2012-03-28T09:53:10.000Z</time>
      </trkpt>
      <trkpt lat="47.68823" lon="6.04707">
        <ele>230.80000305176</ele>
        <time>2012-03-28T09:53:11.000Z</time>
      </trkpt>
      <trkpt lat="47.68823" lon="6.04712">
        <ele>231.19999694824</ele>
        <time>2012-03-28T09:53:12.000Z</time>
      </trkpt>
      <trkpt lat="47.68823" lon="6.04717">
        <ele>231.60000610352</ele>
        <time>2012-03-28T09:53:13.000Z</time>
      </trkpt>
      <trkpt lat="47.68824" lon="6.04722">
        <ele>232</ele>
        <time>2012-03-28T09:53:14.000Z</time>
      </trkpt>
      <trkpt lat="47.68824" lon="6.04728">
        <ele>232</ele>
        <time>2012-03-28T09:53:15.000Z</time>
      </trkpt>
      <trkpt lat="47.68824" lon="6.04763">
        <ele>232</ele>
        <time>2012-03-28T09:53:22.000Z</time>
      </trkpt>
      <trkpt lat="47.68822" lon="6.04791">
        <ele>232</ele>
        <time>2012-03-28T09:53:28.000Z</time>
      </trkpt>
      <trkpt lat="47.68821" lon="6.04812">
        <ele>232</ele>
        <time>2012-03-28T09:53:33.000Z</time>
      </trkpt>
      <trkpt lat="47.6882" lon="6.0482">
        <ele>232.60000610352</ele>
        <time>2012-03-28T09:53:35.000Z</time>
      </trkpt>
      <trkpt lat="47.68822" lon="6.04825">
        <ele>233</ele>
        <time>2012-03-28T09:53:36.000Z</time>
      </trkpt>
      <trkpt lat="47.68822" lon="6.0483">
        <ele>233.39999389648</ele>
        <time>2012-03-28T09:53:37.000Z</time>
      </trkpt>
      <trkpt lat="47.68823" lon="6.04835">
        <ele>233.80000305176</ele>
        <time>2012-03-28T09:53:38.000Z</time>
      </trkpt>
      <trkpt lat="47.68823" lon="6.04839">
        <ele>234.19999694824</ele>
        <time>2012-03-28T09:53:39.000Z</time>
      </trkpt>
      <trkpt lat="47.68823" lon="6.04843">
        <ele>234.19999694824</ele>
        <time>2012-03-28T09:53:40.000Z</time>
      </trkpt>
      <trkpt lat="47.68817" lon="6.04867">
        <ele>234.19999694824</ele>
        <time>2012-03-28T09:53:47.000Z</time>
      </trkpt>
      <trkpt lat="47.68814" lon="6.04867">
        <ele>234.60000610352</ele>
        <time>2012-03-28T09:53:48.000Z</time>
      </trkpt>
      <trkpt lat="47.6881" lon="6.04867">
        <ele>235</ele>
        <time>2012-03-28T09:53:49.000Z</time>
      </trkpt>
      <trkpt lat="47.68807" lon="6.04866">
        <ele>235.39999389648</ele>
        <time>2012-03-28T09:53:50.000Z</time>
      </trkpt>
      <trkpt lat="47.68803" lon="6.04867">
        <ele>235.80000305176</ele>
        <time>2012-03-28T09:53:51.000Z</time>
      </trkpt>
      <trkpt lat="47.688" lon="6.04867">
        <ele>236.19999694824</ele>
        <time>2012-03-28T09:53:52.000Z</time>
      </trkpt>
      <trkpt lat="47.68797" lon="6.04868">
        <ele>236.19999694824</ele>
        <time>2012-03-28T09:53:53.000Z</time>
      </trkpt>
      <trkpt lat="47.6879" lon="6.04871">
        <ele>236.60000610352</ele>
        <time>2012-03-28T09:53:57.000Z</time>
      </trkpt>
      <trkpt lat="47.68787" lon="6.04872">
        <ele>237</ele>
        <time>2012-03-28T09:53:58.000Z</time>
      </trkpt>
      <trkpt lat="47.68785" lon="6.04873">
        <ele>237.39999389648</ele>
        <time>2012-03-28T09:53:59.000Z</time>
      </trkpt>
      <trkpt lat="47.68783" lon="6.04873">
        <ele>237.80000305176</ele>
        <time>2012-03-28T09:54:00.000Z</time>
      </trkpt>
      <trkpt lat="47.68782" lon="6.04873">
        <ele>238.19999694824</ele>
        <time>2012-03-28T09:54:01.000Z</time>
      </trkpt>
      <trkpt lat="47.68781" lon="6.04871">
        <ele>238.19999694824</ele>
        <time>2012-03-28T09:54:02.000Z</time>
      </trkpt>
      <trkpt lat="47.6878" lon="6.04868">
        <ele>238.19999694824</ele>
        <time>2012-03-28T09:54:03.000Z</time>
      </trkpt>
      <trkpt lat="47.68773" lon="6.04844">
        <ele>238.19999694824</ele>
        <time>2012-03-28T09:54:11.000Z</time>
      </trkpt>
      <trkpt lat="47.68765" lon="6.04819">
        <ele>238.19999694824</ele>
        <time>2012-03-28T09:54:20.000Z</time>
      </trkpt>
      <trkpt lat="47.68763" lon="6.0481">
        <ele>238.60000610352</ele>
        <time>2012-03-28T09:54:23.000Z</time>
      </trkpt>
      <trkpt lat="47.68762" lon="6.04807">
        <ele>239</ele>
        <time>2012-03-28T09:54:24.000Z</time>
      </trkpt>
      <trkpt lat="47.68762" lon="6.04805">
        <ele>239.39999389648</ele>
        <time>2012-03-28T09:54:25.000Z</time>
      </trkpt>
      <trkpt lat="47.68761" lon="6.04802">
        <ele>239.80000305176</ele>
        <time>2012-03-28T09:54:26.000Z</time>
      </trkpt>
      <trkpt lat="47.6876" lon="6.04799">
        <ele>240.19999694824</ele>
        <time>2012-03-28T09:54:27.000Z</time>
      </trkpt>
      <trkpt lat="47.68752" lon="6.04774">
        <ele>240.19999694824</ele>
        <time>2012-03-28T09:54:34.000Z</time>
      </trkpt>
      <trkpt lat="47.68743" lon="6.04741">
        <ele>241</ele>
        <time>2012-03-28T09:54:42.000Z</time>
      </trkpt>
      <trkpt lat="47.68742" lon="6.04737">
        <ele>241.39999389648</ele>
        <time>2012-03-28T09:54:43.000Z</time>
      </trkpt>
      <trkpt lat="47.6874" lon="6.04731">
        <ele>241.80000305176</ele>
        <time>2012-03-28T09:54:44.000Z</time>
      </trkpt>
      <trkpt lat="47.68739" lon="6.04726">
        <ele>242.19999694824</ele>
        <time>2012-03-28T09:54:45.000Z</time>
      </trkpt>
      <trkpt lat="47.68731" lon="6.04704">
        <ele>242.19999694824</ele>
        <time>2012-03-28T09:54:49.000Z</time>
      </trkpt>
      <trkpt lat="47.68716" lon="6.04672">
        <ele>242.19999694824</ele>
        <time>2012-03-28T09:54:56.000Z</time>
      </trkpt>
      <trkpt lat="47.687" lon="6.04639">
        <ele>242.19999694824</ele>
        <time>2012-03-28T09:55:04.000Z</time>
      </trkpt>
      <trkpt lat="47.68685" lon="6.04604">
        <ele>242.19999694824</ele>
        <time>2012-03-28T09:55:12.000Z</time>
      </trkpt>
      <trkpt lat="47.68684" lon="6.04598">
        <ele>242.19999694824</ele>
        <time>2012-03-28T09:55:13.000Z</time>
      </trkpt>
      <trkpt lat="47.68675" lon="6.04576">
        <ele>242.19999694824</ele>
        <time>2012-03-28T09:55:17.000Z</time>
      </trkpt>
      <trkpt lat="47.68669" lon="6.04565">
        <ele>242.19999694824</ele>
        <time>2012-03-28T09:55:19.000Z</time>
      </trkpt>
      <trkpt lat="47.68658" lon="6.04552">
        <ele>242.19999694824</ele>
        <time>2012-03-28T09:55:22.000Z</time>
      </trkpt>
      <trkpt lat="47.68646" lon="6.04541">
        <ele>242.19999694824</ele>
        <time>2012-03-28T09:55:25.000Z</time>
      </trkpt>
      <trkpt lat="47.68639" lon="6.04535">
        <ele>241.80000305176</ele>
        <time>2012-03-28T09:55:27.000Z</time>
      </trkpt>
      <trkpt lat="47.68635" lon="6.04534">
        <ele>241.39999389648</ele>
        <time>2012-03-28T09:55:28.000Z</time>
      </trkpt>
      <trkpt lat="47.68631" lon="6.04535">
        <ele>241</ele>
        <time>2012-03-28T09:55:29.000Z</time>
      </trkpt>
      <trkpt lat="47.68627" lon="6.04538">
        <ele>240.60000610352</ele>
        <time>2012-03-28T09:55:30.000Z</time>
      </trkpt>
      <trkpt lat="47.68624" lon="6.04542">
        <ele>240.19999694824</ele>
        <time>2012-03-28T09:55:31.000Z</time>
      </trkpt>
      <trkpt lat="47.68624" lon="6.0455">
        <ele>240.19999694824</ele>
        <time>2012-03-28T09:55:34.000Z</time>
      </trkpt>
      <trkpt lat="47.68624" lon="6.0455">
        <ele>240.19999694824</ele>
        <time>2012-03-28T09:55:35.000Z</time>
      </trkpt>
    </trkseg>
  </trk>
</gpx>